<?xml version="1.0" encoding="UTF-8" standalone="no" ?>
<gpx xmlns="http://www.topografix.com/GPX/1/1" xmlns:xsi="http://www.w3.org/2001/XMLSchema-instance" xsi:schemaLocation="http://www.topografix.com/GPX/1/1 http://www.topografix.com/GPX/1/1/gpx.xsd" version="1.1" creator="VisuGPX - https://www.visugpx.com">
  <metadata>
    <name>Randonnée du 11-11-2017--11 km</name>
    <desc><![CDATA[Boucle au départ de Montgiscard]]></desc>
  </metadata>
  <trk>
    <name><![CDATA[Randonnée du 11-11-2017--11 km_1]]></name>
    <trkseg>
      <trkpt lat="43.46035" lon="1.57212">
        <ele>181</ele>
        <time>2017-11-11T09:27:43Z</time>
      </trkpt>
      <trkpt lat="43.46037" lon="1.57211">
        <ele>181</ele>
        <time>2017-11-11T09:27:43Z</time>
      </trkpt>
      <trkpt lat="43.46039" lon="1.57206">
        <ele>182</ele>
        <time>2017-11-11T09:27:43Z</time>
      </trkpt>
      <trkpt lat="43.46039" lon="1.57201">
        <ele>182</ele>
        <time>2017-11-11T09:27:43Z</time>
      </trkpt>
      <trkpt lat="43.46041" lon="1.57195">
        <ele>182</ele>
        <time>2017-11-11T09:27:43Z</time>
      </trkpt>
      <trkpt lat="43.46043" lon="1.57193">
        <ele>175</ele>
        <time>2017-11-11T09:27:59Z</time>
      </trkpt>
      <trkpt lat="43.46047" lon="1.5719">
        <ele>175</ele>
        <time>2017-11-11T09:27:59Z</time>
      </trkpt>
      <trkpt lat="43.46049" lon="1.57187">
        <ele>175</ele>
        <time>2017-11-11T09:27:59Z</time>
      </trkpt>
      <trkpt lat="43.46051" lon="1.57186">
        <ele>175</ele>
        <time>2017-11-11T09:27:59Z</time>
      </trkpt>
      <trkpt lat="43.46054" lon="1.57184">
        <ele>175</ele>
        <time>2017-11-11T09:28:15Z</time>
      </trkpt>
      <trkpt lat="43.46058" lon="1.57181">
        <ele>175</ele>
        <time>2017-11-11T09:28:15Z</time>
      </trkpt>
      <trkpt lat="43.46062" lon="1.57178">
        <ele>175</ele>
        <time>2017-11-11T09:28:15Z</time>
      </trkpt>
      <trkpt lat="43.46068" lon="1.57176">
        <ele>175</ele>
        <time>2017-11-11T09:28:15Z</time>
      </trkpt>
      <trkpt lat="43.46071" lon="1.57175">
        <ele>175</ele>
        <time>2017-11-11T09:28:31Z</time>
      </trkpt>
      <trkpt lat="43.46074" lon="1.57171">
        <ele>175</ele>
        <time>2017-11-11T09:28:32Z</time>
      </trkpt>
      <trkpt lat="43.46078" lon="1.57165">
        <ele>175</ele>
        <time>2017-11-11T09:28:32Z</time>
      </trkpt>
      <trkpt lat="43.46083" lon="1.57161">
        <ele>175</ele>
        <time>2017-11-11T09:28:32Z</time>
      </trkpt>
      <trkpt lat="43.46087" lon="1.57159">
        <ele>175</ele>
        <time>2017-11-11T09:28:47Z</time>
      </trkpt>
      <trkpt lat="43.46092" lon="1.57155">
        <ele>175</ele>
        <time>2017-11-11T09:28:47Z</time>
      </trkpt>
      <trkpt lat="43.46094" lon="1.57153">
        <ele>175</ele>
        <time>2017-11-11T09:28:47Z</time>
      </trkpt>
      <trkpt lat="43.46098" lon="1.57151">
        <ele>175</ele>
        <time>2017-11-11T09:28:47Z</time>
      </trkpt>
      <trkpt lat="43.46103" lon="1.57148">
        <ele>175</ele>
        <time>2017-11-11T09:29:03Z</time>
      </trkpt>
      <trkpt lat="43.46106" lon="1.57147">
        <ele>175</ele>
        <time>2017-11-11T09:29:04Z</time>
      </trkpt>
      <trkpt lat="43.46109" lon="1.57145">
        <ele>175</ele>
        <time>2017-11-11T09:29:04Z</time>
      </trkpt>
      <trkpt lat="43.46113" lon="1.57141">
        <ele>175</ele>
        <time>2017-11-11T09:29:04Z</time>
      </trkpt>
      <trkpt lat="43.46116" lon="1.57139">
        <ele>175</ele>
        <time>2017-11-11T09:29:19Z</time>
      </trkpt>
      <trkpt lat="43.4612" lon="1.57136">
        <ele>175</ele>
        <time>2017-11-11T09:29:19Z</time>
      </trkpt>
      <trkpt lat="43.46125" lon="1.57132">
        <ele>165</ele>
        <time>2017-11-11T09:29:19Z</time>
      </trkpt>
      <trkpt lat="43.46128" lon="1.57129">
        <ele>165</ele>
        <time>2017-11-11T09:29:19Z</time>
      </trkpt>
      <trkpt lat="43.46133" lon="1.57125">
        <ele>165</ele>
        <time>2017-11-11T09:29:35Z</time>
      </trkpt>
      <trkpt lat="43.46136" lon="1.57123">
        <ele>167</ele>
        <time>2017-11-11T09:29:35Z</time>
      </trkpt>
      <trkpt lat="43.4614" lon="1.5712">
        <ele>167</ele>
        <time>2017-11-11T09:29:35Z</time>
      </trkpt>
      <trkpt lat="43.46146" lon="1.57117">
        <ele>167</ele>
        <time>2017-11-11T09:29:35Z</time>
      </trkpt>
      <trkpt lat="43.46149" lon="1.57116">
        <ele>167</ele>
        <time>2017-11-11T09:29:51Z</time>
      </trkpt>
      <trkpt lat="43.46154" lon="1.57115">
        <ele>167</ele>
        <time>2017-11-11T09:29:51Z</time>
      </trkpt>
      <trkpt lat="43.46159" lon="1.57112">
        <ele>167</ele>
        <time>2017-11-11T09:29:51Z</time>
      </trkpt>
      <trkpt lat="43.46161" lon="1.5711">
        <ele>167</ele>
        <time>2017-11-11T09:29:51Z</time>
      </trkpt>
      <trkpt lat="43.46165" lon="1.57107">
        <ele>167</ele>
        <time>2017-11-11T09:30:08Z</time>
      </trkpt>
      <trkpt lat="43.46171" lon="1.57104">
        <ele>167</ele>
        <time>2017-11-11T09:30:08Z</time>
      </trkpt>
      <trkpt lat="43.46174" lon="1.57101">
        <ele>167</ele>
        <time>2017-11-11T09:30:08Z</time>
      </trkpt>
      <trkpt lat="43.46181" lon="1.571">
        <ele>167</ele>
        <time>2017-11-11T09:30:08Z</time>
      </trkpt>
      <trkpt lat="43.46185" lon="1.571">
        <ele>167</ele>
        <time>2017-11-11T09:30:55Z</time>
      </trkpt>
      <trkpt lat="43.46185" lon="1.57101">
        <ele>167</ele>
        <time>2017-11-11T09:30:55Z</time>
      </trkpt>
      <trkpt lat="43.46189" lon="1.57105">
        <ele>167</ele>
        <time>2017-11-11T09:30:55Z</time>
      </trkpt>
      <trkpt lat="43.46192" lon="1.57108">
        <ele>167</ele>
        <time>2017-11-11T09:30:55Z</time>
      </trkpt>
      <trkpt lat="43.46196" lon="1.57107">
        <ele>167</ele>
        <time>2017-11-11T09:30:55Z</time>
      </trkpt>
      <trkpt lat="43.462" lon="1.57103">
        <ele>167</ele>
        <time>2017-11-11T09:31:12Z</time>
      </trkpt>
      <trkpt lat="43.46201" lon="1.571">
        <ele>167</ele>
        <time>2017-11-11T09:31:12Z</time>
      </trkpt>
      <trkpt lat="43.46202" lon="1.57097">
        <ele>167</ele>
        <time>2017-11-11T09:31:12Z</time>
      </trkpt>
      <trkpt lat="43.46205" lon="1.57091">
        <ele>167</ele>
        <time>2017-11-11T09:31:12Z</time>
      </trkpt>
      <trkpt lat="43.46207" lon="1.57088">
        <ele>167</ele>
        <time>2017-11-11T09:31:27Z</time>
      </trkpt>
      <trkpt lat="43.4621" lon="1.57083">
        <ele>160</ele>
        <time>2017-11-11T09:31:27Z</time>
      </trkpt>
      <trkpt lat="43.46214" lon="1.5708">
        <ele>160</ele>
        <time>2017-11-11T09:31:27Z</time>
      </trkpt>
      <trkpt lat="43.46218" lon="1.5708">
        <ele>160</ele>
        <time>2017-11-11T09:31:27Z</time>
      </trkpt>
      <trkpt lat="43.46224" lon="1.57081">
        <ele>160</ele>
        <time>2017-11-11T09:31:43Z</time>
      </trkpt>
      <trkpt lat="43.46228" lon="1.57082">
        <ele>160</ele>
        <time>2017-11-11T09:31:44Z</time>
      </trkpt>
      <trkpt lat="43.46232" lon="1.57082">
        <ele>160</ele>
        <time>2017-11-11T09:31:44Z</time>
      </trkpt>
      <trkpt lat="43.46237" lon="1.57081">
        <ele>160</ele>
        <time>2017-11-11T09:31:44Z</time>
      </trkpt>
      <trkpt lat="43.46239" lon="1.57081">
        <ele>160</ele>
        <time>2017-11-11T09:32:03Z</time>
      </trkpt>
      <trkpt lat="43.46241" lon="1.57081">
        <ele>160</ele>
        <time>2017-11-11T09:32:03Z</time>
      </trkpt>
      <trkpt lat="43.46244" lon="1.5708">
        <ele>160</ele>
        <time>2017-11-11T09:32:04Z</time>
      </trkpt>
      <trkpt lat="43.46246" lon="1.57076">
        <ele>160</ele>
        <time>2017-11-11T09:32:04Z</time>
      </trkpt>
      <trkpt lat="43.4625" lon="1.57074">
        <ele>160</ele>
        <time>2017-11-11T09:32:04Z</time>
      </trkpt>
      <trkpt lat="43.46255" lon="1.57075">
        <ele>160</ele>
        <time>2017-11-11T09:32:19Z</time>
      </trkpt>
      <trkpt lat="43.46261" lon="1.57075">
        <ele>160</ele>
        <time>2017-11-11T09:32:19Z</time>
      </trkpt>
      <trkpt lat="43.46267" lon="1.57073">
        <ele>160</ele>
        <time>2017-11-11T09:32:19Z</time>
      </trkpt>
      <trkpt lat="43.4627" lon="1.5707">
        <ele>160</ele>
        <time>2017-11-11T09:32:19Z</time>
      </trkpt>
      <trkpt lat="43.46272" lon="1.57064">
        <ele>160</ele>
        <time>2017-11-11T09:32:35Z</time>
      </trkpt>
      <trkpt lat="43.46276" lon="1.57059">
        <ele>160</ele>
        <time>2017-11-11T09:32:36Z</time>
      </trkpt>
      <trkpt lat="43.46279" lon="1.57056">
        <ele>160</ele>
        <time>2017-11-11T09:32:36Z</time>
      </trkpt>
      <trkpt lat="43.46283" lon="1.5705">
        <ele>160</ele>
        <time>2017-11-11T09:32:36Z</time>
      </trkpt>
      <trkpt lat="43.46286" lon="1.57047">
        <ele>160</ele>
        <time>2017-11-11T09:32:51Z</time>
      </trkpt>
      <trkpt lat="43.46289" lon="1.57044">
        <ele>160</ele>
        <time>2017-11-11T09:32:51Z</time>
      </trkpt>
      <trkpt lat="43.46294" lon="1.57041">
        <ele>158</ele>
        <time>2017-11-11T09:32:51Z</time>
      </trkpt>
      <trkpt lat="43.46297" lon="1.57039">
        <ele>158</ele>
        <time>2017-11-11T09:32:51Z</time>
      </trkpt>
      <trkpt lat="43.46302" lon="1.57036">
        <ele>158</ele>
        <time>2017-11-11T09:33:07Z</time>
      </trkpt>
      <trkpt lat="43.46307" lon="1.57032">
        <ele>158</ele>
        <time>2017-11-11T09:33:07Z</time>
      </trkpt>
      <trkpt lat="43.4631" lon="1.5703">
        <ele>158</ele>
        <time>2017-11-11T09:33:07Z</time>
      </trkpt>
      <trkpt lat="43.46313" lon="1.57027">
        <ele>158</ele>
        <time>2017-11-11T09:33:07Z</time>
      </trkpt>
      <trkpt lat="43.46318" lon="1.57023">
        <ele>158</ele>
        <time>2017-11-11T09:33:23Z</time>
      </trkpt>
      <trkpt lat="43.46321" lon="1.57021">
        <ele>158</ele>
        <time>2017-11-11T09:33:23Z</time>
      </trkpt>
      <trkpt lat="43.46325" lon="1.57024">
        <ele>158</ele>
        <time>2017-11-11T09:33:23Z</time>
      </trkpt>
      <trkpt lat="43.46328" lon="1.57025">
        <ele>158</ele>
        <time>2017-11-11T09:33:23Z</time>
      </trkpt>
      <trkpt lat="43.46333" lon="1.57026">
        <ele>158</ele>
        <time>2017-11-11T09:33:47Z</time>
      </trkpt>
      <trkpt lat="43.46334" lon="1.57028">
        <ele>158</ele>
        <time>2017-11-11T09:33:47Z</time>
      </trkpt>
      <trkpt lat="43.46335" lon="1.5703">
        <ele>158</ele>
        <time>2017-11-11T09:33:47Z</time>
      </trkpt>
      <trkpt lat="43.46336" lon="1.57034">
        <ele>158</ele>
        <time>2017-11-11T09:33:47Z</time>
      </trkpt>
      <trkpt lat="43.46335" lon="1.57037">
        <ele>158</ele>
        <time>2017-11-11T09:33:47Z</time>
      </trkpt>
      <trkpt lat="43.46332" lon="1.57041">
        <ele>158</ele>
        <time>2017-11-11T09:34:04Z</time>
      </trkpt>
      <trkpt lat="43.46327" lon="1.57046">
        <ele>156</ele>
        <time>2017-11-11T09:34:04Z</time>
      </trkpt>
      <trkpt lat="43.46324" lon="1.5705">
        <ele>156</ele>
        <time>2017-11-11T09:34:04Z</time>
      </trkpt>
      <trkpt lat="43.4632" lon="1.57057">
        <ele>156</ele>
        <time>2017-11-11T09:34:04Z</time>
      </trkpt>
      <trkpt lat="43.46317" lon="1.5706">
        <ele>156</ele>
        <time>2017-11-11T09:34:19Z</time>
      </trkpt>
      <trkpt lat="43.46314" lon="1.57065">
        <ele>156</ele>
        <time>2017-11-11T09:34:19Z</time>
      </trkpt>
      <trkpt lat="43.46308" lon="1.5707">
        <ele>156</ele>
        <time>2017-11-11T09:34:19Z</time>
      </trkpt>
      <trkpt lat="43.46305" lon="1.57073">
        <ele>156</ele>
        <time>2017-11-11T09:34:19Z</time>
      </trkpt>
      <trkpt lat="43.46301" lon="1.57079">
        <ele>156</ele>
        <time>2017-11-11T09:34:47Z</time>
      </trkpt>
      <trkpt lat="43.463" lon="1.5708">
        <ele>156</ele>
        <time>2017-11-11T09:34:47Z</time>
      </trkpt>
      <trkpt lat="43.46296" lon="1.57083">
        <ele>156</ele>
        <time>2017-11-11T09:34:47Z</time>
      </trkpt>
      <trkpt lat="43.46293" lon="1.57085">
        <ele>156</ele>
        <time>2017-11-11T09:34:47Z</time>
      </trkpt>
      <trkpt lat="43.4629" lon="1.57088">
        <ele>160</ele>
        <time>2017-11-11T09:34:47Z</time>
      </trkpt>
      <trkpt lat="43.46286" lon="1.57091">
        <ele>160</ele>
        <time>2017-11-11T09:35:03Z</time>
      </trkpt>
      <trkpt lat="43.46282" lon="1.57094">
        <ele>160</ele>
        <time>2017-11-11T09:35:03Z</time>
      </trkpt>
      <trkpt lat="43.46276" lon="1.57099">
        <ele>160</ele>
        <time>2017-11-11T09:35:03Z</time>
      </trkpt>
      <trkpt lat="43.46271" lon="1.57102">
        <ele>160</ele>
        <time>2017-11-11T09:35:03Z</time>
      </trkpt>
      <trkpt lat="43.46268" lon="1.57106">
        <ele>160</ele>
        <time>2017-11-11T09:35:19Z</time>
      </trkpt>
      <trkpt lat="43.46265" lon="1.57108">
        <ele>160</ele>
        <time>2017-11-11T09:35:19Z</time>
      </trkpt>
      <trkpt lat="43.46262" lon="1.57111">
        <ele>160</ele>
        <time>2017-11-11T09:35:19Z</time>
      </trkpt>
      <trkpt lat="43.46256" lon="1.57115">
        <ele>160</ele>
        <time>2017-11-11T09:35:19Z</time>
      </trkpt>
      <trkpt lat="43.4625" lon="1.5712">
        <ele>160</ele>
        <time>2017-11-11T09:35:35Z</time>
      </trkpt>
      <trkpt lat="43.46247" lon="1.57121">
        <ele>160</ele>
        <time>2017-11-11T09:35:35Z</time>
      </trkpt>
      <trkpt lat="43.46244" lon="1.57124">
        <ele>160</ele>
        <time>2017-11-11T09:35:35Z</time>
      </trkpt>
      <trkpt lat="43.46242" lon="1.57128">
        <ele>158</ele>
        <time>2017-11-11T09:35:35Z</time>
      </trkpt>
      <trkpt lat="43.46239" lon="1.5713">
        <ele>158</ele>
        <time>2017-11-11T09:35:51Z</time>
      </trkpt>
      <trkpt lat="43.46237" lon="1.57134">
        <ele>158</ele>
        <time>2017-11-11T09:35:51Z</time>
      </trkpt>
      <trkpt lat="43.46233" lon="1.57137">
        <ele>158</ele>
        <time>2017-11-11T09:35:51Z</time>
      </trkpt>
      <trkpt lat="43.46228" lon="1.57144">
        <ele>158</ele>
        <time>2017-11-11T09:35:52Z</time>
      </trkpt>
      <trkpt lat="43.46225" lon="1.57147">
        <ele>158</ele>
        <time>2017-11-11T09:36:07Z</time>
      </trkpt>
      <trkpt lat="43.46221" lon="1.57151">
        <ele>158</ele>
        <time>2017-11-11T09:36:07Z</time>
      </trkpt>
      <trkpt lat="43.46219" lon="1.57153">
        <ele>158</ele>
        <time>2017-11-11T09:36:07Z</time>
      </trkpt>
      <trkpt lat="43.46218" lon="1.57155">
        <ele>158</ele>
        <time>2017-11-11T09:36:07Z</time>
      </trkpt>
      <trkpt lat="43.46217" lon="1.57158">
        <ele>158</ele>
        <time>2017-11-11T09:36:23Z</time>
      </trkpt>
      <trkpt lat="43.46213" lon="1.57161">
        <ele>158</ele>
        <time>2017-11-11T09:36:23Z</time>
      </trkpt>
      <trkpt lat="43.46211" lon="1.57164">
        <ele>158</ele>
        <time>2017-11-11T09:36:23Z</time>
      </trkpt>
      <trkpt lat="43.46207" lon="1.57169">
        <ele>165</ele>
        <time>2017-11-11T09:36:23Z</time>
      </trkpt>
      <trkpt lat="43.46205" lon="1.57173">
        <ele>165</ele>
        <time>2017-11-11T09:36:39Z</time>
      </trkpt>
      <trkpt lat="43.46204" lon="1.57177">
        <ele>165</ele>
        <time>2017-11-11T09:36:39Z</time>
      </trkpt>
      <trkpt lat="43.46201" lon="1.57181">
        <ele>165</ele>
        <time>2017-11-11T09:36:40Z</time>
      </trkpt>
      <trkpt lat="43.46195" lon="1.57186">
        <ele>165</ele>
        <time>2017-11-11T09:36:40Z</time>
      </trkpt>
      <trkpt lat="43.46192" lon="1.57191">
        <ele>165</ele>
        <time>2017-11-11T09:36:55Z</time>
      </trkpt>
      <trkpt lat="43.46187" lon="1.57197">
        <ele>165</ele>
        <time>2017-11-11T09:36:55Z</time>
      </trkpt>
      <trkpt lat="43.46186" lon="1.57201">
        <ele>165</ele>
        <time>2017-11-11T09:36:55Z</time>
      </trkpt>
      <trkpt lat="43.46183" lon="1.57206">
        <ele>165</ele>
        <time>2017-11-11T09:36:55Z</time>
      </trkpt>
      <trkpt lat="43.4618" lon="1.5721">
        <ele>164</ele>
        <time>2017-11-11T09:37:11Z</time>
      </trkpt>
      <trkpt lat="43.46178" lon="1.57213">
        <ele>164</ele>
        <time>2017-11-11T09:37:11Z</time>
      </trkpt>
      <trkpt lat="43.46175" lon="1.57218">
        <ele>164</ele>
        <time>2017-11-11T09:37:11Z</time>
      </trkpt>
      <trkpt lat="43.46171" lon="1.57223">
        <ele>164</ele>
        <time>2017-11-11T09:37:11Z</time>
      </trkpt>
      <trkpt lat="43.46167" lon="1.57228">
        <ele>164</ele>
        <time>2017-11-11T09:37:27Z</time>
      </trkpt>
      <trkpt lat="43.46163" lon="1.57234">
        <ele>164</ele>
        <time>2017-11-11T09:37:27Z</time>
      </trkpt>
      <trkpt lat="43.4616" lon="1.57237">
        <ele>164</ele>
        <time>2017-11-11T09:37:27Z</time>
      </trkpt>
      <trkpt lat="43.46159" lon="1.5724">
        <ele>164</ele>
        <time>2017-11-11T09:37:27Z</time>
      </trkpt>
      <trkpt lat="43.46155" lon="1.57246">
        <ele>164</ele>
        <time>2017-11-11T09:37:44Z</time>
      </trkpt>
      <trkpt lat="43.46154" lon="1.57251">
        <ele>164</ele>
        <time>2017-11-11T09:37:44Z</time>
      </trkpt>
      <trkpt lat="43.46149" lon="1.57257">
        <ele>164</ele>
        <time>2017-11-11T09:37:44Z</time>
      </trkpt>
      <trkpt lat="43.46144" lon="1.57263">
        <ele>164</ele>
        <time>2017-11-11T09:37:44Z</time>
      </trkpt>
      <trkpt lat="43.46141" lon="1.57268">
        <ele>164</ele>
        <time>2017-11-11T09:37:59Z</time>
      </trkpt>
      <trkpt lat="43.46137" lon="1.57275">
        <ele>164</ele>
        <time>2017-11-11T09:37:59Z</time>
      </trkpt>
      <trkpt lat="43.46133" lon="1.57282">
        <ele>164</ele>
        <time>2017-11-11T09:37:59Z</time>
      </trkpt>
      <trkpt lat="43.4613" lon="1.57286">
        <ele>164</ele>
        <time>2017-11-11T09:37:59Z</time>
      </trkpt>
      <trkpt lat="43.46125" lon="1.57294">
        <ele>165</ele>
        <time>2017-11-11T09:38:16Z</time>
      </trkpt>
      <trkpt lat="43.46122" lon="1.57298">
        <ele>165</ele>
        <time>2017-11-11T09:38:16Z</time>
      </trkpt>
      <trkpt lat="43.4612" lon="1.57302">
        <ele>165</ele>
        <time>2017-11-11T09:38:16Z</time>
      </trkpt>
      <trkpt lat="43.46116" lon="1.57308">
        <ele>165</ele>
        <time>2017-11-11T09:38:16Z</time>
      </trkpt>
      <trkpt lat="43.46115" lon="1.57309">
        <ele>165</ele>
        <time>2017-11-11T09:38:31Z</time>
      </trkpt>
      <trkpt lat="43.46114" lon="1.57313">
        <ele>165</ele>
        <time>2017-11-11T09:38:31Z</time>
      </trkpt>
      <trkpt lat="43.46111" lon="1.57318">
        <ele>165</ele>
        <time>2017-11-11T09:38:31Z</time>
      </trkpt>
      <trkpt lat="43.46107" lon="1.57323">
        <ele>165</ele>
        <time>2017-11-11T09:38:31Z</time>
      </trkpt>
      <trkpt lat="43.46106" lon="1.57326">
        <ele>165</ele>
        <time>2017-11-11T09:38:47Z</time>
      </trkpt>
      <trkpt lat="43.46102" lon="1.57333">
        <ele>165</ele>
        <time>2017-11-11T09:38:47Z</time>
      </trkpt>
      <trkpt lat="43.46101" lon="1.57336">
        <ele>165</ele>
        <time>2017-11-11T09:38:47Z</time>
      </trkpt>
      <trkpt lat="43.46099" lon="1.57339">
        <ele>165</ele>
        <time>2017-11-11T09:38:47Z</time>
      </trkpt>
      <trkpt lat="43.46096" lon="1.57346">
        <ele>165</ele>
        <time>2017-11-11T09:39:03Z</time>
      </trkpt>
      <trkpt lat="43.46093" lon="1.57351">
        <ele>165</ele>
        <time>2017-11-11T09:39:03Z</time>
      </trkpt>
      <trkpt lat="43.46088" lon="1.57358">
        <ele>165</ele>
        <time>2017-11-11T09:39:03Z</time>
      </trkpt>
      <trkpt lat="43.46082" lon="1.57366">
        <ele>165</ele>
        <time>2017-11-11T09:39:03Z</time>
      </trkpt>
      <trkpt lat="43.4608" lon="1.57371">
        <ele>165</ele>
        <time>2017-11-11T09:39:19Z</time>
      </trkpt>
      <trkpt lat="43.46077" lon="1.57377">
        <ele>157</ele>
        <time>2017-11-11T09:39:19Z</time>
      </trkpt>
      <trkpt lat="43.46072" lon="1.57385">
        <ele>157</ele>
        <time>2017-11-11T09:39:19Z</time>
      </trkpt>
      <trkpt lat="43.4607" lon="1.5739">
        <ele>157</ele>
        <time>2017-11-11T09:39:19Z</time>
      </trkpt>
      <trkpt lat="43.46068" lon="1.57395">
        <ele>157</ele>
        <time>2017-11-11T09:39:35Z</time>
      </trkpt>
      <trkpt lat="43.46064" lon="1.57401">
        <ele>157</ele>
        <time>2017-11-11T09:39:35Z</time>
      </trkpt>
      <trkpt lat="43.46061" lon="1.57405">
        <ele>157</ele>
        <time>2017-11-11T09:39:35Z</time>
      </trkpt>
      <trkpt lat="43.46056" lon="1.57412">
        <ele>157</ele>
        <time>2017-11-11T09:39:36Z</time>
      </trkpt>
      <trkpt lat="43.46053" lon="1.57417">
        <ele>157</ele>
        <time>2017-11-11T09:39:51Z</time>
      </trkpt>
      <trkpt lat="43.46051" lon="1.57421">
        <ele>157</ele>
        <time>2017-11-11T09:39:51Z</time>
      </trkpt>
      <trkpt lat="43.46046" lon="1.5743">
        <ele>157</ele>
        <time>2017-11-11T09:39:51Z</time>
      </trkpt>
      <trkpt lat="43.46044" lon="1.57435">
        <ele>157</ele>
        <time>2017-11-11T09:39:51Z</time>
      </trkpt>
      <trkpt lat="43.46041" lon="1.5744">
        <ele>175</ele>
        <time>2017-11-11T09:40:08Z</time>
      </trkpt>
      <trkpt lat="43.46037" lon="1.57448">
        <ele>175</ele>
        <time>2017-11-11T09:40:08Z</time>
      </trkpt>
      <trkpt lat="43.46035" lon="1.57451">
        <ele>175</ele>
        <time>2017-11-11T09:40:08Z</time>
      </trkpt>
      <trkpt lat="43.46033" lon="1.57456">
        <ele>175</ele>
        <time>2017-11-11T09:40:08Z</time>
      </trkpt>
      <trkpt lat="43.46031" lon="1.57458">
        <ele>175</ele>
        <time>2017-11-11T09:40:23Z</time>
      </trkpt>
      <trkpt lat="43.46029" lon="1.57463">
        <ele>167</ele>
        <time>2017-11-11T09:40:23Z</time>
      </trkpt>
      <trkpt lat="43.46026" lon="1.5747">
        <ele>167</ele>
        <time>2017-11-11T09:40:23Z</time>
      </trkpt>
      <trkpt lat="43.46023" lon="1.57475">
        <ele>167</ele>
        <time>2017-11-11T09:40:23Z</time>
      </trkpt>
      <trkpt lat="43.46019" lon="1.5748">
        <ele>167</ele>
        <time>2017-11-11T09:40:39Z</time>
      </trkpt>
      <trkpt lat="43.46015" lon="1.57488">
        <ele>167</ele>
        <time>2017-11-11T09:40:39Z</time>
      </trkpt>
      <trkpt lat="43.46012" lon="1.57494">
        <ele>167</ele>
        <time>2017-11-11T09:40:39Z</time>
      </trkpt>
      <trkpt lat="43.4601" lon="1.575">
        <ele>167</ele>
        <time>2017-11-11T09:40:39Z</time>
      </trkpt>
      <trkpt lat="43.46007" lon="1.57508">
        <ele>167</ele>
        <time>2017-11-11T09:40:55Z</time>
      </trkpt>
      <trkpt lat="43.46004" lon="1.57513">
        <ele>167</ele>
        <time>2017-11-11T09:40:55Z</time>
      </trkpt>
      <trkpt lat="43.45999" lon="1.57521">
        <ele>167</ele>
        <time>2017-11-11T09:40:55Z</time>
      </trkpt>
      <trkpt lat="43.45994" lon="1.57526">
        <ele>167</ele>
        <time>2017-11-11T09:40:55Z</time>
      </trkpt>
      <trkpt lat="43.45991" lon="1.57529">
        <ele>167</ele>
        <time>2017-11-11T09:41:11Z</time>
      </trkpt>
      <trkpt lat="43.45989" lon="1.57534">
        <ele>167</ele>
        <time>2017-11-11T09:41:11Z</time>
      </trkpt>
      <trkpt lat="43.45987" lon="1.57538">
        <ele>167</ele>
        <time>2017-11-11T09:41:11Z</time>
      </trkpt>
      <trkpt lat="43.45985" lon="1.57545">
        <ele>159</ele>
        <time>2017-11-11T09:41:11Z</time>
      </trkpt>
      <trkpt lat="43.4598" lon="1.57552">
        <ele>159</ele>
        <time>2017-11-11T09:41:28Z</time>
      </trkpt>
      <trkpt lat="43.45979" lon="1.57555">
        <ele>159</ele>
        <time>2017-11-11T09:41:28Z</time>
      </trkpt>
      <trkpt lat="43.45978" lon="1.57561">
        <ele>159</ele>
        <time>2017-11-11T09:41:28Z</time>
      </trkpt>
      <trkpt lat="43.45975" lon="1.57568">
        <ele>159</ele>
        <time>2017-11-11T09:41:28Z</time>
      </trkpt>
      <trkpt lat="43.45974" lon="1.57572">
        <ele>159</ele>
        <time>2017-11-11T09:41:43Z</time>
      </trkpt>
      <trkpt lat="43.45972" lon="1.57576">
        <ele>159</ele>
        <time>2017-11-11T09:41:43Z</time>
      </trkpt>
      <trkpt lat="43.45968" lon="1.57581">
        <ele>159</ele>
        <time>2017-11-11T09:41:43Z</time>
      </trkpt>
      <trkpt lat="43.45965" lon="1.57586">
        <ele>159</ele>
        <time>2017-11-11T09:41:43Z</time>
      </trkpt>
      <trkpt lat="43.4596" lon="1.57594">
        <ele>159</ele>
        <time>2017-11-11T09:42:00Z</time>
      </trkpt>
      <trkpt lat="43.45958" lon="1.57599">
        <ele>174</ele>
        <time>2017-11-11T09:42:00Z</time>
      </trkpt>
      <trkpt lat="43.45955" lon="1.57605">
        <ele>174</ele>
        <time>2017-11-11T09:42:00Z</time>
      </trkpt>
      <trkpt lat="43.45952" lon="1.57613">
        <ele>174</ele>
        <time>2017-11-11T09:42:00Z</time>
      </trkpt>
      <trkpt lat="43.4595" lon="1.57618">
        <ele>174</ele>
        <time>2017-11-11T09:42:15Z</time>
      </trkpt>
      <trkpt lat="43.45947" lon="1.57623">
        <ele>174</ele>
        <time>2017-11-11T09:42:15Z</time>
      </trkpt>
      <trkpt lat="43.45944" lon="1.57629">
        <ele>166</ele>
        <time>2017-11-11T09:42:15Z</time>
      </trkpt>
      <trkpt lat="43.45941" lon="1.57633">
        <ele>166</ele>
        <time>2017-11-11T09:42:15Z</time>
      </trkpt>
      <trkpt lat="43.45937" lon="1.57639">
        <ele>166</ele>
        <time>2017-11-11T09:42:31Z</time>
      </trkpt>
      <trkpt lat="43.45935" lon="1.57642">
        <ele>166</ele>
        <time>2017-11-11T09:42:31Z</time>
      </trkpt>
      <trkpt lat="43.45933" lon="1.57647">
        <ele>166</ele>
        <time>2017-11-11T09:42:31Z</time>
      </trkpt>
      <trkpt lat="43.45928" lon="1.57656">
        <ele>166</ele>
        <time>2017-11-11T09:42:31Z</time>
      </trkpt>
      <trkpt lat="43.45925" lon="1.57661">
        <ele>166</ele>
        <time>2017-11-11T09:42:47Z</time>
      </trkpt>
      <trkpt lat="43.45921" lon="1.57668">
        <ele>166</ele>
        <time>2017-11-11T09:42:47Z</time>
      </trkpt>
      <trkpt lat="43.45917" lon="1.57676">
        <ele>166</ele>
        <time>2017-11-11T09:42:47Z</time>
      </trkpt>
      <trkpt lat="43.45915" lon="1.5768">
        <ele>166</ele>
        <time>2017-11-11T09:42:47Z</time>
      </trkpt>
      <trkpt lat="43.45912" lon="1.57686">
        <ele>166</ele>
        <time>2017-11-11T09:43:03Z</time>
      </trkpt>
      <trkpt lat="43.45908" lon="1.57695">
        <ele>166</ele>
        <time>2017-11-11T09:43:04Z</time>
      </trkpt>
      <trkpt lat="43.45907" lon="1.577">
        <ele>166</ele>
        <time>2017-11-11T09:43:04Z</time>
      </trkpt>
      <trkpt lat="43.45903" lon="1.57708">
        <ele>166</ele>
        <time>2017-11-11T09:43:04Z</time>
      </trkpt>
      <trkpt lat="43.45901" lon="1.57712">
        <ele>158</ele>
        <time>2017-11-11T09:43:19Z</time>
      </trkpt>
      <trkpt lat="43.45897" lon="1.57719">
        <ele>158</ele>
        <time>2017-11-11T09:43:19Z</time>
      </trkpt>
      <trkpt lat="43.45894" lon="1.57725">
        <ele>158</ele>
        <time>2017-11-11T09:43:19Z</time>
      </trkpt>
      <trkpt lat="43.45893" lon="1.57729">
        <ele>158</ele>
        <time>2017-11-11T09:43:19Z</time>
      </trkpt>
      <trkpt lat="43.45891" lon="1.57733">
        <ele>158</ele>
        <time>2017-11-11T09:43:35Z</time>
      </trkpt>
      <trkpt lat="43.45889" lon="1.5774">
        <ele>158</ele>
        <time>2017-11-11T09:43:35Z</time>
      </trkpt>
      <trkpt lat="43.45888" lon="1.57745">
        <ele>158</ele>
        <time>2017-11-11T09:43:35Z</time>
      </trkpt>
      <trkpt lat="43.45885" lon="1.57752">
        <ele>158</ele>
        <time>2017-11-11T09:43:35Z</time>
      </trkpt>
      <trkpt lat="43.45883" lon="1.57759">
        <ele>158</ele>
        <time>2017-11-11T09:43:51Z</time>
      </trkpt>
      <trkpt lat="43.45882" lon="1.57766">
        <ele>158</ele>
        <time>2017-11-11T09:43:51Z</time>
      </trkpt>
      <trkpt lat="43.45879" lon="1.57772">
        <ele>158</ele>
        <time>2017-11-11T09:43:51Z</time>
      </trkpt>
      <trkpt lat="43.45877" lon="1.57775">
        <ele>158</ele>
        <time>2017-11-11T09:43:51Z</time>
      </trkpt>
      <trkpt lat="43.45876" lon="1.5778">
        <ele>158</ele>
        <time>2017-11-11T09:44:07Z</time>
      </trkpt>
      <trkpt lat="43.45873" lon="1.57787">
        <ele>168</ele>
        <time>2017-11-11T09:44:07Z</time>
      </trkpt>
      <trkpt lat="43.45872" lon="1.5779">
        <ele>168</ele>
        <time>2017-11-11T09:44:07Z</time>
      </trkpt>
      <trkpt lat="43.4587" lon="1.57793">
        <ele>162</ele>
        <time>2017-11-11T09:44:07Z</time>
      </trkpt>
      <trkpt lat="43.45869" lon="1.57799">
        <ele>162</ele>
        <time>2017-11-11T09:44:23Z</time>
      </trkpt>
      <trkpt lat="43.45867" lon="1.57805">
        <ele>162</ele>
        <time>2017-11-11T09:44:23Z</time>
      </trkpt>
      <trkpt lat="43.45866" lon="1.57812">
        <ele>162</ele>
        <time>2017-11-11T09:44:23Z</time>
      </trkpt>
      <trkpt lat="43.45863" lon="1.57816">
        <ele>162</ele>
        <time>2017-11-11T09:44:23Z</time>
      </trkpt>
      <trkpt lat="43.4586" lon="1.57823">
        <ele>162</ele>
        <time>2017-11-11T09:44:39Z</time>
      </trkpt>
      <trkpt lat="43.45859" lon="1.5783">
        <ele>162</ele>
        <time>2017-11-11T09:44:39Z</time>
      </trkpt>
      <trkpt lat="43.45858" lon="1.57834">
        <ele>162</ele>
        <time>2017-11-11T09:44:39Z</time>
      </trkpt>
      <trkpt lat="43.45855" lon="1.57841">
        <ele>162</ele>
        <time>2017-11-11T09:44:39Z</time>
      </trkpt>
      <trkpt lat="43.45853" lon="1.5785">
        <ele>162</ele>
        <time>2017-11-11T09:44:56Z</time>
      </trkpt>
      <trkpt lat="43.4585" lon="1.57854">
        <ele>162</ele>
        <time>2017-11-11T09:44:56Z</time>
      </trkpt>
      <trkpt lat="43.45847" lon="1.57861">
        <ele>162</ele>
        <time>2017-11-11T09:44:56Z</time>
      </trkpt>
      <trkpt lat="43.45843" lon="1.57871">
        <ele>162</ele>
        <time>2017-11-11T09:44:56Z</time>
      </trkpt>
      <trkpt lat="43.45842" lon="1.57878">
        <ele>160</ele>
        <time>2017-11-11T09:45:11Z</time>
      </trkpt>
      <trkpt lat="43.4584" lon="1.57883">
        <ele>160</ele>
        <time>2017-11-11T09:45:11Z</time>
      </trkpt>
      <trkpt lat="43.45838" lon="1.5789">
        <ele>160</ele>
        <time>2017-11-11T09:45:11Z</time>
      </trkpt>
      <trkpt lat="43.45837" lon="1.57895">
        <ele>160</ele>
        <time>2017-11-11T09:45:11Z</time>
      </trkpt>
      <trkpt lat="43.45834" lon="1.57903">
        <ele>160</ele>
        <time>2017-11-11T09:45:28Z</time>
      </trkpt>
      <trkpt lat="43.45831" lon="1.57911">
        <ele>160</ele>
        <time>2017-11-11T09:45:28Z</time>
      </trkpt>
      <trkpt lat="43.45829" lon="1.57915">
        <ele>160</ele>
        <time>2017-11-11T09:45:28Z</time>
      </trkpt>
      <trkpt lat="43.45826" lon="1.57922">
        <ele>160</ele>
        <time>2017-11-11T09:45:28Z</time>
      </trkpt>
      <trkpt lat="43.45825" lon="1.57926">
        <ele>160</ele>
        <time>2017-11-11T09:45:43Z</time>
      </trkpt>
      <trkpt lat="43.45823" lon="1.57932">
        <ele>160</ele>
        <time>2017-11-11T09:45:43Z</time>
      </trkpt>
      <trkpt lat="43.4582" lon="1.5794">
        <ele>160</ele>
        <time>2017-11-11T09:45:43Z</time>
      </trkpt>
      <trkpt lat="43.45819" lon="1.57944">
        <ele>160</ele>
        <time>2017-11-11T09:45:43Z</time>
      </trkpt>
      <trkpt lat="43.45817" lon="1.57949">
        <ele>160</ele>
        <time>2017-11-11T09:45:59Z</time>
      </trkpt>
      <trkpt lat="43.45816" lon="1.57957">
        <ele>160</ele>
        <time>2017-11-11T09:45:59Z</time>
      </trkpt>
      <trkpt lat="43.45814" lon="1.57963">
        <ele>157</ele>
        <time>2017-11-11T09:45:59Z</time>
      </trkpt>
      <trkpt lat="43.45812" lon="1.57969">
        <ele>157</ele>
        <time>2017-11-11T09:45:59Z</time>
      </trkpt>
      <trkpt lat="43.45808" lon="1.57977">
        <ele>157</ele>
        <time>2017-11-11T09:46:15Z</time>
      </trkpt>
      <trkpt lat="43.45807" lon="1.57982">
        <ele>157</ele>
        <time>2017-11-11T09:46:15Z</time>
      </trkpt>
      <trkpt lat="43.45803" lon="1.57989">
        <ele>157</ele>
        <time>2017-11-11T09:46:15Z</time>
      </trkpt>
      <trkpt lat="43.458" lon="1.57994">
        <ele>157</ele>
        <time>2017-11-11T09:46:15Z</time>
      </trkpt>
      <trkpt lat="43.45796" lon="1.58">
        <ele>157</ele>
        <time>2017-11-11T09:46:31Z</time>
      </trkpt>
      <trkpt lat="43.45791" lon="1.58006">
        <ele>163</ele>
        <time>2017-11-11T09:46:31Z</time>
      </trkpt>
      <trkpt lat="43.45788" lon="1.58009">
        <ele>163</ele>
        <time>2017-11-11T09:46:31Z</time>
      </trkpt>
      <trkpt lat="43.45787" lon="1.58013">
        <ele>163</ele>
        <time>2017-11-11T09:46:31Z</time>
      </trkpt>
      <trkpt lat="43.45783" lon="1.58019">
        <ele>163</ele>
        <time>2017-11-11T09:46:47Z</time>
      </trkpt>
      <trkpt lat="43.45781" lon="1.58023">
        <ele>163</ele>
        <time>2017-11-11T09:46:47Z</time>
      </trkpt>
      <trkpt lat="43.45779" lon="1.58028">
        <ele>163</ele>
        <time>2017-11-11T09:46:48Z</time>
      </trkpt>
      <trkpt lat="43.45775" lon="1.58035">
        <ele>163</ele>
        <time>2017-11-11T09:46:48Z</time>
      </trkpt>
      <trkpt lat="43.45772" lon="1.58038">
        <ele>163</ele>
        <time>2017-11-11T09:47:03Z</time>
      </trkpt>
      <trkpt lat="43.45768" lon="1.58043">
        <ele>164</ele>
        <time>2017-11-11T09:47:03Z</time>
      </trkpt>
      <trkpt lat="43.45765" lon="1.58047">
        <ele>164</ele>
        <time>2017-11-11T09:47:03Z</time>
      </trkpt>
      <trkpt lat="43.45762" lon="1.58052">
        <ele>164</ele>
        <time>2017-11-11T09:47:03Z</time>
      </trkpt>
      <trkpt lat="43.45758" lon="1.58058">
        <ele>164</ele>
        <time>2017-11-11T09:47:19Z</time>
      </trkpt>
      <trkpt lat="43.45756" lon="1.58061">
        <ele>164</ele>
        <time>2017-11-11T09:47:20Z</time>
      </trkpt>
      <trkpt lat="43.45755" lon="1.58065">
        <ele>164</ele>
        <time>2017-11-11T09:47:20Z</time>
      </trkpt>
      <trkpt lat="43.45752" lon="1.5807">
        <ele>164</ele>
        <time>2017-11-11T09:47:20Z</time>
      </trkpt>
      <trkpt lat="43.4575" lon="1.58074">
        <ele>164</ele>
        <time>2017-11-11T09:47:35Z</time>
      </trkpt>
      <trkpt lat="43.45745" lon="1.5808">
        <ele>164</ele>
        <time>2017-11-11T09:47:35Z</time>
      </trkpt>
      <trkpt lat="43.45742" lon="1.58084">
        <ele>164</ele>
        <time>2017-11-11T09:47:35Z</time>
      </trkpt>
      <trkpt lat="43.45739" lon="1.5809">
        <ele>164</ele>
        <time>2017-11-11T09:47:35Z</time>
      </trkpt>
      <trkpt lat="43.45733" lon="1.58096">
        <ele>164</ele>
        <time>2017-11-11T09:47:52Z</time>
      </trkpt>
      <trkpt lat="43.45731" lon="1.58099">
        <ele>164</ele>
        <time>2017-11-11T09:47:52Z</time>
      </trkpt>
      <trkpt lat="43.45727" lon="1.58104">
        <ele>164</ele>
        <time>2017-11-11T09:47:52Z</time>
      </trkpt>
      <trkpt lat="43.45726" lon="1.58108">
        <ele>164</ele>
        <time>2017-11-11T09:47:52Z</time>
      </trkpt>
      <trkpt lat="43.45723" lon="1.58112">
        <ele>164</ele>
        <time>2017-11-11T09:48:07Z</time>
      </trkpt>
      <trkpt lat="43.45719" lon="1.58118">
        <ele>164</ele>
        <time>2017-11-11T09:48:07Z</time>
      </trkpt>
      <trkpt lat="43.45714" lon="1.58124">
        <ele>164</ele>
        <time>2017-11-11T09:48:07Z</time>
      </trkpt>
      <trkpt lat="43.45712" lon="1.58128">
        <ele>158</ele>
        <time>2017-11-11T09:48:07Z</time>
      </trkpt>
      <trkpt lat="43.45707" lon="1.58134">
        <ele>166</ele>
        <time>2017-11-11T09:48:24Z</time>
      </trkpt>
      <trkpt lat="43.45704" lon="1.58138">
        <ele>166</ele>
        <time>2017-11-11T09:48:24Z</time>
      </trkpt>
      <trkpt lat="43.45701" lon="1.58144">
        <ele>166</ele>
        <time>2017-11-11T09:48:24Z</time>
      </trkpt>
      <trkpt lat="43.45697" lon="1.5815">
        <ele>166</ele>
        <time>2017-11-11T09:48:24Z</time>
      </trkpt>
      <trkpt lat="43.45695" lon="1.58154">
        <ele>166</ele>
        <time>2017-11-11T09:48:39Z</time>
      </trkpt>
      <trkpt lat="43.45691" lon="1.58158">
        <ele>166</ele>
        <time>2017-11-11T09:48:39Z</time>
      </trkpt>
      <trkpt lat="43.45687" lon="1.58164">
        <ele>166</ele>
        <time>2017-11-11T09:48:39Z</time>
      </trkpt>
      <trkpt lat="43.45685" lon="1.58167">
        <ele>166</ele>
        <time>2017-11-11T09:48:39Z</time>
      </trkpt>
      <trkpt lat="43.45682" lon="1.58173">
        <ele>166</ele>
        <time>2017-11-11T09:48:55Z</time>
      </trkpt>
      <trkpt lat="43.45677" lon="1.58179">
        <ele>166</ele>
        <time>2017-11-11T09:48:55Z</time>
      </trkpt>
      <trkpt lat="43.45674" lon="1.58184">
        <ele>166</ele>
        <time>2017-11-11T09:48:55Z</time>
      </trkpt>
      <trkpt lat="43.45671" lon="1.58185">
        <ele>166</ele>
        <time>2017-11-11T09:48:55Z</time>
      </trkpt>
      <trkpt lat="43.45669" lon="1.58188">
        <ele>166</ele>
        <time>2017-11-11T09:49:11Z</time>
      </trkpt>
      <trkpt lat="43.45665" lon="1.58193">
        <ele>166</ele>
        <time>2017-11-11T09:49:11Z</time>
      </trkpt>
      <trkpt lat="43.4566" lon="1.58201">
        <ele>166</ele>
        <time>2017-11-11T09:49:11Z</time>
      </trkpt>
      <trkpt lat="43.45657" lon="1.58206">
        <ele>166</ele>
        <time>2017-11-11T09:49:11Z</time>
      </trkpt>
      <trkpt lat="43.45652" lon="1.58213">
        <ele>159</ele>
        <time>2017-11-11T09:49:27Z</time>
      </trkpt>
      <trkpt lat="43.45648" lon="1.5822">
        <ele>159</ele>
        <time>2017-11-11T09:49:28Z</time>
      </trkpt>
      <trkpt lat="43.45645" lon="1.58224">
        <ele>159</ele>
        <time>2017-11-11T09:49:28Z</time>
      </trkpt>
      <trkpt lat="43.45639" lon="1.58231">
        <ele>159</ele>
        <time>2017-11-11T09:49:28Z</time>
      </trkpt>
      <trkpt lat="43.45636" lon="1.58236">
        <ele>159</ele>
        <time>2017-11-11T09:49:43Z</time>
      </trkpt>
      <trkpt lat="43.45631" lon="1.58242">
        <ele>159</ele>
        <time>2017-11-11T09:49:43Z</time>
      </trkpt>
      <trkpt lat="43.45628" lon="1.58247">
        <ele>159</ele>
        <time>2017-11-11T09:49:43Z</time>
      </trkpt>
      <trkpt lat="43.45627" lon="1.5825">
        <ele>159</ele>
        <time>2017-11-11T09:49:43Z</time>
      </trkpt>
      <trkpt lat="43.45624" lon="1.58255">
        <ele>165</ele>
        <time>2017-11-11T09:49:59Z</time>
      </trkpt>
      <trkpt lat="43.45622" lon="1.58259">
        <ele>165</ele>
        <time>2017-11-11T09:49:59Z</time>
      </trkpt>
      <trkpt lat="43.45621" lon="1.58262">
        <ele>165</ele>
        <time>2017-11-11T09:49:59Z</time>
      </trkpt>
      <trkpt lat="43.45617" lon="1.58267">
        <ele>165</ele>
        <time>2017-11-11T09:49:59Z</time>
      </trkpt>
      <trkpt lat="43.45614" lon="1.58273">
        <ele>165</ele>
        <time>2017-11-11T09:50:15Z</time>
      </trkpt>
      <trkpt lat="43.45611" lon="1.58279">
        <ele>165</ele>
        <time>2017-11-11T09:50:15Z</time>
      </trkpt>
      <trkpt lat="43.45605" lon="1.58286">
        <ele>165</ele>
        <time>2017-11-11T09:50:15Z</time>
      </trkpt>
      <trkpt lat="43.45603" lon="1.58289">
        <ele>165</ele>
        <time>2017-11-11T09:50:15Z</time>
      </trkpt>
      <trkpt lat="43.45601" lon="1.58294">
        <ele>163</ele>
        <time>2017-11-11T09:50:31Z</time>
      </trkpt>
      <trkpt lat="43.45597" lon="1.58302">
        <ele>163</ele>
        <time>2017-11-11T09:50:31Z</time>
      </trkpt>
      <trkpt lat="43.45595" lon="1.58307">
        <ele>163</ele>
        <time>2017-11-11T09:50:31Z</time>
      </trkpt>
      <trkpt lat="43.45591" lon="1.58313">
        <ele>163</ele>
        <time>2017-11-11T09:50:31Z</time>
      </trkpt>
      <trkpt lat="43.45588" lon="1.58321">
        <ele>163</ele>
        <time>2017-11-11T09:50:47Z</time>
      </trkpt>
      <trkpt lat="43.45586" lon="1.58326">
        <ele>163</ele>
        <time>2017-11-11T09:50:47Z</time>
      </trkpt>
      <trkpt lat="43.45584" lon="1.58334">
        <ele>163</ele>
        <time>2017-11-11T09:50:47Z</time>
      </trkpt>
      <trkpt lat="43.45582" lon="1.58344">
        <ele>163</ele>
        <time>2017-11-11T09:50:48Z</time>
      </trkpt>
      <trkpt lat="43.4558" lon="1.58349">
        <ele>163</ele>
        <time>2017-11-11T09:51:03Z</time>
      </trkpt>
      <trkpt lat="43.45578" lon="1.58357">
        <ele>163</ele>
        <time>2017-11-11T09:51:03Z</time>
      </trkpt>
      <trkpt lat="43.45576" lon="1.58366">
        <ele>163</ele>
        <time>2017-11-11T09:51:03Z</time>
      </trkpt>
      <trkpt lat="43.45574" lon="1.58373">
        <ele>163</ele>
        <time>2017-11-11T09:51:03Z</time>
      </trkpt>
      <trkpt lat="43.45572" lon="1.58383">
        <ele>163</ele>
        <time>2017-11-11T09:51:20Z</time>
      </trkpt>
      <trkpt lat="43.45571" lon="1.58391">
        <ele>163</ele>
        <time>2017-11-11T09:51:20Z</time>
      </trkpt>
      <trkpt lat="43.4557" lon="1.58399">
        <ele>163</ele>
        <time>2017-11-11T09:51:20Z</time>
      </trkpt>
      <trkpt lat="43.45569" lon="1.58409">
        <ele>163</ele>
        <time>2017-11-11T09:51:20Z</time>
      </trkpt>
      <trkpt lat="43.45569" lon="1.58413">
        <ele>163</ele>
        <time>2017-11-11T09:51:35Z</time>
      </trkpt>
      <trkpt lat="43.45568" lon="1.58421">
        <ele>163</ele>
        <time>2017-11-11T09:51:35Z</time>
      </trkpt>
      <trkpt lat="43.45568" lon="1.58422">
        <ele>163</ele>
        <time>2017-11-11T09:51:35Z</time>
      </trkpt>
      <trkpt lat="43.45567" lon="1.58426">
        <ele>163</ele>
        <time>2017-11-11T09:51:35Z</time>
      </trkpt>
      <trkpt lat="43.45567" lon="1.58433">
        <ele>163</ele>
        <time>2017-11-11T09:51:51Z</time>
      </trkpt>
      <trkpt lat="43.45567" lon="1.5844">
        <ele>163</ele>
        <time>2017-11-11T09:51:52Z</time>
      </trkpt>
      <trkpt lat="43.45567" lon="1.58448">
        <ele>163</ele>
        <time>2017-11-11T09:51:52Z</time>
      </trkpt>
      <trkpt lat="43.45567" lon="1.58455">
        <ele>163</ele>
        <time>2017-11-11T09:51:52Z</time>
      </trkpt>
      <trkpt lat="43.45567" lon="1.58462">
        <ele>161</ele>
        <time>2017-11-11T09:52:07Z</time>
      </trkpt>
      <trkpt lat="43.45567" lon="1.5847">
        <ele>161</ele>
        <time>2017-11-11T09:52:07Z</time>
      </trkpt>
      <trkpt lat="43.45567" lon="1.58481">
        <ele>161</ele>
        <time>2017-11-11T09:52:07Z</time>
      </trkpt>
      <trkpt lat="43.45567" lon="1.58487">
        <ele>161</ele>
        <time>2017-11-11T09:52:07Z</time>
      </trkpt>
      <trkpt lat="43.45567" lon="1.58496">
        <ele>161</ele>
        <time>2017-11-11T09:52:24Z</time>
      </trkpt>
      <trkpt lat="43.45567" lon="1.58501">
        <ele>161</ele>
        <time>2017-11-11T09:52:24Z</time>
      </trkpt>
      <trkpt lat="43.45566" lon="1.58508">
        <ele>161</ele>
        <time>2017-11-11T09:52:24Z</time>
      </trkpt>
      <trkpt lat="43.45566" lon="1.58516">
        <ele>161</ele>
        <time>2017-11-11T09:52:24Z</time>
      </trkpt>
      <trkpt lat="43.45567" lon="1.58521">
        <ele>161</ele>
        <time>2017-11-11T09:52:39Z</time>
      </trkpt>
      <trkpt lat="43.45567" lon="1.58528">
        <ele>161</ele>
        <time>2017-11-11T09:52:39Z</time>
      </trkpt>
      <trkpt lat="43.45566" lon="1.58536">
        <ele>161</ele>
        <time>2017-11-11T09:52:39Z</time>
      </trkpt>
      <trkpt lat="43.45566" lon="1.58542">
        <ele>161</ele>
        <time>2017-11-11T09:52:39Z</time>
      </trkpt>
      <trkpt lat="43.45567" lon="1.58549">
        <ele>161</ele>
        <time>2017-11-11T09:52:56Z</time>
      </trkpt>
      <trkpt lat="43.45569" lon="1.58556">
        <ele>161</ele>
        <time>2017-11-11T09:52:56Z</time>
      </trkpt>
      <trkpt lat="43.45569" lon="1.5856">
        <ele>161</ele>
        <time>2017-11-11T09:52:56Z</time>
      </trkpt>
      <trkpt lat="43.4557" lon="1.58566">
        <ele>161</ele>
        <time>2017-11-11T09:52:56Z</time>
      </trkpt>
      <trkpt lat="43.45571" lon="1.58571">
        <ele>161</ele>
        <time>2017-11-11T09:53:11Z</time>
      </trkpt>
      <trkpt lat="43.45571" lon="1.58578">
        <ele>161</ele>
        <time>2017-11-11T09:53:11Z</time>
      </trkpt>
      <trkpt lat="43.4557" lon="1.58587">
        <ele>161</ele>
        <time>2017-11-11T09:53:11Z</time>
      </trkpt>
      <trkpt lat="43.45571" lon="1.5859">
        <ele>161</ele>
        <time>2017-11-11T09:53:11Z</time>
      </trkpt>
      <trkpt lat="43.45571" lon="1.58596">
        <ele>161</ele>
        <time>2017-11-11T09:53:27Z</time>
      </trkpt>
      <trkpt lat="43.4557" lon="1.58599">
        <ele>161</ele>
        <time>2017-11-11T09:53:27Z</time>
      </trkpt>
      <trkpt lat="43.45571" lon="1.58603">
        <ele>161</ele>
        <time>2017-11-11T09:53:27Z</time>
      </trkpt>
      <trkpt lat="43.45572" lon="1.5861">
        <ele>161</ele>
        <time>2017-11-11T09:53:27Z</time>
      </trkpt>
      <trkpt lat="43.45573" lon="1.58622">
        <ele>161</ele>
        <time>2017-11-11T09:53:43Z</time>
      </trkpt>
      <trkpt lat="43.45574" lon="1.58627">
        <ele>162</ele>
        <time>2017-11-11T09:53:43Z</time>
      </trkpt>
      <trkpt lat="43.45575" lon="1.58634">
        <ele>162</ele>
        <time>2017-11-11T09:53:43Z</time>
      </trkpt>
      <trkpt lat="43.45576" lon="1.5864">
        <ele>162</ele>
        <time>2017-11-11T09:53:43Z</time>
      </trkpt>
      <trkpt lat="43.45577" lon="1.58646">
        <ele>162</ele>
        <time>2017-11-11T09:53:59Z</time>
      </trkpt>
      <trkpt lat="43.45578" lon="1.58652">
        <ele>162</ele>
        <time>2017-11-11T09:53:59Z</time>
      </trkpt>
      <trkpt lat="43.45579" lon="1.58657">
        <ele>162</ele>
        <time>2017-11-11T09:53:59Z</time>
      </trkpt>
      <trkpt lat="43.4558" lon="1.58664">
        <ele>162</ele>
        <time>2017-11-11T09:53:59Z</time>
      </trkpt>
      <trkpt lat="43.45581" lon="1.58675">
        <ele>162</ele>
        <time>2017-11-11T09:54:15Z</time>
      </trkpt>
      <trkpt lat="43.45582" lon="1.58681">
        <ele>162</ele>
        <time>2017-11-11T09:54:16Z</time>
      </trkpt>
      <trkpt lat="43.45582" lon="1.58688">
        <ele>162</ele>
        <time>2017-11-11T09:54:16Z</time>
      </trkpt>
      <trkpt lat="43.45583" lon="1.58698">
        <ele>162</ele>
        <time>2017-11-11T09:54:16Z</time>
      </trkpt>
      <trkpt lat="43.45583" lon="1.58703">
        <ele>162</ele>
        <time>2017-11-11T09:54:31Z</time>
      </trkpt>
      <trkpt lat="43.45583" lon="1.58713">
        <ele>163</ele>
        <time>2017-11-11T09:54:31Z</time>
      </trkpt>
      <trkpt lat="43.45584" lon="1.58719">
        <ele>163</ele>
        <time>2017-11-11T09:54:31Z</time>
      </trkpt>
      <trkpt lat="43.45584" lon="1.58728">
        <ele>163</ele>
        <time>2017-11-11T09:54:31Z</time>
      </trkpt>
      <trkpt lat="43.45584" lon="1.58739">
        <ele>163</ele>
        <time>2017-11-11T09:54:48Z</time>
      </trkpt>
      <trkpt lat="43.45584" lon="1.58746">
        <ele>163</ele>
        <time>2017-11-11T09:54:48Z</time>
      </trkpt>
      <trkpt lat="43.45585" lon="1.58756">
        <ele>163</ele>
        <time>2017-11-11T09:54:48Z</time>
      </trkpt>
      <trkpt lat="43.45585" lon="1.58764">
        <ele>163</ele>
        <time>2017-11-11T09:54:48Z</time>
      </trkpt>
      <trkpt lat="43.45585" lon="1.58771">
        <ele>163</ele>
        <time>2017-11-11T09:55:03Z</time>
      </trkpt>
      <trkpt lat="43.45585" lon="1.58778">
        <ele>163</ele>
        <time>2017-11-11T09:55:03Z</time>
      </trkpt>
      <trkpt lat="43.45585" lon="1.58788">
        <ele>163</ele>
        <time>2017-11-11T09:55:03Z</time>
      </trkpt>
      <trkpt lat="43.45586" lon="1.58793">
        <ele>160</ele>
        <time>2017-11-11T09:55:03Z</time>
      </trkpt>
      <trkpt lat="43.45586" lon="1.58801">
        <ele>160</ele>
        <time>2017-11-11T09:55:20Z</time>
      </trkpt>
      <trkpt lat="43.45587" lon="1.58805">
        <ele>160</ele>
        <time>2017-11-11T09:55:20Z</time>
      </trkpt>
      <trkpt lat="43.45586" lon="1.58811">
        <ele>160</ele>
        <time>2017-11-11T09:55:20Z</time>
      </trkpt>
      <trkpt lat="43.45586" lon="1.58819">
        <ele>160</ele>
        <time>2017-11-11T09:55:20Z</time>
      </trkpt>
      <trkpt lat="43.45586" lon="1.58824">
        <ele>160</ele>
        <time>2017-11-11T09:55:35Z</time>
      </trkpt>
      <trkpt lat="43.45585" lon="1.58833">
        <ele>160</ele>
        <time>2017-11-11T09:55:35Z</time>
      </trkpt>
      <trkpt lat="43.45584" lon="1.58842">
        <ele>160</ele>
        <time>2017-11-11T09:55:35Z</time>
      </trkpt>
      <trkpt lat="43.45584" lon="1.58844">
        <ele>160</ele>
        <time>2017-11-11T09:55:35Z</time>
      </trkpt>
      <trkpt lat="43.45584" lon="1.58848">
        <ele>160</ele>
        <time>2017-11-11T09:55:52Z</time>
      </trkpt>
      <trkpt lat="43.45583" lon="1.58851">
        <ele>160</ele>
        <time>2017-11-11T09:55:52Z</time>
      </trkpt>
      <trkpt lat="43.45583" lon="1.58855">
        <ele>160</ele>
        <time>2017-11-11T09:55:52Z</time>
      </trkpt>
      <trkpt lat="43.45582" lon="1.58863">
        <ele>160</ele>
        <time>2017-11-11T09:55:52Z</time>
      </trkpt>
      <trkpt lat="43.45582" lon="1.58869">
        <ele>160</ele>
        <time>2017-11-11T09:56:08Z</time>
      </trkpt>
      <trkpt lat="43.45581" lon="1.58877">
        <ele>159</ele>
        <time>2017-11-11T09:56:08Z</time>
      </trkpt>
      <trkpt lat="43.45581" lon="1.58886">
        <ele>159</ele>
        <time>2017-11-11T09:56:08Z</time>
      </trkpt>
      <trkpt lat="43.4558" lon="1.58897">
        <ele>159</ele>
        <time>2017-11-11T09:56:08Z</time>
      </trkpt>
      <trkpt lat="43.45579" lon="1.58902">
        <ele>159</ele>
        <time>2017-11-11T09:56:23Z</time>
      </trkpt>
      <trkpt lat="43.45579" lon="1.58912">
        <ele>159</ele>
        <time>2017-11-11T09:56:23Z</time>
      </trkpt>
      <trkpt lat="43.45578" lon="1.58916">
        <ele>159</ele>
        <time>2017-11-11T09:56:23Z</time>
      </trkpt>
      <trkpt lat="43.45577" lon="1.58923">
        <ele>159</ele>
        <time>2017-11-11T09:56:23Z</time>
      </trkpt>
      <trkpt lat="43.45577" lon="1.58934">
        <ele>159</ele>
        <time>2017-11-11T09:56:39Z</time>
      </trkpt>
      <trkpt lat="43.45576" lon="1.58942">
        <ele>159</ele>
        <time>2017-11-11T09:56:40Z</time>
      </trkpt>
      <trkpt lat="43.45575" lon="1.58952">
        <ele>159</ele>
        <time>2017-11-11T09:56:40Z</time>
      </trkpt>
      <trkpt lat="43.45575" lon="1.58962">
        <ele>158</ele>
        <time>2017-11-11T09:56:40Z</time>
      </trkpt>
      <trkpt lat="43.45575" lon="1.58968">
        <ele>158</ele>
        <time>2017-11-11T09:56:55Z</time>
      </trkpt>
      <trkpt lat="43.45575" lon="1.58976">
        <ele>158</ele>
        <time>2017-11-11T09:56:55Z</time>
      </trkpt>
      <trkpt lat="43.45574" lon="1.58986">
        <ele>158</ele>
        <time>2017-11-11T09:56:55Z</time>
      </trkpt>
      <trkpt lat="43.45573" lon="1.58993">
        <ele>158</ele>
        <time>2017-11-11T09:56:55Z</time>
      </trkpt>
      <trkpt lat="43.45572" lon="1.59002">
        <ele>158</ele>
        <time>2017-11-11T09:57:12Z</time>
      </trkpt>
      <trkpt lat="43.45571" lon="1.59008">
        <ele>158</ele>
        <time>2017-11-11T09:57:12Z</time>
      </trkpt>
      <trkpt lat="43.45571" lon="1.59014">
        <ele>158</ele>
        <time>2017-11-11T09:57:12Z</time>
      </trkpt>
      <trkpt lat="43.4557" lon="1.59022">
        <ele>158</ele>
        <time>2017-11-11T09:57:12Z</time>
      </trkpt>
      <trkpt lat="43.4557" lon="1.59026">
        <ele>158</ele>
        <time>2017-11-11T09:57:27Z</time>
      </trkpt>
      <trkpt lat="43.45571" lon="1.59031">
        <ele>158</ele>
        <time>2017-11-11T09:57:27Z</time>
      </trkpt>
      <trkpt lat="43.4557" lon="1.5904">
        <ele>158</ele>
        <time>2017-11-11T09:57:27Z</time>
      </trkpt>
      <trkpt lat="43.4557" lon="1.59046">
        <ele>157</ele>
        <time>2017-11-11T09:57:27Z</time>
      </trkpt>
      <trkpt lat="43.4557" lon="1.59053">
        <ele>157</ele>
        <time>2017-11-11T09:57:43Z</time>
      </trkpt>
      <trkpt lat="43.4557" lon="1.59061">
        <ele>157</ele>
        <time>2017-11-11T09:57:43Z</time>
      </trkpt>
      <trkpt lat="43.4557" lon="1.59066">
        <ele>157</ele>
        <time>2017-11-11T09:57:43Z</time>
      </trkpt>
      <trkpt lat="43.4557" lon="1.59069">
        <ele>157</ele>
        <time>2017-11-11T09:57:43Z</time>
      </trkpt>
      <trkpt lat="43.4557" lon="1.59082">
        <ele>157</ele>
        <time>2017-11-11T09:57:59Z</time>
      </trkpt>
      <trkpt lat="43.4557" lon="1.59091">
        <ele>157</ele>
        <time>2017-11-11T09:57:59Z</time>
      </trkpt>
      <trkpt lat="43.4557" lon="1.59102">
        <ele>157</ele>
        <time>2017-11-11T09:57:59Z</time>
      </trkpt>
      <trkpt lat="43.45569" lon="1.59108">
        <ele>157</ele>
        <time>2017-11-11T09:57:59Z</time>
      </trkpt>
      <trkpt lat="43.45566" lon="1.59115">
        <ele>157</ele>
        <time>2017-11-11T09:58:15Z</time>
      </trkpt>
      <trkpt lat="43.45564" lon="1.59124">
        <ele>157</ele>
        <time>2017-11-11T09:58:15Z</time>
      </trkpt>
      <trkpt lat="43.45563" lon="1.59129">
        <ele>158</ele>
        <time>2017-11-11T09:58:15Z</time>
      </trkpt>
      <trkpt lat="43.45562" lon="1.59136">
        <ele>158</ele>
        <time>2017-11-11T09:58:15Z</time>
      </trkpt>
      <trkpt lat="43.45561" lon="1.59141">
        <ele>158</ele>
        <time>2017-11-11T09:58:31Z</time>
      </trkpt>
      <trkpt lat="43.45559" lon="1.59145">
        <ele>158</ele>
        <time>2017-11-11T09:58:31Z</time>
      </trkpt>
      <trkpt lat="43.45557" lon="1.5915">
        <ele>158</ele>
        <time>2017-11-11T09:58:31Z</time>
      </trkpt>
      <trkpt lat="43.45556" lon="1.59156">
        <ele>158</ele>
        <time>2017-11-11T09:58:31Z</time>
      </trkpt>
      <trkpt lat="43.45554" lon="1.5916">
        <ele>158</ele>
        <time>2017-11-11T09:58:47Z</time>
      </trkpt>
      <trkpt lat="43.45551" lon="1.59163">
        <ele>158</ele>
        <time>2017-11-11T09:58:47Z</time>
      </trkpt>
      <trkpt lat="43.45549" lon="1.5917">
        <ele>158</ele>
        <time>2017-11-11T09:58:47Z</time>
      </trkpt>
      <trkpt lat="43.45547" lon="1.59175">
        <ele>158</ele>
        <time>2017-11-11T09:58:47Z</time>
      </trkpt>
      <trkpt lat="43.45545" lon="1.59182">
        <ele>158</ele>
        <time>2017-11-11T09:59:04Z</time>
      </trkpt>
      <trkpt lat="43.45544" lon="1.59187">
        <ele>158</ele>
        <time>2017-11-11T09:59:04Z</time>
      </trkpt>
      <trkpt lat="43.45542" lon="1.59191">
        <ele>160</ele>
        <time>2017-11-11T09:59:04Z</time>
      </trkpt>
      <trkpt lat="43.45539" lon="1.59198">
        <ele>160</ele>
        <time>2017-11-11T09:59:04Z</time>
      </trkpt>
      <trkpt lat="43.45537" lon="1.59203">
        <ele>160</ele>
        <time>2017-11-11T09:59:19Z</time>
      </trkpt>
      <trkpt lat="43.45533" lon="1.5921">
        <ele>163</ele>
        <time>2017-11-11T09:59:19Z</time>
      </trkpt>
      <trkpt lat="43.45529" lon="1.59219">
        <ele>163</ele>
        <time>2017-11-11T09:59:19Z</time>
      </trkpt>
      <trkpt lat="43.45527" lon="1.59223">
        <ele>163</ele>
        <time>2017-11-11T09:59:19Z</time>
      </trkpt>
      <trkpt lat="43.45524" lon="1.59229">
        <ele>163</ele>
        <time>2017-11-11T09:59:35Z</time>
      </trkpt>
      <trkpt lat="43.45522" lon="1.59235">
        <ele>163</ele>
        <time>2017-11-11T09:59:36Z</time>
      </trkpt>
      <trkpt lat="43.45519" lon="1.59239">
        <ele>163</ele>
        <time>2017-11-11T09:59:36Z</time>
      </trkpt>
      <trkpt lat="43.45516" lon="1.59245">
        <ele>163</ele>
        <time>2017-11-11T09:59:36Z</time>
      </trkpt>
      <trkpt lat="43.45515" lon="1.59248">
        <ele>163</ele>
        <time>2017-11-11T09:59:51Z</time>
      </trkpt>
      <trkpt lat="43.45512" lon="1.59253">
        <ele>163</ele>
        <time>2017-11-11T09:59:51Z</time>
      </trkpt>
      <trkpt lat="43.45506" lon="1.59261">
        <ele>163</ele>
        <time>2017-11-11T09:59:51Z</time>
      </trkpt>
      <trkpt lat="43.45503" lon="1.59264">
        <ele>163</ele>
        <time>2017-11-11T09:59:51Z</time>
      </trkpt>
      <trkpt lat="43.45499" lon="1.59268">
        <ele>163</ele>
        <time>2017-11-11T10:00:07Z</time>
      </trkpt>
      <trkpt lat="43.45493" lon="1.59275">
        <ele>163</ele>
        <time>2017-11-11T10:00:07Z</time>
      </trkpt>
      <trkpt lat="43.4549" lon="1.59278">
        <ele>163</ele>
        <time>2017-11-11T10:00:07Z</time>
      </trkpt>
      <trkpt lat="43.45488" lon="1.59282">
        <ele>163</ele>
        <time>2017-11-11T10:00:07Z</time>
      </trkpt>
      <trkpt lat="43.45483" lon="1.59286">
        <ele>163</ele>
        <time>2017-11-11T10:00:24Z</time>
      </trkpt>
      <trkpt lat="43.4548" lon="1.59288">
        <ele>163</ele>
        <time>2017-11-11T10:00:24Z</time>
      </trkpt>
      <trkpt lat="43.45476" lon="1.59291">
        <ele>163</ele>
        <time>2017-11-11T10:00:24Z</time>
      </trkpt>
      <trkpt lat="43.45468" lon="1.59294">
        <ele>161</ele>
        <time>2017-11-11T10:00:24Z</time>
      </trkpt>
      <trkpt lat="43.45464" lon="1.59296">
        <ele>161</ele>
        <time>2017-11-11T10:00:39Z</time>
      </trkpt>
      <trkpt lat="43.45457" lon="1.59299">
        <ele>162</ele>
        <time>2017-11-11T10:00:39Z</time>
      </trkpt>
      <trkpt lat="43.45453" lon="1.593">
        <ele>162</ele>
        <time>2017-11-11T10:00:39Z</time>
      </trkpt>
      <trkpt lat="43.45449" lon="1.59302">
        <ele>162</ele>
        <time>2017-11-11T10:00:39Z</time>
      </trkpt>
      <trkpt lat="43.45444" lon="1.59303">
        <ele>162</ele>
        <time>2017-11-11T10:00:55Z</time>
      </trkpt>
      <trkpt lat="43.45441" lon="1.59304">
        <ele>162</ele>
        <time>2017-11-11T10:00:56Z</time>
      </trkpt>
      <trkpt lat="43.45436" lon="1.59305">
        <ele>162</ele>
        <time>2017-11-11T10:00:56Z</time>
      </trkpt>
      <trkpt lat="43.45429" lon="1.59307">
        <ele>162</ele>
        <time>2017-11-11T10:00:56Z</time>
      </trkpt>
      <trkpt lat="43.45425" lon="1.59308">
        <ele>162</ele>
        <time>2017-11-11T10:01:11Z</time>
      </trkpt>
      <trkpt lat="43.4542" lon="1.5931">
        <ele>162</ele>
        <time>2017-11-11T10:01:11Z</time>
      </trkpt>
      <trkpt lat="43.45415" lon="1.59313">
        <ele>162</ele>
        <time>2017-11-11T10:01:11Z</time>
      </trkpt>
      <trkpt lat="43.45413" lon="1.59314">
        <ele>162</ele>
        <time>2017-11-11T10:01:11Z</time>
      </trkpt>
      <trkpt lat="43.45408" lon="1.59316">
        <ele>162</ele>
        <time>2017-11-11T10:01:27Z</time>
      </trkpt>
      <trkpt lat="43.45404" lon="1.59317">
        <ele>162</ele>
        <time>2017-11-11T10:01:28Z</time>
      </trkpt>
      <trkpt lat="43.454" lon="1.59318">
        <ele>162</ele>
        <time>2017-11-11T10:01:28Z</time>
      </trkpt>
      <trkpt lat="43.45393" lon="1.59319">
        <ele>162</ele>
        <time>2017-11-11T10:01:28Z</time>
      </trkpt>
      <trkpt lat="43.45389" lon="1.59319">
        <ele>162</ele>
        <time>2017-11-11T10:01:43Z</time>
      </trkpt>
      <trkpt lat="43.45383" lon="1.59321">
        <ele>162</ele>
        <time>2017-11-11T10:01:43Z</time>
      </trkpt>
      <trkpt lat="43.45375" lon="1.59324">
        <ele>162</ele>
        <time>2017-11-11T10:01:43Z</time>
      </trkpt>
      <trkpt lat="43.45371" lon="1.59325">
        <ele>160</ele>
        <time>2017-11-11T10:01:43Z</time>
      </trkpt>
      <trkpt lat="43.45365" lon="1.59327">
        <ele>160</ele>
        <time>2017-11-11T10:02:00Z</time>
      </trkpt>
      <trkpt lat="43.45358" lon="1.59329">
        <ele>160</ele>
        <time>2017-11-11T10:02:00Z</time>
      </trkpt>
      <trkpt lat="43.45355" lon="1.5933">
        <ele>160</ele>
        <time>2017-11-11T10:02:00Z</time>
      </trkpt>
      <trkpt lat="43.45348" lon="1.59333">
        <ele>160</ele>
        <time>2017-11-11T10:02:00Z</time>
      </trkpt>
      <trkpt lat="43.45345" lon="1.59335">
        <ele>160</ele>
        <time>2017-11-11T10:02:15Z</time>
      </trkpt>
      <trkpt lat="43.4534" lon="1.59336">
        <ele>160</ele>
        <time>2017-11-11T10:02:15Z</time>
      </trkpt>
      <trkpt lat="43.45336" lon="1.59338">
        <ele>160</ele>
        <time>2017-11-11T10:02:15Z</time>
      </trkpt>
      <trkpt lat="43.45331" lon="1.59339">
        <ele>160</ele>
        <time>2017-11-11T10:02:15Z</time>
      </trkpt>
      <trkpt lat="43.45326" lon="1.59339">
        <ele>160</ele>
        <time>2017-11-11T10:02:31Z</time>
      </trkpt>
      <trkpt lat="43.45321" lon="1.59341">
        <ele>160</ele>
        <time>2017-11-11T10:02:31Z</time>
      </trkpt>
      <trkpt lat="43.45317" lon="1.59343">
        <ele>160</ele>
        <time>2017-11-11T10:02:31Z</time>
      </trkpt>
      <trkpt lat="43.45313" lon="1.59345">
        <ele>160</ele>
        <time>2017-11-11T10:02:31Z</time>
      </trkpt>
      <trkpt lat="43.45309" lon="1.59347">
        <ele>160</ele>
        <time>2017-11-11T10:02:51Z</time>
      </trkpt>
      <trkpt lat="43.45306" lon="1.59349">
        <ele>160</ele>
        <time>2017-11-11T10:02:51Z</time>
      </trkpt>
      <trkpt lat="43.45304" lon="1.5935">
        <ele>160</ele>
        <time>2017-11-11T10:02:51Z</time>
      </trkpt>
      <trkpt lat="43.45302" lon="1.59352">
        <ele>160</ele>
        <time>2017-11-11T10:02:51Z</time>
      </trkpt>
      <trkpt lat="43.45296" lon="1.59354">
        <ele>160</ele>
        <time>2017-11-11T10:02:51Z</time>
      </trkpt>
      <trkpt lat="43.45291" lon="1.59357">
        <ele>158</ele>
        <time>2017-11-11T10:03:08Z</time>
      </trkpt>
      <trkpt lat="43.45287" lon="1.59359">
        <ele>158</ele>
        <time>2017-11-11T10:03:08Z</time>
      </trkpt>
      <trkpt lat="43.45281" lon="1.59361">
        <ele>158</ele>
        <time>2017-11-11T10:03:08Z</time>
      </trkpt>
      <trkpt lat="43.45274" lon="1.59366">
        <ele>158</ele>
        <time>2017-11-11T10:03:08Z</time>
      </trkpt>
      <trkpt lat="43.4527" lon="1.59368">
        <ele>158</ele>
        <time>2017-11-11T10:03:23Z</time>
      </trkpt>
      <trkpt lat="43.45264" lon="1.59372">
        <ele>158</ele>
        <time>2017-11-11T10:03:23Z</time>
      </trkpt>
      <trkpt lat="43.45259" lon="1.59374">
        <ele>158</ele>
        <time>2017-11-11T10:03:23Z</time>
      </trkpt>
      <trkpt lat="43.45255" lon="1.59376">
        <ele>158</ele>
        <time>2017-11-11T10:03:23Z</time>
      </trkpt>
      <trkpt lat="43.4525" lon="1.5938">
        <ele>158</ele>
        <time>2017-11-11T10:03:39Z</time>
      </trkpt>
      <trkpt lat="43.45244" lon="1.59384">
        <ele>158</ele>
        <time>2017-11-11T10:03:39Z</time>
      </trkpt>
      <trkpt lat="43.4524" lon="1.59387">
        <ele>158</ele>
        <time>2017-11-11T10:03:39Z</time>
      </trkpt>
      <trkpt lat="43.45236" lon="1.59391">
        <ele>158</ele>
        <time>2017-11-11T10:03:39Z</time>
      </trkpt>
      <trkpt lat="43.4523" lon="1.59395">
        <ele>158</ele>
        <time>2017-11-11T10:03:55Z</time>
      </trkpt>
      <trkpt lat="43.45226" lon="1.59399">
        <ele>158</ele>
        <time>2017-11-11T10:03:55Z</time>
      </trkpt>
      <trkpt lat="43.45223" lon="1.59404">
        <ele>158</ele>
        <time>2017-11-11T10:03:55Z</time>
      </trkpt>
      <trkpt lat="43.4522" lon="1.59409">
        <ele>158</ele>
        <time>2017-11-11T10:03:55Z</time>
      </trkpt>
      <trkpt lat="43.45217" lon="1.59413">
        <ele>158</ele>
        <time>2017-11-11T10:04:11Z</time>
      </trkpt>
      <trkpt lat="43.45212" lon="1.59417">
        <ele>158</ele>
        <time>2017-11-11T10:04:11Z</time>
      </trkpt>
      <trkpt lat="43.45209" lon="1.5942">
        <ele>158</ele>
        <time>2017-11-11T10:04:11Z</time>
      </trkpt>
      <trkpt lat="43.45205" lon="1.59424">
        <ele>162</ele>
        <time>2017-11-11T10:04:11Z</time>
      </trkpt>
      <trkpt lat="43.45199" lon="1.59429">
        <ele>162</ele>
        <time>2017-11-11T10:04:27Z</time>
      </trkpt>
      <trkpt lat="43.45195" lon="1.59432">
        <ele>162</ele>
        <time>2017-11-11T10:04:27Z</time>
      </trkpt>
      <trkpt lat="43.45191" lon="1.59437">
        <ele>162</ele>
        <time>2017-11-11T10:04:27Z</time>
      </trkpt>
      <trkpt lat="43.45189" lon="1.59441">
        <ele>162</ele>
        <time>2017-11-11T10:04:27Z</time>
      </trkpt>
      <trkpt lat="43.45184" lon="1.59446">
        <ele>162</ele>
        <time>2017-11-11T10:04:43Z</time>
      </trkpt>
      <trkpt lat="43.45178" lon="1.59453">
        <ele>162</ele>
        <time>2017-11-11T10:04:43Z</time>
      </trkpt>
      <trkpt lat="43.45175" lon="1.59456">
        <ele>162</ele>
        <time>2017-11-11T10:04:43Z</time>
      </trkpt>
      <trkpt lat="43.45172" lon="1.59459">
        <ele>165</ele>
        <time>2017-11-11T10:04:43Z</time>
      </trkpt>
      <trkpt lat="43.45169" lon="1.59462">
        <ele>165</ele>
        <time>2017-11-11T10:04:59Z</time>
      </trkpt>
      <trkpt lat="43.45168" lon="1.59466">
        <ele>165</ele>
        <time>2017-11-11T10:05:00Z</time>
      </trkpt>
      <trkpt lat="43.45165" lon="1.59471">
        <ele>165</ele>
        <time>2017-11-11T10:05:00Z</time>
      </trkpt>
      <trkpt lat="43.45159" lon="1.59478">
        <ele>165</ele>
        <time>2017-11-11T10:05:00Z</time>
      </trkpt>
      <trkpt lat="43.45156" lon="1.59482">
        <ele>165</ele>
        <time>2017-11-11T10:05:15Z</time>
      </trkpt>
      <trkpt lat="43.45152" lon="1.59488">
        <ele>165</ele>
        <time>2017-11-11T10:05:15Z</time>
      </trkpt>
      <trkpt lat="43.45149" lon="1.59491">
        <ele>165</ele>
        <time>2017-11-11T10:05:15Z</time>
      </trkpt>
      <trkpt lat="43.45146" lon="1.59494">
        <ele>165</ele>
        <time>2017-11-11T10:05:15Z</time>
      </trkpt>
      <trkpt lat="43.4514" lon="1.59501">
        <ele>165</ele>
        <time>2017-11-11T10:05:31Z</time>
      </trkpt>
      <trkpt lat="43.45137" lon="1.59506">
        <ele>165</ele>
        <time>2017-11-11T10:05:32Z</time>
      </trkpt>
      <trkpt lat="43.45133" lon="1.59512">
        <ele>165</ele>
        <time>2017-11-11T10:05:32Z</time>
      </trkpt>
      <trkpt lat="43.4513" lon="1.5952">
        <ele>165</ele>
        <time>2017-11-11T10:05:32Z</time>
      </trkpt>
      <trkpt lat="43.45127" lon="1.59525">
        <ele>165</ele>
        <time>2017-11-11T10:05:47Z</time>
      </trkpt>
      <trkpt lat="43.45123" lon="1.59531">
        <ele>163</ele>
        <time>2017-11-11T10:05:47Z</time>
      </trkpt>
      <trkpt lat="43.45119" lon="1.59538">
        <ele>163</ele>
        <time>2017-11-11T10:05:47Z</time>
      </trkpt>
      <trkpt lat="43.45116" lon="1.59542">
        <ele>162</ele>
        <time>2017-11-11T10:05:47Z</time>
      </trkpt>
      <trkpt lat="43.45112" lon="1.5955">
        <ele>162</ele>
        <time>2017-11-11T10:06:03Z</time>
      </trkpt>
      <trkpt lat="43.4511" lon="1.59556">
        <ele>162</ele>
        <time>2017-11-11T10:06:04Z</time>
      </trkpt>
      <trkpt lat="43.45107" lon="1.59563">
        <ele>162</ele>
        <time>2017-11-11T10:06:04Z</time>
      </trkpt>
      <trkpt lat="43.45104" lon="1.59571">
        <ele>162</ele>
        <time>2017-11-11T10:06:04Z</time>
      </trkpt>
      <trkpt lat="43.45102" lon="1.59576">
        <ele>162</ele>
        <time>2017-11-11T10:06:19Z</time>
      </trkpt>
      <trkpt lat="43.451" lon="1.59582">
        <ele>162</ele>
        <time>2017-11-11T10:06:19Z</time>
      </trkpt>
      <trkpt lat="43.45098" lon="1.5959">
        <ele>162</ele>
        <time>2017-11-11T10:06:19Z</time>
      </trkpt>
      <trkpt lat="43.45096" lon="1.59595">
        <ele>162</ele>
        <time>2017-11-11T10:06:19Z</time>
      </trkpt>
      <trkpt lat="43.45093" lon="1.59601">
        <ele>162</ele>
        <time>2017-11-11T10:06:35Z</time>
      </trkpt>
      <trkpt lat="43.45091" lon="1.59609">
        <ele>162</ele>
        <time>2017-11-11T10:06:36Z</time>
      </trkpt>
      <trkpt lat="43.4509" lon="1.59613">
        <ele>162</ele>
        <time>2017-11-11T10:06:36Z</time>
      </trkpt>
      <trkpt lat="43.45088" lon="1.5962">
        <ele>162</ele>
        <time>2017-11-11T10:06:36Z</time>
      </trkpt>
      <trkpt lat="43.45086" lon="1.59624">
        <ele>162</ele>
        <time>2017-11-11T10:06:51Z</time>
      </trkpt>
      <trkpt lat="43.45085" lon="1.59627">
        <ele>162</ele>
        <time>2017-11-11T10:06:51Z</time>
      </trkpt>
      <trkpt lat="43.45083" lon="1.59632">
        <ele>162</ele>
        <time>2017-11-11T10:06:51Z</time>
      </trkpt>
      <trkpt lat="43.45082" lon="1.59636">
        <ele>162</ele>
        <time>2017-11-11T10:06:51Z</time>
      </trkpt>
      <trkpt lat="43.4508" lon="1.59643">
        <ele>162</ele>
        <time>2017-11-11T10:07:07Z</time>
      </trkpt>
      <trkpt lat="43.45078" lon="1.59652">
        <ele>162</ele>
        <time>2017-11-11T10:07:07Z</time>
      </trkpt>
      <trkpt lat="43.45076" lon="1.5966">
        <ele>162</ele>
        <time>2017-11-11T10:07:07Z</time>
      </trkpt>
      <trkpt lat="43.45074" lon="1.59668">
        <ele>162</ele>
        <time>2017-11-11T10:07:07Z</time>
      </trkpt>
      <trkpt lat="43.4507" lon="1.59678">
        <ele>162</ele>
        <time>2017-11-11T10:07:23Z</time>
      </trkpt>
      <trkpt lat="43.45068" lon="1.59683">
        <ele>162</ele>
        <time>2017-11-11T10:07:23Z</time>
      </trkpt>
      <trkpt lat="43.45066" lon="1.59691">
        <ele>162</ele>
        <time>2017-11-11T10:07:23Z</time>
      </trkpt>
      <trkpt lat="43.45064" lon="1.59695">
        <ele>162</ele>
        <time>2017-11-11T10:07:23Z</time>
      </trkpt>
      <trkpt lat="43.45063" lon="1.597">
        <ele>162</ele>
        <time>2017-11-11T10:07:39Z</time>
      </trkpt>
      <trkpt lat="43.45059" lon="1.59707">
        <ele>162</ele>
        <time>2017-11-11T10:07:39Z</time>
      </trkpt>
      <trkpt lat="43.45057" lon="1.59712">
        <ele>164</ele>
        <time>2017-11-11T10:07:39Z</time>
      </trkpt>
      <trkpt lat="43.45055" lon="1.59717">
        <ele>164</ele>
        <time>2017-11-11T10:07:39Z</time>
      </trkpt>
      <trkpt lat="43.45051" lon="1.59724">
        <ele>164</ele>
        <time>2017-11-11T10:07:55Z</time>
      </trkpt>
      <trkpt lat="43.45049" lon="1.59728">
        <ele>164</ele>
        <time>2017-11-11T10:07:55Z</time>
      </trkpt>
      <trkpt lat="43.45047" lon="1.59734">
        <ele>164</ele>
        <time>2017-11-11T10:07:56Z</time>
      </trkpt>
      <trkpt lat="43.45043" lon="1.59742">
        <ele>164</ele>
        <time>2017-11-11T10:07:56Z</time>
      </trkpt>
      <trkpt lat="43.45041" lon="1.59746">
        <ele>164</ele>
        <time>2017-11-11T10:08:11Z</time>
      </trkpt>
      <trkpt lat="43.45039" lon="1.59751">
        <ele>164</ele>
        <time>2017-11-11T10:08:11Z</time>
      </trkpt>
      <trkpt lat="43.45038" lon="1.59755">
        <ele>164</ele>
        <time>2017-11-11T10:08:11Z</time>
      </trkpt>
      <trkpt lat="43.45035" lon="1.5976">
        <ele>164</ele>
        <time>2017-11-11T10:08:11Z</time>
      </trkpt>
      <trkpt lat="43.45032" lon="1.59767">
        <ele>164</ele>
        <time>2017-11-11T10:08:27Z</time>
      </trkpt>
      <trkpt lat="43.4503" lon="1.5977">
        <ele>164</ele>
        <time>2017-11-11T10:08:27Z</time>
      </trkpt>
      <trkpt lat="43.45026" lon="1.59774">
        <ele>164</ele>
        <time>2017-11-11T10:08:27Z</time>
      </trkpt>
      <trkpt lat="43.45022" lon="1.59779">
        <ele>164</ele>
        <time>2017-11-11T10:08:27Z</time>
      </trkpt>
      <trkpt lat="43.4502" lon="1.59783">
        <ele>164</ele>
        <time>2017-11-11T10:08:43Z</time>
      </trkpt>
      <trkpt lat="43.45016" lon="1.59789">
        <ele>164</ele>
        <time>2017-11-11T10:08:43Z</time>
      </trkpt>
      <trkpt lat="43.45014" lon="1.59793">
        <ele>164</ele>
        <time>2017-11-11T10:08:43Z</time>
      </trkpt>
      <trkpt lat="43.45011" lon="1.59797">
        <ele>164</ele>
        <time>2017-11-11T10:08:43Z</time>
      </trkpt>
      <trkpt lat="43.45009" lon="1.59801">
        <ele>164</ele>
        <time>2017-11-11T10:08:59Z</time>
      </trkpt>
      <trkpt lat="43.45007" lon="1.59803">
        <ele>164</ele>
        <time>2017-11-11T10:09:00Z</time>
      </trkpt>
      <trkpt lat="43.45005" lon="1.59806">
        <ele>164</ele>
        <time>2017-11-11T10:09:00Z</time>
      </trkpt>
      <trkpt lat="43.45001" lon="1.59812">
        <ele>164</ele>
        <time>2017-11-11T10:09:00Z</time>
      </trkpt>
      <trkpt lat="43.44997" lon="1.59818">
        <ele>164</ele>
        <time>2017-11-11T10:09:15Z</time>
      </trkpt>
      <trkpt lat="43.44993" lon="1.59823">
        <ele>164</ele>
        <time>2017-11-11T10:09:15Z</time>
      </trkpt>
      <trkpt lat="43.44987" lon="1.59831">
        <ele>164</ele>
        <time>2017-11-11T10:09:15Z</time>
      </trkpt>
      <trkpt lat="43.44984" lon="1.59835">
        <ele>164</ele>
        <time>2017-11-11T10:09:15Z</time>
      </trkpt>
      <trkpt lat="43.44978" lon="1.59841">
        <ele>164</ele>
        <time>2017-11-11T10:09:32Z</time>
      </trkpt>
      <trkpt lat="43.44974" lon="1.59846">
        <ele>164</ele>
        <time>2017-11-11T10:09:32Z</time>
      </trkpt>
      <trkpt lat="43.44968" lon="1.5985">
        <ele>164</ele>
        <time>2017-11-11T10:09:32Z</time>
      </trkpt>
      <trkpt lat="43.44962" lon="1.59855">
        <ele>164</ele>
        <time>2017-11-11T10:09:32Z</time>
      </trkpt>
      <trkpt lat="43.44959" lon="1.59858">
        <ele>164</ele>
        <time>2017-11-11T10:09:47Z</time>
      </trkpt>
      <trkpt lat="43.44955" lon="1.59862">
        <ele>161</ele>
        <time>2017-11-11T10:09:47Z</time>
      </trkpt>
      <trkpt lat="43.44948" lon="1.59866">
        <ele>161</ele>
        <time>2017-11-11T10:09:47Z</time>
      </trkpt>
      <trkpt lat="43.44946" lon="1.59869">
        <ele>161</ele>
        <time>2017-11-11T10:09:47Z</time>
      </trkpt>
      <trkpt lat="43.44942" lon="1.59871">
        <ele>161</ele>
        <time>2017-11-11T10:10:04Z</time>
      </trkpt>
      <trkpt lat="43.44935" lon="1.59874">
        <ele>161</ele>
        <time>2017-11-11T10:10:04Z</time>
      </trkpt>
      <trkpt lat="43.44931" lon="1.59876">
        <ele>161</ele>
        <time>2017-11-11T10:10:04Z</time>
      </trkpt>
      <trkpt lat="43.44925" lon="1.59878">
        <ele>161</ele>
        <time>2017-11-11T10:10:04Z</time>
      </trkpt>
      <trkpt lat="43.44921" lon="1.59881">
        <ele>161</ele>
        <time>2017-11-11T10:10:19Z</time>
      </trkpt>
      <trkpt lat="43.44916" lon="1.59883">
        <ele>161</ele>
        <time>2017-11-11T10:10:19Z</time>
      </trkpt>
      <trkpt lat="43.44909" lon="1.59885">
        <ele>161</ele>
        <time>2017-11-11T10:10:19Z</time>
      </trkpt>
      <trkpt lat="43.44904" lon="1.59885">
        <ele>161</ele>
        <time>2017-11-11T10:10:19Z</time>
      </trkpt>
      <trkpt lat="43.44899" lon="1.59886">
        <ele>161</ele>
        <time>2017-11-11T10:10:35Z</time>
      </trkpt>
      <trkpt lat="43.44895" lon="1.59889">
        <ele>161</ele>
        <time>2017-11-11T10:10:35Z</time>
      </trkpt>
      <trkpt lat="43.44892" lon="1.5989">
        <ele>161</ele>
        <time>2017-11-11T10:10:35Z</time>
      </trkpt>
      <trkpt lat="43.44889" lon="1.59892">
        <ele>161</ele>
        <time>2017-11-11T10:10:35Z</time>
      </trkpt>
      <trkpt lat="43.44884" lon="1.59894">
        <ele>161</ele>
        <time>2017-11-11T10:10:51Z</time>
      </trkpt>
      <trkpt lat="43.44881" lon="1.59896">
        <ele>161</ele>
        <time>2017-11-11T10:10:51Z</time>
      </trkpt>
      <trkpt lat="43.44875" lon="1.59897">
        <ele>167</ele>
        <time>2017-11-11T10:10:51Z</time>
      </trkpt>
      <trkpt lat="43.44872" lon="1.59899">
        <ele>167</ele>
        <time>2017-11-11T10:10:51Z</time>
      </trkpt>
      <trkpt lat="43.44867" lon="1.599">
        <ele>167</ele>
        <time>2017-11-11T10:11:07Z</time>
      </trkpt>
      <trkpt lat="43.44859" lon="1.599">
        <ele>167</ele>
        <time>2017-11-11T10:11:07Z</time>
      </trkpt>
      <trkpt lat="43.44855" lon="1.59901">
        <ele>167</ele>
        <time>2017-11-11T10:11:07Z</time>
      </trkpt>
      <trkpt lat="43.4485" lon="1.59903">
        <ele>167</ele>
        <time>2017-11-11T10:11:07Z</time>
      </trkpt>
      <trkpt lat="43.44843" lon="1.59905">
        <ele>167</ele>
        <time>2017-11-11T10:11:24Z</time>
      </trkpt>
      <trkpt lat="43.4484" lon="1.59907">
        <ele>167</ele>
        <time>2017-11-11T10:11:24Z</time>
      </trkpt>
      <trkpt lat="43.44837" lon="1.59909">
        <ele>167</ele>
        <time>2017-11-11T10:11:24Z</time>
      </trkpt>
      <trkpt lat="43.44833" lon="1.59911">
        <ele>167</ele>
        <time>2017-11-11T10:11:24Z</time>
      </trkpt>
      <trkpt lat="43.44831" lon="1.59912">
        <ele>167</ele>
        <time>2017-11-11T10:11:39Z</time>
      </trkpt>
      <trkpt lat="43.44825" lon="1.59914">
        <ele>167</ele>
        <time>2017-11-11T10:11:39Z</time>
      </trkpt>
      <trkpt lat="43.44821" lon="1.59915">
        <ele>167</ele>
        <time>2017-11-11T10:11:39Z</time>
      </trkpt>
      <trkpt lat="43.44813" lon="1.59917">
        <ele>167</ele>
        <time>2017-11-11T10:11:39Z</time>
      </trkpt>
      <trkpt lat="43.44806" lon="1.59919">
        <ele>167</ele>
        <time>2017-11-11T10:11:55Z</time>
      </trkpt>
      <trkpt lat="43.44804" lon="1.5992">
        <ele>167</ele>
        <time>2017-11-11T10:11:56Z</time>
      </trkpt>
      <trkpt lat="43.448" lon="1.59921">
        <ele>167</ele>
        <time>2017-11-11T10:11:56Z</time>
      </trkpt>
      <trkpt lat="43.44795" lon="1.59922">
        <ele>167</ele>
        <time>2017-11-11T10:11:56Z</time>
      </trkpt>
      <trkpt lat="43.44794" lon="1.59921">
        <ele>167</ele>
        <time>2017-11-11T10:12:11Z</time>
      </trkpt>
      <trkpt lat="43.4479" lon="1.59919">
        <ele>164</ele>
        <time>2017-11-11T10:12:11Z</time>
      </trkpt>
      <trkpt lat="43.44781" lon="1.5992">
        <ele>164</ele>
        <time>2017-11-11T10:12:11Z</time>
      </trkpt>
      <trkpt lat="43.44778" lon="1.59923">
        <ele>164</ele>
        <time>2017-11-11T10:12:11Z</time>
      </trkpt>
      <trkpt lat="43.44776" lon="1.59924">
        <ele>164</ele>
        <time>2017-11-11T10:12:28Z</time>
      </trkpt>
      <trkpt lat="43.44773" lon="1.59924">
        <ele>164</ele>
        <time>2017-11-11T10:12:28Z</time>
      </trkpt>
      <trkpt lat="43.44765" lon="1.59924">
        <ele>164</ele>
        <time>2017-11-11T10:12:28Z</time>
      </trkpt>
      <trkpt lat="43.44757" lon="1.59926">
        <ele>164</ele>
        <time>2017-11-11T10:12:28Z</time>
      </trkpt>
      <trkpt lat="43.44752" lon="1.59927">
        <ele>164</ele>
        <time>2017-11-11T10:12:43Z</time>
      </trkpt>
      <trkpt lat="43.44743" lon="1.59928">
        <ele>164</ele>
        <time>2017-11-11T10:12:43Z</time>
      </trkpt>
      <trkpt lat="43.44734" lon="1.59928">
        <ele>164</ele>
        <time>2017-11-11T10:12:43Z</time>
      </trkpt>
      <trkpt lat="43.44728" lon="1.59929">
        <ele>164</ele>
        <time>2017-11-11T10:12:43Z</time>
      </trkpt>
      <trkpt lat="43.44722" lon="1.59931">
        <ele>164</ele>
        <time>2017-11-11T10:13:00Z</time>
      </trkpt>
      <trkpt lat="43.44715" lon="1.59931">
        <ele>164</ele>
        <time>2017-11-11T10:13:00Z</time>
      </trkpt>
      <trkpt lat="43.44711" lon="1.59931">
        <ele>164</ele>
        <time>2017-11-11T10:13:00Z</time>
      </trkpt>
      <trkpt lat="43.44703" lon="1.59933">
        <ele>165</ele>
        <time>2017-11-11T10:13:00Z</time>
      </trkpt>
      <trkpt lat="43.44699" lon="1.59934">
        <ele>165</ele>
        <time>2017-11-11T10:13:15Z</time>
      </trkpt>
      <trkpt lat="43.44694" lon="1.59934">
        <ele>165</ele>
        <time>2017-11-11T10:13:15Z</time>
      </trkpt>
      <trkpt lat="43.44689" lon="1.59936">
        <ele>165</ele>
        <time>2017-11-11T10:13:15Z</time>
      </trkpt>
      <trkpt lat="43.44686" lon="1.59936">
        <ele>165</ele>
        <time>2017-11-11T10:13:15Z</time>
      </trkpt>
      <trkpt lat="43.44682" lon="1.59937">
        <ele>165</ele>
        <time>2017-11-11T10:13:35Z</time>
      </trkpt>
      <trkpt lat="43.4468" lon="1.59939">
        <ele>165</ele>
        <time>2017-11-11T10:13:35Z</time>
      </trkpt>
      <trkpt lat="43.44679" lon="1.5994">
        <ele>165</ele>
        <time>2017-11-11T10:13:35Z</time>
      </trkpt>
      <trkpt lat="43.44676" lon="1.59941">
        <ele>165</ele>
        <time>2017-11-11T10:13:35Z</time>
      </trkpt>
      <trkpt lat="43.44673" lon="1.5994">
        <ele>165</ele>
        <time>2017-11-11T10:13:35Z</time>
      </trkpt>
      <trkpt lat="43.44669" lon="1.59941">
        <ele>165</ele>
        <time>2017-11-11T10:13:51Z</time>
      </trkpt>
      <trkpt lat="43.44661" lon="1.59945">
        <ele>165</ele>
        <time>2017-11-11T10:13:51Z</time>
      </trkpt>
      <trkpt lat="43.44656" lon="1.59946">
        <ele>165</ele>
        <time>2017-11-11T10:13:51Z</time>
      </trkpt>
      <trkpt lat="43.44651" lon="1.59948">
        <ele>165</ele>
        <time>2017-11-11T10:13:51Z</time>
      </trkpt>
      <trkpt lat="43.44644" lon="1.59949">
        <ele>165</ele>
        <time>2017-11-11T10:14:08Z</time>
      </trkpt>
      <trkpt lat="43.44642" lon="1.59951">
        <ele>165</ele>
        <time>2017-11-11T10:14:08Z</time>
      </trkpt>
      <trkpt lat="43.44636" lon="1.59954">
        <ele>165</ele>
        <time>2017-11-11T10:14:08Z</time>
      </trkpt>
      <trkpt lat="43.44629" lon="1.59956">
        <ele>165</ele>
        <time>2017-11-11T10:14:08Z</time>
      </trkpt>
      <trkpt lat="43.44624" lon="1.59957">
        <ele>174</ele>
        <time>2017-11-11T10:14:23Z</time>
      </trkpt>
      <trkpt lat="43.44619" lon="1.59959">
        <ele>171</ele>
        <time>2017-11-11T10:14:23Z</time>
      </trkpt>
      <trkpt lat="43.44614" lon="1.59962">
        <ele>171</ele>
        <time>2017-11-11T10:14:23Z</time>
      </trkpt>
      <trkpt lat="43.44611" lon="1.59963">
        <ele>171</ele>
        <time>2017-11-11T10:14:23Z</time>
      </trkpt>
      <trkpt lat="43.44607" lon="1.59966">
        <ele>171</ele>
        <time>2017-11-11T10:14:40Z</time>
      </trkpt>
      <trkpt lat="43.44604" lon="1.59969">
        <ele>171</ele>
        <time>2017-11-11T10:14:40Z</time>
      </trkpt>
      <trkpt lat="43.44601" lon="1.59972">
        <ele>171</ele>
        <time>2017-11-11T10:14:40Z</time>
      </trkpt>
      <trkpt lat="43.44597" lon="1.59976">
        <ele>171</ele>
        <time>2017-11-11T10:14:40Z</time>
      </trkpt>
      <trkpt lat="43.44594" lon="1.59979">
        <ele>171</ele>
        <time>2017-11-11T10:14:55Z</time>
      </trkpt>
      <trkpt lat="43.44592" lon="1.59985">
        <ele>171</ele>
        <time>2017-11-11T10:14:55Z</time>
      </trkpt>
      <trkpt lat="43.44587" lon="1.59992">
        <ele>171</ele>
        <time>2017-11-11T10:14:55Z</time>
      </trkpt>
      <trkpt lat="43.44583" lon="1.59996">
        <ele>171</ele>
        <time>2017-11-11T10:14:55Z</time>
      </trkpt>
      <trkpt lat="43.44578" lon="1.6">
        <ele>171</ele>
        <time>2017-11-11T10:15:12Z</time>
      </trkpt>
      <trkpt lat="43.44573" lon="1.60006">
        <ele>171</ele>
        <time>2017-11-11T10:15:12Z</time>
      </trkpt>
      <trkpt lat="43.4457" lon="1.6001">
        <ele>171</ele>
        <time>2017-11-11T10:15:12Z</time>
      </trkpt>
      <trkpt lat="43.44564" lon="1.60016">
        <ele>171</ele>
        <time>2017-11-11T10:15:12Z</time>
      </trkpt>
      <trkpt lat="43.44561" lon="1.60019">
        <ele>171</ele>
        <time>2017-11-11T10:15:27Z</time>
      </trkpt>
      <trkpt lat="43.44557" lon="1.60023">
        <ele>171</ele>
        <time>2017-11-11T10:15:27Z</time>
      </trkpt>
      <trkpt lat="43.44554" lon="1.60029">
        <ele>171</ele>
        <time>2017-11-11T10:15:27Z</time>
      </trkpt>
      <trkpt lat="43.44552" lon="1.60032">
        <ele>171</ele>
        <time>2017-11-11T10:15:27Z</time>
      </trkpt>
      <trkpt lat="43.44549" lon="1.60038">
        <ele>171</ele>
        <time>2017-11-11T10:15:43Z</time>
      </trkpt>
      <trkpt lat="43.44546" lon="1.60042">
        <ele>171</ele>
        <time>2017-11-11T10:15:43Z</time>
      </trkpt>
      <trkpt lat="43.44544" lon="1.60044">
        <ele>167</ele>
        <time>2017-11-11T10:15:43Z</time>
      </trkpt>
      <trkpt lat="43.44542" lon="1.60049">
        <ele>167</ele>
        <time>2017-11-11T10:15:43Z</time>
      </trkpt>
      <trkpt lat="43.44539" lon="1.60056">
        <ele>170</ele>
        <time>2017-11-11T10:15:59Z</time>
      </trkpt>
      <trkpt lat="43.44538" lon="1.60061">
        <ele>170</ele>
        <time>2017-11-11T10:15:59Z</time>
      </trkpt>
      <trkpt lat="43.44535" lon="1.60071">
        <ele>170</ele>
        <time>2017-11-11T10:15:59Z</time>
      </trkpt>
      <trkpt lat="43.44533" lon="1.60076">
        <ele>170</ele>
        <time>2017-11-11T10:15:59Z</time>
      </trkpt>
      <trkpt lat="43.44531" lon="1.60084">
        <ele>170</ele>
        <time>2017-11-11T10:16:15Z</time>
      </trkpt>
      <trkpt lat="43.44526" lon="1.60095">
        <ele>170</ele>
        <time>2017-11-11T10:16:15Z</time>
      </trkpt>
      <trkpt lat="43.44523" lon="1.60101">
        <ele>170</ele>
        <time>2017-11-11T10:16:15Z</time>
      </trkpt>
      <trkpt lat="43.4452" lon="1.60109">
        <ele>170</ele>
        <time>2017-11-11T10:16:15Z</time>
      </trkpt>
      <trkpt lat="43.44517" lon="1.60117">
        <ele>170</ele>
        <time>2017-11-11T10:16:32Z</time>
      </trkpt>
      <trkpt lat="43.44516" lon="1.60122">
        <ele>170</ele>
        <time>2017-11-11T10:16:32Z</time>
      </trkpt>
      <trkpt lat="43.44518" lon="1.60126">
        <ele>167</ele>
        <time>2017-11-11T10:16:32Z</time>
      </trkpt>
      <trkpt lat="43.44519" lon="1.60133">
        <ele>167</ele>
        <time>2017-11-11T10:16:32Z</time>
      </trkpt>
      <trkpt lat="43.44521" lon="1.60138">
        <ele>167</ele>
        <time>2017-11-11T10:16:47Z</time>
      </trkpt>
      <trkpt lat="43.44524" lon="1.60145">
        <ele>167</ele>
        <time>2017-11-11T10:16:47Z</time>
      </trkpt>
      <trkpt lat="43.44525" lon="1.60151">
        <ele>167</ele>
        <time>2017-11-11T10:16:47Z</time>
      </trkpt>
      <trkpt lat="43.44524" lon="1.60161">
        <ele>167</ele>
        <time>2017-11-11T10:16:47Z</time>
      </trkpt>
      <trkpt lat="43.44524" lon="1.60172">
        <ele>167</ele>
        <time>2017-11-11T10:17:03Z</time>
      </trkpt>
      <trkpt lat="43.44525" lon="1.60177">
        <ele>167</ele>
        <time>2017-11-11T10:17:04Z</time>
      </trkpt>
      <trkpt lat="43.44525" lon="1.60182">
        <ele>167</ele>
        <time>2017-11-11T10:17:04Z</time>
      </trkpt>
      <trkpt lat="43.44526" lon="1.60188">
        <ele>167</ele>
        <time>2017-11-11T10:17:04Z</time>
      </trkpt>
      <trkpt lat="43.44526" lon="1.60192">
        <ele>167</ele>
        <time>2017-11-11T10:17:19Z</time>
      </trkpt>
      <trkpt lat="43.44526" lon="1.60198">
        <ele>167</ele>
        <time>2017-11-11T10:17:19Z</time>
      </trkpt>
      <trkpt lat="43.44527" lon="1.60203">
        <ele>167</ele>
        <time>2017-11-11T10:17:19Z</time>
      </trkpt>
      <trkpt lat="43.44529" lon="1.60206">
        <ele>167</ele>
        <time>2017-11-11T10:17:19Z</time>
      </trkpt>
      <trkpt lat="43.44532" lon="1.60207">
        <ele>167</ele>
        <time>2017-11-11T10:17:35Z</time>
      </trkpt>
      <trkpt lat="43.44534" lon="1.60211">
        <ele>165</ele>
        <time>2017-11-11T10:17:35Z</time>
      </trkpt>
      <trkpt lat="43.44536" lon="1.60216">
        <ele>165</ele>
        <time>2017-11-11T10:17:35Z</time>
      </trkpt>
      <trkpt lat="43.44539" lon="1.60225">
        <ele>165</ele>
        <time>2017-11-11T10:17:35Z</time>
      </trkpt>
      <trkpt lat="43.44539" lon="1.60231">
        <ele>165</ele>
        <time>2017-11-11T10:17:51Z</time>
      </trkpt>
      <trkpt lat="43.44541" lon="1.60239">
        <ele>165</ele>
        <time>2017-11-11T10:17:51Z</time>
      </trkpt>
      <trkpt lat="43.44543" lon="1.60249">
        <ele>160</ele>
        <time>2017-11-11T10:17:51Z</time>
      </trkpt>
      <trkpt lat="43.44544" lon="1.60254">
        <ele>160</ele>
        <time>2017-11-11T10:17:51Z</time>
      </trkpt>
      <trkpt lat="43.44547" lon="1.60264">
        <ele>160</ele>
        <time>2017-11-11T10:18:07Z</time>
      </trkpt>
      <trkpt lat="43.44548" lon="1.6027">
        <ele>160</ele>
        <time>2017-11-11T10:18:07Z</time>
      </trkpt>
      <trkpt lat="43.44549" lon="1.60278">
        <ele>160</ele>
        <time>2017-11-11T10:18:07Z</time>
      </trkpt>
      <trkpt lat="43.44551" lon="1.60287">
        <ele>160</ele>
        <time>2017-11-11T10:18:07Z</time>
      </trkpt>
      <trkpt lat="43.44552" lon="1.60292">
        <ele>160</ele>
        <time>2017-11-11T10:18:23Z</time>
      </trkpt>
      <trkpt lat="43.44553" lon="1.60298">
        <ele>159</ele>
        <time>2017-11-11T10:18:23Z</time>
      </trkpt>
      <trkpt lat="43.44555" lon="1.60307">
        <ele>159</ele>
        <time>2017-11-11T10:18:23Z</time>
      </trkpt>
      <trkpt lat="43.44556" lon="1.60312">
        <ele>159</ele>
        <time>2017-11-11T10:18:23Z</time>
      </trkpt>
      <trkpt lat="43.44557" lon="1.6032">
        <ele>159</ele>
        <time>2017-11-11T10:18:39Z</time>
      </trkpt>
      <trkpt lat="43.44559" lon="1.60327">
        <ele>159</ele>
        <time>2017-11-11T10:18:39Z</time>
      </trkpt>
      <trkpt lat="43.44559" lon="1.60331">
        <ele>159</ele>
        <time>2017-11-11T10:18:39Z</time>
      </trkpt>
      <trkpt lat="43.44561" lon="1.60336">
        <ele>159</ele>
        <time>2017-11-11T10:18:39Z</time>
      </trkpt>
      <trkpt lat="43.44563" lon="1.60344">
        <ele>159</ele>
        <time>2017-11-11T10:18:55Z</time>
      </trkpt>
      <trkpt lat="43.44564" lon="1.6035">
        <ele>159</ele>
        <time>2017-11-11T10:18:55Z</time>
      </trkpt>
      <trkpt lat="43.44565" lon="1.60356">
        <ele>159</ele>
        <time>2017-11-11T10:18:55Z</time>
      </trkpt>
      <trkpt lat="43.44566" lon="1.60362">
        <ele>159</ele>
        <time>2017-11-11T10:18:55Z</time>
      </trkpt>
      <trkpt lat="43.44567" lon="1.60367">
        <ele>159</ele>
        <time>2017-11-11T10:19:15Z</time>
      </trkpt>
      <trkpt lat="43.44568" lon="1.60369">
        <ele>159</ele>
        <time>2017-11-11T10:19:15Z</time>
      </trkpt>
      <trkpt lat="43.44568" lon="1.60373">
        <ele>159</ele>
        <time>2017-11-11T10:19:15Z</time>
      </trkpt>
      <trkpt lat="43.44569" lon="1.60376">
        <ele>162</ele>
        <time>2017-11-11T10:19:16Z</time>
      </trkpt>
      <trkpt lat="43.44571" lon="1.60382">
        <ele>162</ele>
        <time>2017-11-11T10:19:16Z</time>
      </trkpt>
      <trkpt lat="43.44571" lon="1.60386">
        <ele>162</ele>
        <time>2017-11-11T10:19:31Z</time>
      </trkpt>
      <trkpt lat="43.44573" lon="1.60389">
        <ele>162</ele>
        <time>2017-11-11T10:19:31Z</time>
      </trkpt>
      <trkpt lat="43.44574" lon="1.60396">
        <ele>162</ele>
        <time>2017-11-11T10:19:31Z</time>
      </trkpt>
      <trkpt lat="43.44576" lon="1.60399">
        <ele>162</ele>
        <time>2017-11-11T10:19:31Z</time>
      </trkpt>
      <trkpt lat="43.44576" lon="1.60406">
        <ele>162</ele>
        <time>2017-11-11T10:19:47Z</time>
      </trkpt>
      <trkpt lat="43.44576" lon="1.60417">
        <ele>162</ele>
        <time>2017-11-11T10:19:48Z</time>
      </trkpt>
      <trkpt lat="43.44575" lon="1.60423">
        <ele>162</ele>
        <time>2017-11-11T10:19:48Z</time>
      </trkpt>
      <trkpt lat="43.44575" lon="1.60435">
        <ele>162</ele>
        <time>2017-11-11T10:19:48Z</time>
      </trkpt>
      <trkpt lat="43.44574" lon="1.60441">
        <ele>162</ele>
        <time>2017-11-11T10:20:03Z</time>
      </trkpt>
      <trkpt lat="43.44572" lon="1.60451">
        <ele>162</ele>
        <time>2017-11-11T10:20:03Z</time>
      </trkpt>
      <trkpt lat="43.44569" lon="1.60463">
        <ele>164</ele>
        <time>2017-11-11T10:20:03Z</time>
      </trkpt>
      <trkpt lat="43.44568" lon="1.6047">
        <ele>164</ele>
        <time>2017-11-11T10:20:03Z</time>
      </trkpt>
      <trkpt lat="43.44566" lon="1.60479">
        <ele>164</ele>
        <time>2017-11-11T10:20:19Z</time>
      </trkpt>
      <trkpt lat="43.44563" lon="1.60488">
        <ele>164</ele>
        <time>2017-11-11T10:20:19Z</time>
      </trkpt>
      <trkpt lat="43.44561" lon="1.60493">
        <ele>164</ele>
        <time>2017-11-11T10:20:19Z</time>
      </trkpt>
      <trkpt lat="43.44558" lon="1.60499">
        <ele>164</ele>
        <time>2017-11-11T10:20:19Z</time>
      </trkpt>
      <trkpt lat="43.44554" lon="1.60505">
        <ele>164</ele>
        <time>2017-11-11T10:20:35Z</time>
      </trkpt>
      <trkpt lat="43.44551" lon="1.60511">
        <ele>164</ele>
        <time>2017-11-11T10:20:35Z</time>
      </trkpt>
      <trkpt lat="43.44548" lon="1.60519">
        <ele>164</ele>
        <time>2017-11-11T10:20:35Z</time>
      </trkpt>
      <trkpt lat="43.44545" lon="1.60523">
        <ele>164</ele>
        <time>2017-11-11T10:20:35Z</time>
      </trkpt>
      <trkpt lat="43.44542" lon="1.60529">
        <ele>164</ele>
        <time>2017-11-11T10:20:51Z</time>
      </trkpt>
      <trkpt lat="43.44538" lon="1.60534">
        <ele>162</ele>
        <time>2017-11-11T10:20:51Z</time>
      </trkpt>
      <trkpt lat="43.44534" lon="1.60538">
        <ele>162</ele>
        <time>2017-11-11T10:20:51Z</time>
      </trkpt>
      <trkpt lat="43.44531" lon="1.60543">
        <ele>162</ele>
        <time>2017-11-11T10:20:51Z</time>
      </trkpt>
      <trkpt lat="43.44527" lon="1.60548">
        <ele>162</ele>
        <time>2017-11-11T10:21:07Z</time>
      </trkpt>
      <trkpt lat="43.44523" lon="1.60552">
        <ele>162</ele>
        <time>2017-11-11T10:21:07Z</time>
      </trkpt>
      <trkpt lat="43.44522" lon="1.60555">
        <ele>162</ele>
        <time>2017-11-11T10:21:07Z</time>
      </trkpt>
      <trkpt lat="43.4452" lon="1.60557">
        <ele>162</ele>
        <time>2017-11-11T10:21:07Z</time>
      </trkpt>
      <trkpt lat="43.44518" lon="1.60562">
        <ele>162</ele>
        <time>2017-11-11T10:21:23Z</time>
      </trkpt>
      <trkpt lat="43.44514" lon="1.60567">
        <ele>162</ele>
        <time>2017-11-11T10:21:23Z</time>
      </trkpt>
      <trkpt lat="43.4451" lon="1.60571">
        <ele>162</ele>
        <time>2017-11-11T10:21:23Z</time>
      </trkpt>
      <trkpt lat="43.44508" lon="1.60575">
        <ele>162</ele>
        <time>2017-11-11T10:21:23Z</time>
      </trkpt>
      <trkpt lat="43.44504" lon="1.6058">
        <ele>162</ele>
        <time>2017-11-11T10:21:39Z</time>
      </trkpt>
      <trkpt lat="43.44501" lon="1.60585">
        <ele>162</ele>
        <time>2017-11-11T10:21:39Z</time>
      </trkpt>
      <trkpt lat="43.44497" lon="1.60591">
        <ele>162</ele>
        <time>2017-11-11T10:21:39Z</time>
      </trkpt>
      <trkpt lat="43.44492" lon="1.60597">
        <ele>162</ele>
        <time>2017-11-11T10:21:39Z</time>
      </trkpt>
      <trkpt lat="43.44489" lon="1.60602">
        <ele>162</ele>
        <time>2017-11-11T10:21:59Z</time>
      </trkpt>
      <trkpt lat="43.44489" lon="1.60602">
        <ele>162</ele>
        <time>2017-11-11T10:21:59Z</time>
      </trkpt>
      <trkpt lat="43.44485" lon="1.60606">
        <ele>162</ele>
        <time>2017-11-11T10:21:59Z</time>
      </trkpt>
      <trkpt lat="43.44482" lon="1.60609">
        <ele>162</ele>
        <time>2017-11-11T10:21:59Z</time>
      </trkpt>
      <trkpt lat="43.4448" lon="1.6061">
        <ele>162</ele>
        <time>2017-11-11T10:21:59Z</time>
      </trkpt>
      <trkpt lat="43.44479" lon="1.60612">
        <ele>162</ele>
        <time>2017-11-11T10:22:15Z</time>
      </trkpt>
      <trkpt lat="43.44472" lon="1.60619">
        <ele>162</ele>
        <time>2017-11-11T10:22:15Z</time>
      </trkpt>
      <trkpt lat="43.44469" lon="1.60625">
        <ele>159</ele>
        <time>2017-11-11T10:22:15Z</time>
      </trkpt>
      <trkpt lat="43.44467" lon="1.60629">
        <ele>159</ele>
        <time>2017-11-11T10:22:15Z</time>
      </trkpt>
      <trkpt lat="43.44464" lon="1.60635">
        <ele>159</ele>
        <time>2017-11-11T10:22:35Z</time>
      </trkpt>
      <trkpt lat="43.44461" lon="1.60639">
        <ele>159</ele>
        <time>2017-11-11T10:22:35Z</time>
      </trkpt>
      <trkpt lat="43.44459" lon="1.60641">
        <ele>159</ele>
        <time>2017-11-11T10:22:35Z</time>
      </trkpt>
      <trkpt lat="43.44459" lon="1.60643">
        <ele>159</ele>
        <time>2017-11-11T10:22:35Z</time>
      </trkpt>
      <trkpt lat="43.44456" lon="1.60646">
        <ele>164</ele>
        <time>2017-11-11T10:22:35Z</time>
      </trkpt>
      <trkpt lat="43.4445" lon="1.60651">
        <ele>164</ele>
        <time>2017-11-11T10:22:51Z</time>
      </trkpt>
      <trkpt lat="43.44446" lon="1.60655">
        <ele>164</ele>
        <time>2017-11-11T10:22:51Z</time>
      </trkpt>
      <trkpt lat="43.44442" lon="1.60661">
        <ele>164</ele>
        <time>2017-11-11T10:22:51Z</time>
      </trkpt>
      <trkpt lat="43.44439" lon="1.60664">
        <ele>164</ele>
        <time>2017-11-11T10:22:51Z</time>
      </trkpt>
      <trkpt lat="43.44435" lon="1.60671">
        <ele>164</ele>
        <time>2017-11-11T10:23:07Z</time>
      </trkpt>
      <trkpt lat="43.44432" lon="1.60675">
        <ele>164</ele>
        <time>2017-11-11T10:23:07Z</time>
      </trkpt>
      <trkpt lat="43.44428" lon="1.60681">
        <ele>164</ele>
        <time>2017-11-11T10:23:07Z</time>
      </trkpt>
      <trkpt lat="43.44423" lon="1.60686">
        <ele>164</ele>
        <time>2017-11-11T10:23:07Z</time>
      </trkpt>
      <trkpt lat="43.44421" lon="1.60688">
        <ele>164</ele>
        <time>2017-11-11T10:23:23Z</time>
      </trkpt>
      <trkpt lat="43.44417" lon="1.60694">
        <ele>164</ele>
        <time>2017-11-11T10:23:23Z</time>
      </trkpt>
      <trkpt lat="43.44412" lon="1.60699">
        <ele>164</ele>
        <time>2017-11-11T10:23:23Z</time>
      </trkpt>
      <trkpt lat="43.4441" lon="1.60701">
        <ele>164</ele>
        <time>2017-11-11T10:23:23Z</time>
      </trkpt>
      <trkpt lat="43.44407" lon="1.60705">
        <ele>164</ele>
        <time>2017-11-11T10:23:39Z</time>
      </trkpt>
      <trkpt lat="43.44401" lon="1.60711">
        <ele>162</ele>
        <time>2017-11-11T10:23:39Z</time>
      </trkpt>
      <trkpt lat="43.44398" lon="1.60714">
        <ele>162</ele>
        <time>2017-11-11T10:23:39Z</time>
      </trkpt>
      <trkpt lat="43.44396" lon="1.60716">
        <ele>162</ele>
        <time>2017-11-11T10:23:39Z</time>
      </trkpt>
      <trkpt lat="43.44392" lon="1.60719">
        <ele>162</ele>
        <time>2017-11-11T10:23:55Z</time>
      </trkpt>
      <trkpt lat="43.44386" lon="1.60724">
        <ele>162</ele>
        <time>2017-11-11T10:23:55Z</time>
      </trkpt>
      <trkpt lat="43.44382" lon="1.60726">
        <ele>162</ele>
        <time>2017-11-11T10:23:55Z</time>
      </trkpt>
      <trkpt lat="43.44378" lon="1.60729">
        <ele>162</ele>
        <time>2017-11-11T10:23:55Z</time>
      </trkpt>
      <trkpt lat="43.44374" lon="1.60733">
        <ele>166</ele>
        <time>2017-11-11T10:24:11Z</time>
      </trkpt>
      <trkpt lat="43.4437" lon="1.60736">
        <ele>166</ele>
        <time>2017-11-11T10:24:11Z</time>
      </trkpt>
      <trkpt lat="43.44367" lon="1.60739">
        <ele>166</ele>
        <time>2017-11-11T10:24:11Z</time>
      </trkpt>
      <trkpt lat="43.44365" lon="1.6074">
        <ele>166</ele>
        <time>2017-11-11T10:24:11Z</time>
      </trkpt>
      <trkpt lat="43.44361" lon="1.60741">
        <ele>166</ele>
        <time>2017-11-11T10:24:31Z</time>
      </trkpt>
      <trkpt lat="43.44357" lon="1.60742">
        <ele>166</ele>
        <time>2017-11-11T10:24:31Z</time>
      </trkpt>
      <trkpt lat="43.44355" lon="1.60744">
        <ele>166</ele>
        <time>2017-11-11T10:24:31Z</time>
      </trkpt>
      <trkpt lat="43.44353" lon="1.60746">
        <ele>166</ele>
        <time>2017-11-11T10:24:31Z</time>
      </trkpt>
      <trkpt lat="43.44351" lon="1.60749">
        <ele>166</ele>
        <time>2017-11-11T10:24:31Z</time>
      </trkpt>
      <trkpt lat="43.44346" lon="1.60753">
        <ele>166</ele>
        <time>2017-11-11T10:24:47Z</time>
      </trkpt>
      <trkpt lat="43.44341" lon="1.60756">
        <ele>166</ele>
        <time>2017-11-11T10:24:47Z</time>
      </trkpt>
      <trkpt lat="43.44339" lon="1.60758">
        <ele>166</ele>
        <time>2017-11-11T10:24:47Z</time>
      </trkpt>
      <trkpt lat="43.44335" lon="1.6076">
        <ele>166</ele>
        <time>2017-11-11T10:24:47Z</time>
      </trkpt>
      <trkpt lat="43.44331" lon="1.60763">
        <ele>166</ele>
        <time>2017-11-11T10:25:03Z</time>
      </trkpt>
      <trkpt lat="43.44327" lon="1.60766">
        <ele>166</ele>
        <time>2017-11-11T10:25:03Z</time>
      </trkpt>
      <trkpt lat="43.44324" lon="1.60769">
        <ele>166</ele>
        <time>2017-11-11T10:25:03Z</time>
      </trkpt>
      <trkpt lat="43.44319" lon="1.60771">
        <ele>166</ele>
        <time>2017-11-11T10:25:03Z</time>
      </trkpt>
      <trkpt lat="43.44315" lon="1.60774">
        <ele>166</ele>
        <time>2017-11-11T10:25:19Z</time>
      </trkpt>
      <trkpt lat="43.44311" lon="1.60778">
        <ele>166</ele>
        <time>2017-11-11T10:25:19Z</time>
      </trkpt>
      <trkpt lat="43.44305" lon="1.60783">
        <ele>166</ele>
        <time>2017-11-11T10:25:19Z</time>
      </trkpt>
      <trkpt lat="43.44301" lon="1.60787">
        <ele>166</ele>
        <time>2017-11-11T10:25:19Z</time>
      </trkpt>
      <trkpt lat="43.44295" lon="1.60792">
        <ele>162</ele>
        <time>2017-11-11T10:25:35Z</time>
      </trkpt>
      <trkpt lat="43.4429" lon="1.60796">
        <ele>169</ele>
        <time>2017-11-11T10:25:35Z</time>
      </trkpt>
      <trkpt lat="43.44285" lon="1.60801">
        <ele>169</ele>
        <time>2017-11-11T10:25:35Z</time>
      </trkpt>
      <trkpt lat="43.4428" lon="1.60806">
        <ele>169</ele>
        <time>2017-11-11T10:25:35Z</time>
      </trkpt>
      <trkpt lat="43.44275" lon="1.60811">
        <ele>169</ele>
        <time>2017-11-11T10:25:51Z</time>
      </trkpt>
      <trkpt lat="43.44268" lon="1.60816">
        <ele>169</ele>
        <time>2017-11-11T10:25:51Z</time>
      </trkpt>
      <trkpt lat="43.44264" lon="1.6082">
        <ele>169</ele>
        <time>2017-11-11T10:25:51Z</time>
      </trkpt>
      <trkpt lat="43.44259" lon="1.60826">
        <ele>169</ele>
        <time>2017-11-11T10:25:51Z</time>
      </trkpt>
      <trkpt lat="43.44255" lon="1.60831">
        <ele>169</ele>
        <time>2017-11-11T10:26:07Z</time>
      </trkpt>
      <trkpt lat="43.44251" lon="1.60834">
        <ele>169</ele>
        <time>2017-11-11T10:26:07Z</time>
      </trkpt>
      <trkpt lat="43.4425" lon="1.60837">
        <ele>169</ele>
        <time>2017-11-11T10:26:07Z</time>
      </trkpt>
      <trkpt lat="43.44248" lon="1.60842">
        <ele>169</ele>
        <time>2017-11-11T10:26:07Z</time>
      </trkpt>
      <trkpt lat="43.44244" lon="1.60849">
        <ele>169</ele>
        <time>2017-11-11T10:26:23Z</time>
      </trkpt>
      <trkpt lat="43.4424" lon="1.60854">
        <ele>169</ele>
        <time>2017-11-11T10:26:23Z</time>
      </trkpt>
      <trkpt lat="43.44236" lon="1.60859">
        <ele>169</ele>
        <time>2017-11-11T10:26:23Z</time>
      </trkpt>
      <trkpt lat="43.44232" lon="1.60863">
        <ele>169</ele>
        <time>2017-11-11T10:26:23Z</time>
      </trkpt>
      <trkpt lat="43.44227" lon="1.60869">
        <ele>169</ele>
        <time>2017-11-11T10:26:39Z</time>
      </trkpt>
      <trkpt lat="43.44222" lon="1.60874">
        <ele>169</ele>
        <time>2017-11-11T10:26:39Z</time>
      </trkpt>
      <trkpt lat="43.44215" lon="1.60883">
        <ele>161</ele>
        <time>2017-11-11T10:26:39Z</time>
      </trkpt>
      <trkpt lat="43.44212" lon="1.60887">
        <ele>161</ele>
        <time>2017-11-11T10:26:39Z</time>
      </trkpt>
      <trkpt lat="43.44208" lon="1.60893">
        <ele>165</ele>
        <time>2017-11-11T10:26:55Z</time>
      </trkpt>
      <trkpt lat="43.44202" lon="1.609">
        <ele>165</ele>
        <time>2017-11-11T10:26:55Z</time>
      </trkpt>
      <trkpt lat="43.44198" lon="1.60905">
        <ele>165</ele>
        <time>2017-11-11T10:26:55Z</time>
      </trkpt>
      <trkpt lat="43.44196" lon="1.6091">
        <ele>165</ele>
        <time>2017-11-11T10:26:55Z</time>
      </trkpt>
      <trkpt lat="43.44193" lon="1.60918">
        <ele>165</ele>
        <time>2017-11-11T10:27:11Z</time>
      </trkpt>
      <trkpt lat="43.44191" lon="1.60922">
        <ele>165</ele>
        <time>2017-11-11T10:27:11Z</time>
      </trkpt>
      <trkpt lat="43.44186" lon="1.60929">
        <ele>165</ele>
        <time>2017-11-11T10:27:11Z</time>
      </trkpt>
      <trkpt lat="43.44182" lon="1.60939">
        <ele>165</ele>
        <time>2017-11-11T10:27:11Z</time>
      </trkpt>
      <trkpt lat="43.4418" lon="1.60944">
        <ele>165</ele>
        <time>2017-11-11T10:27:27Z</time>
      </trkpt>
      <trkpt lat="43.44177" lon="1.60952">
        <ele>165</ele>
        <time>2017-11-11T10:27:27Z</time>
      </trkpt>
      <trkpt lat="43.44176" lon="1.60958">
        <ele>165</ele>
        <time>2017-11-11T10:27:27Z</time>
      </trkpt>
      <trkpt lat="43.44173" lon="1.60963">
        <ele>162</ele>
        <time>2017-11-11T10:27:27Z</time>
      </trkpt>
      <trkpt lat="43.44171" lon="1.60969">
        <ele>162</ele>
        <time>2017-11-11T10:27:43Z</time>
      </trkpt>
      <trkpt lat="43.44167" lon="1.60974">
        <ele>162</ele>
        <time>2017-11-11T10:27:43Z</time>
      </trkpt>
      <trkpt lat="43.44163" lon="1.60979">
        <ele>162</ele>
        <time>2017-11-11T10:27:43Z</time>
      </trkpt>
      <trkpt lat="43.44161" lon="1.60985">
        <ele>162</ele>
        <time>2017-11-11T10:27:43Z</time>
      </trkpt>
      <trkpt lat="43.4416" lon="1.60992">
        <ele>162</ele>
        <time>2017-11-11T10:27:59Z</time>
      </trkpt>
      <trkpt lat="43.44157" lon="1.60998">
        <ele>162</ele>
        <time>2017-11-11T10:27:59Z</time>
      </trkpt>
      <trkpt lat="43.44153" lon="1.61005">
        <ele>162</ele>
        <time>2017-11-11T10:27:59Z</time>
      </trkpt>
      <trkpt lat="43.4415" lon="1.61012">
        <ele>162</ele>
        <time>2017-11-11T10:27:59Z</time>
      </trkpt>
      <trkpt lat="43.44148" lon="1.6102">
        <ele>162</ele>
        <time>2017-11-11T10:28:15Z</time>
      </trkpt>
      <trkpt lat="43.44145" lon="1.61026">
        <ele>162</ele>
        <time>2017-11-11T10:28:15Z</time>
      </trkpt>
      <trkpt lat="43.44142" lon="1.61032">
        <ele>162</ele>
        <time>2017-11-11T10:28:15Z</time>
      </trkpt>
      <trkpt lat="43.44141" lon="1.61036">
        <ele>162</ele>
        <time>2017-11-11T10:28:15Z</time>
      </trkpt>
      <trkpt lat="43.44139" lon="1.61043">
        <ele>160</ele>
        <time>2017-11-11T10:28:31Z</time>
      </trkpt>
      <trkpt lat="43.44138" lon="1.61046">
        <ele>160</ele>
        <time>2017-11-11T10:28:31Z</time>
      </trkpt>
      <trkpt lat="43.44134" lon="1.6105">
        <ele>160</ele>
        <time>2017-11-11T10:28:31Z</time>
      </trkpt>
      <trkpt lat="43.44132" lon="1.61056">
        <ele>160</ele>
        <time>2017-11-11T10:28:31Z</time>
      </trkpt>
      <trkpt lat="43.4413" lon="1.61061">
        <ele>160</ele>
        <time>2017-11-11T10:28:47Z</time>
      </trkpt>
      <trkpt lat="43.44129" lon="1.61065">
        <ele>160</ele>
        <time>2017-11-11T10:28:47Z</time>
      </trkpt>
      <trkpt lat="43.44128" lon="1.6107">
        <ele>160</ele>
        <time>2017-11-11T10:28:47Z</time>
      </trkpt>
      <trkpt lat="43.44127" lon="1.61075">
        <ele>160</ele>
        <time>2017-11-11T10:28:47Z</time>
      </trkpt>
      <trkpt lat="43.44126" lon="1.61078">
        <ele>160</ele>
        <time>2017-11-11T10:29:03Z</time>
      </trkpt>
      <trkpt lat="43.44124" lon="1.61085">
        <ele>164</ele>
        <time>2017-11-11T10:29:03Z</time>
      </trkpt>
      <trkpt lat="43.44122" lon="1.61088">
        <ele>164</ele>
        <time>2017-11-11T10:29:03Z</time>
      </trkpt>
      <trkpt lat="43.44121" lon="1.61095">
        <ele>164</ele>
        <time>2017-11-11T10:29:03Z</time>
      </trkpt>
      <trkpt lat="43.44118" lon="1.61103">
        <ele>164</ele>
        <time>2017-11-11T10:29:19Z</time>
      </trkpt>
      <trkpt lat="43.44115" lon="1.61116">
        <ele>164</ele>
        <time>2017-11-11T10:29:19Z</time>
      </trkpt>
      <trkpt lat="43.44113" lon="1.61119">
        <ele>164</ele>
        <time>2017-11-11T10:29:19Z</time>
      </trkpt>
      <trkpt lat="43.4411" lon="1.61125">
        <ele>164</ele>
        <time>2017-11-11T10:29:19Z</time>
      </trkpt>
      <trkpt lat="43.44109" lon="1.61128">
        <ele>162</ele>
        <time>2017-11-11T10:29:35Z</time>
      </trkpt>
      <trkpt lat="43.44105" lon="1.61132">
        <ele>162</ele>
        <time>2017-11-11T10:29:35Z</time>
      </trkpt>
      <trkpt lat="43.44103" lon="1.61139">
        <ele>162</ele>
        <time>2017-11-11T10:29:35Z</time>
      </trkpt>
      <trkpt lat="43.44101" lon="1.61144">
        <ele>162</ele>
        <time>2017-11-11T10:29:35Z</time>
      </trkpt>
      <trkpt lat="43.44098" lon="1.61151">
        <ele>162</ele>
        <time>2017-11-11T10:29:51Z</time>
      </trkpt>
      <trkpt lat="43.44093" lon="1.6116">
        <ele>162</ele>
        <time>2017-11-11T10:29:51Z</time>
      </trkpt>
      <trkpt lat="43.44091" lon="1.61164">
        <ele>162</ele>
        <time>2017-11-11T10:29:51Z</time>
      </trkpt>
      <trkpt lat="43.44088" lon="1.61169">
        <ele>162</ele>
        <time>2017-11-11T10:29:51Z</time>
      </trkpt>
      <trkpt lat="43.44084" lon="1.61177">
        <ele>162</ele>
        <time>2017-11-11T10:30:07Z</time>
      </trkpt>
      <trkpt lat="43.44081" lon="1.61182">
        <ele>162</ele>
        <time>2017-11-11T10:30:07Z</time>
      </trkpt>
      <trkpt lat="43.44078" lon="1.61188">
        <ele>162</ele>
        <time>2017-11-11T10:30:07Z</time>
      </trkpt>
      <trkpt lat="43.44076" lon="1.61192">
        <ele>162</ele>
        <time>2017-11-11T10:30:07Z</time>
      </trkpt>
      <trkpt lat="43.44073" lon="1.61195">
        <ele>162</ele>
        <time>2017-11-11T10:30:23Z</time>
      </trkpt>
      <trkpt lat="43.44067" lon="1.61201">
        <ele>162</ele>
        <time>2017-11-11T10:30:23Z</time>
      </trkpt>
      <trkpt lat="43.44064" lon="1.61205">
        <ele>162</ele>
        <time>2017-11-11T10:30:23Z</time>
      </trkpt>
      <trkpt lat="43.44059" lon="1.6121">
        <ele>161</ele>
        <time>2017-11-11T10:30:23Z</time>
      </trkpt>
      <trkpt lat="43.44052" lon="1.61216">
        <ele>161</ele>
        <time>2017-11-11T10:30:40Z</time>
      </trkpt>
      <trkpt lat="43.44048" lon="1.61219">
        <ele>161</ele>
        <time>2017-11-11T10:30:40Z</time>
      </trkpt>
      <trkpt lat="43.44043" lon="1.61223">
        <ele>161</ele>
        <time>2017-11-11T10:30:40Z</time>
      </trkpt>
      <trkpt lat="43.44037" lon="1.61227">
        <ele>162</ele>
        <time>2017-11-11T10:30:40Z</time>
      </trkpt>
      <trkpt lat="43.44035" lon="1.6123">
        <ele>162</ele>
        <time>2017-11-11T10:30:55Z</time>
      </trkpt>
      <trkpt lat="43.4403" lon="1.61235">
        <ele>162</ele>
        <time>2017-11-11T10:30:55Z</time>
      </trkpt>
      <trkpt lat="43.44027" lon="1.61237">
        <ele>162</ele>
        <time>2017-11-11T10:30:55Z</time>
      </trkpt>
      <trkpt lat="43.44022" lon="1.61239">
        <ele>162</ele>
        <time>2017-11-11T10:30:55Z</time>
      </trkpt>
      <trkpt lat="43.44018" lon="1.6124">
        <ele>162</ele>
        <time>2017-11-11T10:31:12Z</time>
      </trkpt>
      <trkpt lat="43.44015" lon="1.6124">
        <ele>162</ele>
        <time>2017-11-11T10:31:12Z</time>
      </trkpt>
      <trkpt lat="43.44009" lon="1.61241">
        <ele>162</ele>
        <time>2017-11-11T10:31:12Z</time>
      </trkpt>
      <trkpt lat="43.44002" lon="1.61242">
        <ele>162</ele>
        <time>2017-11-11T10:31:12Z</time>
      </trkpt>
      <trkpt lat="43.43998" lon="1.61242">
        <ele>162</ele>
        <time>2017-11-11T10:31:27Z</time>
      </trkpt>
      <trkpt lat="43.43992" lon="1.61243">
        <ele>162</ele>
        <time>2017-11-11T10:31:27Z</time>
      </trkpt>
      <trkpt lat="43.43988" lon="1.61245">
        <ele>162</ele>
        <time>2017-11-11T10:31:27Z</time>
      </trkpt>
      <trkpt lat="43.43985" lon="1.61245">
        <ele>162</ele>
        <time>2017-11-11T10:31:27Z</time>
      </trkpt>
      <trkpt lat="43.43978" lon="1.61245">
        <ele>162</ele>
        <time>2017-11-11T10:31:43Z</time>
      </trkpt>
      <trkpt lat="43.43974" lon="1.61245">
        <ele>162</ele>
        <time>2017-11-11T10:31:43Z</time>
      </trkpt>
      <trkpt lat="43.43969" lon="1.61247">
        <ele>162</ele>
        <time>2017-11-11T10:31:43Z</time>
      </trkpt>
      <trkpt lat="43.43967" lon="1.61247">
        <ele>162</ele>
        <time>2017-11-11T10:31:43Z</time>
      </trkpt>
      <trkpt lat="43.43965" lon="1.61249">
        <ele>162</ele>
        <time>2017-11-11T10:33:36Z</time>
      </trkpt>
      <trkpt lat="43.43964" lon="1.6125">
        <ele>162</ele>
        <time>2017-11-11T10:33:36Z</time>
      </trkpt>
      <trkpt lat="43.43963" lon="1.6125">
        <ele>162</ele>
        <time>2017-11-11T10:33:36Z</time>
      </trkpt>
      <trkpt lat="43.43959" lon="1.61249">
        <ele>162</ele>
        <time>2017-11-11T10:33:36Z</time>
      </trkpt>
      <trkpt lat="43.43958" lon="1.61249">
        <ele>166</ele>
        <time>2017-11-11T10:33:36Z</time>
      </trkpt>
      <trkpt lat="43.43961" lon="1.6125">
        <ele>162</ele>
        <time>2017-11-11T10:34:19Z</time>
      </trkpt>
      <trkpt lat="43.43962" lon="1.61249">
        <ele>162</ele>
        <time>2017-11-11T10:34:19Z</time>
      </trkpt>
      <trkpt lat="43.43965" lon="1.6125">
        <ele>162</ele>
        <time>2017-11-11T10:34:19Z</time>
      </trkpt>
      <trkpt lat="43.43966" lon="1.6125">
        <ele>162</ele>
        <time>2017-11-11T10:34:19Z</time>
      </trkpt>
      <trkpt lat="43.43967" lon="1.61252">
        <ele>162</ele>
        <time>2017-11-11T10:34:19Z</time>
      </trkpt>
      <trkpt lat="43.43961" lon="1.61253">
        <ele>162</ele>
        <time>2017-11-11T10:38:07Z</time>
      </trkpt>
      <trkpt lat="43.43961" lon="1.61251">
        <ele>162</ele>
        <time>2017-11-11T10:38:07Z</time>
      </trkpt>
      <trkpt lat="43.43961" lon="1.61249">
        <ele>162</ele>
        <time>2017-11-11T10:38:07Z</time>
      </trkpt>
      <trkpt lat="43.43961" lon="1.61248">
        <ele>162</ele>
        <time>2017-11-11T10:38:07Z</time>
      </trkpt>
      <trkpt lat="43.4396" lon="1.61247">
        <ele>162</ele>
        <time>2017-11-11T10:38:07Z</time>
      </trkpt>
      <trkpt lat="43.43959" lon="1.61244">
        <ele>162</ele>
        <time>2017-11-11T10:38:23Z</time>
      </trkpt>
      <trkpt lat="43.43957" lon="1.61242">
        <ele>166</ele>
        <time>2017-11-11T10:38:23Z</time>
      </trkpt>
      <trkpt lat="43.43954" lon="1.61238">
        <ele>166</ele>
        <time>2017-11-11T10:38:24Z</time>
      </trkpt>
      <trkpt lat="43.4395" lon="1.61232">
        <ele>166</ele>
        <time>2017-11-11T10:38:24Z</time>
      </trkpt>
      <trkpt lat="43.43946" lon="1.61228">
        <ele>166</ele>
        <time>2017-11-11T10:38:39Z</time>
      </trkpt>
      <trkpt lat="43.4394" lon="1.61224">
        <ele>166</ele>
        <time>2017-11-11T10:38:39Z</time>
      </trkpt>
      <trkpt lat="43.43935" lon="1.61223">
        <ele>166</ele>
        <time>2017-11-11T10:38:39Z</time>
      </trkpt>
      <trkpt lat="43.43929" lon="1.61224">
        <ele>166</ele>
        <time>2017-11-11T10:38:39Z</time>
      </trkpt>
      <trkpt lat="43.43923" lon="1.61227">
        <ele>166</ele>
        <time>2017-11-11T10:38:55Z</time>
      </trkpt>
      <trkpt lat="43.43919" lon="1.6123">
        <ele>166</ele>
        <time>2017-11-11T10:38:56Z</time>
      </trkpt>
      <trkpt lat="43.43914" lon="1.61232">
        <ele>166</ele>
        <time>2017-11-11T10:38:56Z</time>
      </trkpt>
      <trkpt lat="43.43909" lon="1.61236">
        <ele>166</ele>
        <time>2017-11-11T10:38:56Z</time>
      </trkpt>
      <trkpt lat="43.43905" lon="1.61238">
        <ele>166</ele>
        <time>2017-11-11T10:39:11Z</time>
      </trkpt>
      <trkpt lat="43.439" lon="1.61239">
        <ele>166</ele>
        <time>2017-11-11T10:39:11Z</time>
      </trkpt>
      <trkpt lat="43.43895" lon="1.61243">
        <ele>166</ele>
        <time>2017-11-11T10:39:11Z</time>
      </trkpt>
      <trkpt lat="43.43893" lon="1.61246">
        <ele>166</ele>
        <time>2017-11-11T10:39:11Z</time>
      </trkpt>
      <trkpt lat="43.43887" lon="1.61249">
        <ele>166</ele>
        <time>2017-11-11T10:39:27Z</time>
      </trkpt>
      <trkpt lat="43.43884" lon="1.61251">
        <ele>166</ele>
        <time>2017-11-11T10:39:28Z</time>
      </trkpt>
      <trkpt lat="43.43878" lon="1.61252">
        <ele>166</ele>
        <time>2017-11-11T10:39:28Z</time>
      </trkpt>
      <trkpt lat="43.43872" lon="1.61256">
        <ele>170</ele>
        <time>2017-11-11T10:39:28Z</time>
      </trkpt>
      <trkpt lat="43.4387" lon="1.61258">
        <ele>170</ele>
        <time>2017-11-11T10:39:43Z</time>
      </trkpt>
      <trkpt lat="43.43865" lon="1.6126">
        <ele>170</ele>
        <time>2017-11-11T10:39:43Z</time>
      </trkpt>
      <trkpt lat="43.43859" lon="1.61264">
        <ele>170</ele>
        <time>2017-11-11T10:39:43Z</time>
      </trkpt>
      <trkpt lat="43.43856" lon="1.61266">
        <ele>170</ele>
        <time>2017-11-11T10:39:43Z</time>
      </trkpt>
      <trkpt lat="43.43853" lon="1.61268">
        <ele>170</ele>
        <time>2017-11-11T10:39:59Z</time>
      </trkpt>
      <trkpt lat="43.4385" lon="1.61272">
        <ele>170</ele>
        <time>2017-11-11T10:40:00Z</time>
      </trkpt>
      <trkpt lat="43.43847" lon="1.61273">
        <ele>170</ele>
        <time>2017-11-11T10:40:00Z</time>
      </trkpt>
      <trkpt lat="43.43841" lon="1.61277">
        <ele>170</ele>
        <time>2017-11-11T10:40:00Z</time>
      </trkpt>
      <trkpt lat="43.43838" lon="1.6128">
        <ele>170</ele>
        <time>2017-11-11T10:40:15Z</time>
      </trkpt>
      <trkpt lat="43.43835" lon="1.61284">
        <ele>170</ele>
        <time>2017-11-11T10:40:15Z</time>
      </trkpt>
      <trkpt lat="43.4383" lon="1.61288">
        <ele>170</ele>
        <time>2017-11-11T10:40:15Z</time>
      </trkpt>
      <trkpt lat="43.43827" lon="1.61291">
        <ele>170</ele>
        <time>2017-11-11T10:40:15Z</time>
      </trkpt>
      <trkpt lat="43.43824" lon="1.61295">
        <ele>171</ele>
        <time>2017-11-11T10:40:31Z</time>
      </trkpt>
      <trkpt lat="43.4382" lon="1.61301">
        <ele>171</ele>
        <time>2017-11-11T10:40:31Z</time>
      </trkpt>
      <trkpt lat="43.43817" lon="1.61303">
        <ele>171</ele>
        <time>2017-11-11T10:40:31Z</time>
      </trkpt>
      <trkpt lat="43.43814" lon="1.61308">
        <ele>171</ele>
        <time>2017-11-11T10:40:31Z</time>
      </trkpt>
      <trkpt lat="43.4381" lon="1.61313">
        <ele>171</ele>
        <time>2017-11-11T10:40:47Z</time>
      </trkpt>
      <trkpt lat="43.43807" lon="1.61316">
        <ele>171</ele>
        <time>2017-11-11T10:40:47Z</time>
      </trkpt>
      <trkpt lat="43.43803" lon="1.61322">
        <ele>171</ele>
        <time>2017-11-11T10:40:47Z</time>
      </trkpt>
      <trkpt lat="43.43801" lon="1.61326">
        <ele>171</ele>
        <time>2017-11-11T10:40:47Z</time>
      </trkpt>
      <trkpt lat="43.43798" lon="1.61332">
        <ele>171</ele>
        <time>2017-11-11T10:41:03Z</time>
      </trkpt>
      <trkpt lat="43.43792" lon="1.61336">
        <ele>171</ele>
        <time>2017-11-11T10:41:03Z</time>
      </trkpt>
      <trkpt lat="43.43789" lon="1.61339">
        <ele>170</ele>
        <time>2017-11-11T10:41:03Z</time>
      </trkpt>
      <trkpt lat="43.43787" lon="1.61345">
        <ele>170</ele>
        <time>2017-11-11T10:41:03Z</time>
      </trkpt>
      <trkpt lat="43.43784" lon="1.61351">
        <ele>170</ele>
        <time>2017-11-11T10:41:19Z</time>
      </trkpt>
      <trkpt lat="43.4378" lon="1.61354">
        <ele>170</ele>
        <time>2017-11-11T10:41:19Z</time>
      </trkpt>
      <trkpt lat="43.43774" lon="1.61357">
        <ele>170</ele>
        <time>2017-11-11T10:41:19Z</time>
      </trkpt>
      <trkpt lat="43.43769" lon="1.61362">
        <ele>170</ele>
        <time>2017-11-11T10:41:19Z</time>
      </trkpt>
      <trkpt lat="43.43766" lon="1.61366">
        <ele>170</ele>
        <time>2017-11-11T10:41:35Z</time>
      </trkpt>
      <trkpt lat="43.43762" lon="1.61371">
        <ele>170</ele>
        <time>2017-11-11T10:41:35Z</time>
      </trkpt>
      <trkpt lat="43.43759" lon="1.61376">
        <ele>170</ele>
        <time>2017-11-11T10:41:35Z</time>
      </trkpt>
      <trkpt lat="43.43756" lon="1.6138">
        <ele>170</ele>
        <time>2017-11-11T10:41:35Z</time>
      </trkpt>
      <trkpt lat="43.43752" lon="1.61387">
        <ele>170</ele>
        <time>2017-11-11T10:41:51Z</time>
      </trkpt>
      <trkpt lat="43.4375" lon="1.61391">
        <ele>170</ele>
        <time>2017-11-11T10:41:52Z</time>
      </trkpt>
      <trkpt lat="43.43747" lon="1.61396">
        <ele>170</ele>
        <time>2017-11-11T10:41:52Z</time>
      </trkpt>
      <trkpt lat="43.43741" lon="1.61401">
        <ele>170</ele>
        <time>2017-11-11T10:41:52Z</time>
      </trkpt>
      <trkpt lat="43.43739" lon="1.61404">
        <ele>170</ele>
        <time>2017-11-11T10:42:07Z</time>
      </trkpt>
      <trkpt lat="43.43735" lon="1.61408">
        <ele>170</ele>
        <time>2017-11-11T10:42:07Z</time>
      </trkpt>
      <trkpt lat="43.43732" lon="1.61411">
        <ele>170</ele>
        <time>2017-11-11T10:42:07Z</time>
      </trkpt>
      <trkpt lat="43.43726" lon="1.61412">
        <ele>170</ele>
        <time>2017-11-11T10:42:07Z</time>
      </trkpt>
      <trkpt lat="43.43719" lon="1.61413">
        <ele>170</ele>
        <time>2017-11-11T10:42:23Z</time>
      </trkpt>
      <trkpt lat="43.43715" lon="1.61412">
        <ele>170</ele>
        <time>2017-11-11T10:42:24Z</time>
      </trkpt>
      <trkpt lat="43.4371" lon="1.61412">
        <ele>170</ele>
        <time>2017-11-11T10:42:24Z</time>
      </trkpt>
      <trkpt lat="43.43703" lon="1.6141">
        <ele>172</ele>
        <time>2017-11-11T10:42:24Z</time>
      </trkpt>
      <trkpt lat="43.43699" lon="1.61409">
        <ele>172</ele>
        <time>2017-11-11T10:42:39Z</time>
      </trkpt>
      <trkpt lat="43.43696" lon="1.61411">
        <ele>172</ele>
        <time>2017-11-11T10:42:39Z</time>
      </trkpt>
      <trkpt lat="43.43692" lon="1.61412">
        <ele>172</ele>
        <time>2017-11-11T10:42:39Z</time>
      </trkpt>
      <trkpt lat="43.43689" lon="1.61412">
        <ele>172</ele>
        <time>2017-11-11T10:42:39Z</time>
      </trkpt>
      <trkpt lat="43.43681" lon="1.61412">
        <ele>172</ele>
        <time>2017-11-11T10:42:55Z</time>
      </trkpt>
      <trkpt lat="43.43676" lon="1.61411">
        <ele>172</ele>
        <time>2017-11-11T10:42:56Z</time>
      </trkpt>
      <trkpt lat="43.4367" lon="1.61409">
        <ele>172</ele>
        <time>2017-11-11T10:42:56Z</time>
      </trkpt>
      <trkpt lat="43.4366" lon="1.61407">
        <ele>172</ele>
        <time>2017-11-11T10:42:56Z</time>
      </trkpt>
      <trkpt lat="43.43656" lon="1.61408">
        <ele>172</ele>
        <time>2017-11-11T10:43:11Z</time>
      </trkpt>
      <trkpt lat="43.43652" lon="1.61408">
        <ele>172</ele>
        <time>2017-11-11T10:43:11Z</time>
      </trkpt>
      <trkpt lat="43.43647" lon="1.61408">
        <ele>172</ele>
        <time>2017-11-11T10:43:11Z</time>
      </trkpt>
      <trkpt lat="43.43644" lon="1.61409">
        <ele>172</ele>
        <time>2017-11-11T10:43:11Z</time>
      </trkpt>
      <trkpt lat="43.43641" lon="1.61411">
        <ele>172</ele>
        <time>2017-11-11T10:43:27Z</time>
      </trkpt>
      <trkpt lat="43.43636" lon="1.61412">
        <ele>172</ele>
        <time>2017-11-11T10:43:27Z</time>
      </trkpt>
      <trkpt lat="43.43632" lon="1.61411">
        <ele>172</ele>
        <time>2017-11-11T10:43:27Z</time>
      </trkpt>
      <trkpt lat="43.43628" lon="1.6141">
        <ele>172</ele>
        <time>2017-11-11T10:43:27Z</time>
      </trkpt>
      <trkpt lat="43.43625" lon="1.61407">
        <ele>172</ele>
        <time>2017-11-11T10:43:43Z</time>
      </trkpt>
      <trkpt lat="43.43624" lon="1.61402">
        <ele>181</ele>
        <time>2017-11-11T10:43:43Z</time>
      </trkpt>
      <trkpt lat="43.43625" lon="1.61396">
        <ele>181</ele>
        <time>2017-11-11T10:43:43Z</time>
      </trkpt>
      <trkpt lat="43.43626" lon="1.6139">
        <ele>172</ele>
        <time>2017-11-11T10:43:43Z</time>
      </trkpt>
      <trkpt lat="43.43627" lon="1.61385">
        <ele>172</ele>
        <time>2017-11-11T10:43:59Z</time>
      </trkpt>
      <trkpt lat="43.43629" lon="1.6138">
        <ele>172</ele>
        <time>2017-11-11T10:43:59Z</time>
      </trkpt>
      <trkpt lat="43.43631" lon="1.61376">
        <ele>172</ele>
        <time>2017-11-11T10:43:59Z</time>
      </trkpt>
      <trkpt lat="43.43632" lon="1.6137">
        <ele>176</ele>
        <time>2017-11-11T10:43:59Z</time>
      </trkpt>
      <trkpt lat="43.43634" lon="1.61365">
        <ele>176</ele>
        <time>2017-11-11T10:44:15Z</time>
      </trkpt>
      <trkpt lat="43.43636" lon="1.61359">
        <ele>176</ele>
        <time>2017-11-11T10:44:16Z</time>
      </trkpt>
      <trkpt lat="43.43638" lon="1.61354">
        <ele>176</ele>
        <time>2017-11-11T10:44:16Z</time>
      </trkpt>
      <trkpt lat="43.4364" lon="1.61347">
        <ele>176</ele>
        <time>2017-11-11T10:44:16Z</time>
      </trkpt>
      <trkpt lat="43.43641" lon="1.61342">
        <ele>176</ele>
        <time>2017-11-11T10:44:31Z</time>
      </trkpt>
      <trkpt lat="43.43642" lon="1.61335">
        <ele>176</ele>
        <time>2017-11-11T10:44:31Z</time>
      </trkpt>
      <trkpt lat="43.43644" lon="1.61328">
        <ele>176</ele>
        <time>2017-11-11T10:44:31Z</time>
      </trkpt>
      <trkpt lat="43.43645" lon="1.61324">
        <ele>176</ele>
        <time>2017-11-11T10:44:31Z</time>
      </trkpt>
      <trkpt lat="43.43646" lon="1.61318">
        <ele>176</ele>
        <time>2017-11-11T10:44:47Z</time>
      </trkpt>
      <trkpt lat="43.43648" lon="1.6131">
        <ele>176</ele>
        <time>2017-11-11T10:44:48Z</time>
      </trkpt>
      <trkpt lat="43.43649" lon="1.61306">
        <ele>176</ele>
        <time>2017-11-11T10:44:48Z</time>
      </trkpt>
      <trkpt lat="43.43651" lon="1.613">
        <ele>176</ele>
        <time>2017-11-11T10:44:48Z</time>
      </trkpt>
      <trkpt lat="43.43651" lon="1.61296">
        <ele>176</ele>
        <time>2017-11-11T10:45:03Z</time>
      </trkpt>
      <trkpt lat="43.43653" lon="1.61292">
        <ele>176</ele>
        <time>2017-11-11T10:45:03Z</time>
      </trkpt>
      <trkpt lat="43.43654" lon="1.61286">
        <ele>184</ele>
        <time>2017-11-11T10:45:03Z</time>
      </trkpt>
      <trkpt lat="43.43655" lon="1.61282">
        <ele>184</ele>
        <time>2017-11-11T10:45:03Z</time>
      </trkpt>
      <trkpt lat="43.43656" lon="1.61278">
        <ele>184</ele>
        <time>2017-11-11T10:45:19Z</time>
      </trkpt>
      <trkpt lat="43.43657" lon="1.61272">
        <ele>184</ele>
        <time>2017-11-11T10:45:19Z</time>
      </trkpt>
      <trkpt lat="43.43658" lon="1.61268">
        <ele>184</ele>
        <time>2017-11-11T10:45:19Z</time>
      </trkpt>
      <trkpt lat="43.4366" lon="1.61262">
        <ele>184</ele>
        <time>2017-11-11T10:45:19Z</time>
      </trkpt>
      <trkpt lat="43.43662" lon="1.61258">
        <ele>184</ele>
        <time>2017-11-11T10:45:35Z</time>
      </trkpt>
      <trkpt lat="43.43663" lon="1.61253">
        <ele>184</ele>
        <time>2017-11-11T10:45:35Z</time>
      </trkpt>
      <trkpt lat="43.43665" lon="1.61247">
        <ele>184</ele>
        <time>2017-11-11T10:45:35Z</time>
      </trkpt>
      <trkpt lat="43.43666" lon="1.61242">
        <ele>184</ele>
        <time>2017-11-11T10:45:35Z</time>
      </trkpt>
      <trkpt lat="43.43667" lon="1.61237">
        <ele>184</ele>
        <time>2017-11-11T10:45:51Z</time>
      </trkpt>
      <trkpt lat="43.43669" lon="1.6123">
        <ele>184</ele>
        <time>2017-11-11T10:45:51Z</time>
      </trkpt>
      <trkpt lat="43.4367" lon="1.61225">
        <ele>184</ele>
        <time>2017-11-11T10:45:51Z</time>
      </trkpt>
      <trkpt lat="43.43672" lon="1.61219">
        <ele>184</ele>
        <time>2017-11-11T10:45:51Z</time>
      </trkpt>
      <trkpt lat="43.43675" lon="1.61212">
        <ele>184</ele>
        <time>2017-11-11T10:46:07Z</time>
      </trkpt>
      <trkpt lat="43.43676" lon="1.61207">
        <ele>192</ele>
        <time>2017-11-11T10:46:07Z</time>
      </trkpt>
      <trkpt lat="43.43678" lon="1.61199">
        <ele>192</ele>
        <time>2017-11-11T10:46:07Z</time>
      </trkpt>
      <trkpt lat="43.43679" lon="1.61194">
        <ele>192</ele>
        <time>2017-11-11T10:46:07Z</time>
      </trkpt>
      <trkpt lat="43.43681" lon="1.61188">
        <ele>192</ele>
        <time>2017-11-11T10:46:23Z</time>
      </trkpt>
      <trkpt lat="43.43683" lon="1.61179">
        <ele>192</ele>
        <time>2017-11-11T10:46:23Z</time>
      </trkpt>
      <trkpt lat="43.43683" lon="1.61175">
        <ele>192</ele>
        <time>2017-11-11T10:46:23Z</time>
      </trkpt>
      <trkpt lat="43.43684" lon="1.61169">
        <ele>192</ele>
        <time>2017-11-11T10:46:23Z</time>
      </trkpt>
      <trkpt lat="43.43685" lon="1.61161">
        <ele>192</ele>
        <time>2017-11-11T10:46:39Z</time>
      </trkpt>
      <trkpt lat="43.43686" lon="1.61156">
        <ele>192</ele>
        <time>2017-11-11T10:46:40Z</time>
      </trkpt>
      <trkpt lat="43.43687" lon="1.6115">
        <ele>192</ele>
        <time>2017-11-11T10:46:40Z</time>
      </trkpt>
      <trkpt lat="43.43689" lon="1.61142">
        <ele>192</ele>
        <time>2017-11-11T10:46:40Z</time>
      </trkpt>
      <trkpt lat="43.4369" lon="1.61136">
        <ele>192</ele>
        <time>2017-11-11T10:46:55Z</time>
      </trkpt>
      <trkpt lat="43.43693" lon="1.61129">
        <ele>192</ele>
        <time>2017-11-11T10:46:55Z</time>
      </trkpt>
      <trkpt lat="43.43694" lon="1.61124">
        <ele>195</ele>
        <time>2017-11-11T10:46:55Z</time>
      </trkpt>
      <trkpt lat="43.43695" lon="1.61118">
        <ele>195</ele>
        <time>2017-11-11T10:46:55Z</time>
      </trkpt>
      <trkpt lat="43.43698" lon="1.61109">
        <ele>195</ele>
        <time>2017-11-11T10:47:12Z</time>
      </trkpt>
      <trkpt lat="43.43699" lon="1.61103">
        <ele>195</ele>
        <time>2017-11-11T10:47:12Z</time>
      </trkpt>
      <trkpt lat="43.43701" lon="1.61096">
        <ele>195</ele>
        <time>2017-11-11T10:47:12Z</time>
      </trkpt>
      <trkpt lat="43.43704" lon="1.61087">
        <ele>195</ele>
        <time>2017-11-11T10:47:12Z</time>
      </trkpt>
      <trkpt lat="43.43706" lon="1.61082">
        <ele>195</ele>
        <time>2017-11-11T10:47:27Z</time>
      </trkpt>
      <trkpt lat="43.43707" lon="1.61075">
        <ele>195</ele>
        <time>2017-11-11T10:47:27Z</time>
      </trkpt>
      <trkpt lat="43.43709" lon="1.61066">
        <ele>192</ele>
        <time>2017-11-11T10:47:27Z</time>
      </trkpt>
      <trkpt lat="43.4371" lon="1.6106">
        <ele>192</ele>
        <time>2017-11-11T10:47:27Z</time>
      </trkpt>
      <trkpt lat="43.4371" lon="1.61052">
        <ele>192</ele>
        <time>2017-11-11T10:47:44Z</time>
      </trkpt>
      <trkpt lat="43.43709" lon="1.61046">
        <ele>192</ele>
        <time>2017-11-11T10:47:44Z</time>
      </trkpt>
      <trkpt lat="43.43708" lon="1.61039">
        <ele>191</ele>
        <time>2017-11-11T10:47:44Z</time>
      </trkpt>
      <trkpt lat="43.43705" lon="1.61031">
        <ele>191</ele>
        <time>2017-11-11T10:47:44Z</time>
      </trkpt>
      <trkpt lat="43.43703" lon="1.61027">
        <ele>191</ele>
        <time>2017-11-11T10:47:59Z</time>
      </trkpt>
      <trkpt lat="43.437" lon="1.61022">
        <ele>191</ele>
        <time>2017-11-11T10:47:59Z</time>
      </trkpt>
      <trkpt lat="43.43695" lon="1.61015">
        <ele>191</ele>
        <time>2017-11-11T10:47:59Z</time>
      </trkpt>
      <trkpt lat="43.43692" lon="1.61011">
        <ele>191</ele>
        <time>2017-11-11T10:47:59Z</time>
      </trkpt>
      <trkpt lat="43.43688" lon="1.61007">
        <ele>191</ele>
        <time>2017-11-11T10:48:15Z</time>
      </trkpt>
      <trkpt lat="43.43683" lon="1.61">
        <ele>191</ele>
        <time>2017-11-11T10:48:16Z</time>
      </trkpt>
      <trkpt lat="43.4368" lon="1.60996">
        <ele>191</ele>
        <time>2017-11-11T10:48:16Z</time>
      </trkpt>
      <trkpt lat="43.43675" lon="1.6099">
        <ele>191</ele>
        <time>2017-11-11T10:48:16Z</time>
      </trkpt>
      <trkpt lat="43.43672" lon="1.60987">
        <ele>191</ele>
        <time>2017-11-11T10:48:31Z</time>
      </trkpt>
      <trkpt lat="43.43668" lon="1.60982">
        <ele>191</ele>
        <time>2017-11-11T10:48:31Z</time>
      </trkpt>
      <trkpt lat="43.43664" lon="1.60977">
        <ele>191</ele>
        <time>2017-11-11T10:48:31Z</time>
      </trkpt>
      <trkpt lat="43.43661" lon="1.60973">
        <ele>191</ele>
        <time>2017-11-11T10:48:31Z</time>
      </trkpt>
      <trkpt lat="43.43657" lon="1.60968">
        <ele>191</ele>
        <time>2017-11-11T10:48:47Z</time>
      </trkpt>
      <trkpt lat="43.43652" lon="1.60964">
        <ele>191</ele>
        <time>2017-11-11T10:48:47Z</time>
      </trkpt>
      <trkpt lat="43.43649" lon="1.6096">
        <ele>191</ele>
        <time>2017-11-11T10:48:47Z</time>
      </trkpt>
      <trkpt lat="43.43646" lon="1.60954">
        <ele>188</ele>
        <time>2017-11-11T10:48:47Z</time>
      </trkpt>
      <trkpt lat="43.43641" lon="1.60949">
        <ele>188</ele>
        <time>2017-11-11T10:49:03Z</time>
      </trkpt>
      <trkpt lat="43.43638" lon="1.60945">
        <ele>188</ele>
        <time>2017-11-11T10:49:03Z</time>
      </trkpt>
      <trkpt lat="43.43633" lon="1.60939">
        <ele>188</ele>
        <time>2017-11-11T10:49:03Z</time>
      </trkpt>
      <trkpt lat="43.43629" lon="1.60935">
        <ele>188</ele>
        <time>2017-11-11T10:49:03Z</time>
      </trkpt>
      <trkpt lat="43.43626" lon="1.60931">
        <ele>188</ele>
        <time>2017-11-11T10:49:19Z</time>
      </trkpt>
      <trkpt lat="43.43621" lon="1.60925">
        <ele>189</ele>
        <time>2017-11-11T10:49:19Z</time>
      </trkpt>
      <trkpt lat="43.4362" lon="1.60921">
        <ele>189</ele>
        <time>2017-11-11T10:49:19Z</time>
      </trkpt>
      <trkpt lat="43.43622" lon="1.60916">
        <ele>189</ele>
        <time>2017-11-11T10:49:19Z</time>
      </trkpt>
      <trkpt lat="43.43627" lon="1.60911">
        <ele>188</ele>
        <time>2017-11-11T10:49:35Z</time>
      </trkpt>
      <trkpt lat="43.4363" lon="1.60908">
        <ele>188</ele>
        <time>2017-11-11T10:49:36Z</time>
      </trkpt>
      <trkpt lat="43.43632" lon="1.60902">
        <ele>188</ele>
        <time>2017-11-11T10:49:36Z</time>
      </trkpt>
      <trkpt lat="43.43635" lon="1.60894">
        <ele>188</ele>
        <time>2017-11-11T10:49:36Z</time>
      </trkpt>
      <trkpt lat="43.43637" lon="1.60889">
        <ele>188</ele>
        <time>2017-11-11T10:49:51Z</time>
      </trkpt>
      <trkpt lat="43.43641" lon="1.60881">
        <ele>188</ele>
        <time>2017-11-11T10:49:51Z</time>
      </trkpt>
      <trkpt lat="43.43643" lon="1.60876">
        <ele>188</ele>
        <time>2017-11-11T10:49:51Z</time>
      </trkpt>
      <trkpt lat="43.43646" lon="1.6087">
        <ele>185</ele>
        <time>2017-11-11T10:49:51Z</time>
      </trkpt>
      <trkpt lat="43.4365" lon="1.60862">
        <ele>185</ele>
        <time>2017-11-11T10:50:08Z</time>
      </trkpt>
      <trkpt lat="43.43652" lon="1.60858">
        <ele>185</ele>
        <time>2017-11-11T10:50:08Z</time>
      </trkpt>
      <trkpt lat="43.43655" lon="1.60852">
        <ele>185</ele>
        <time>2017-11-11T10:50:08Z</time>
      </trkpt>
      <trkpt lat="43.43659" lon="1.60844">
        <ele>185</ele>
        <time>2017-11-11T10:50:08Z</time>
      </trkpt>
      <trkpt lat="43.43661" lon="1.60839">
        <ele>185</ele>
        <time>2017-11-11T10:50:23Z</time>
      </trkpt>
      <trkpt lat="43.43664" lon="1.60832">
        <ele>185</ele>
        <time>2017-11-11T10:50:23Z</time>
      </trkpt>
      <trkpt lat="43.43667" lon="1.60825">
        <ele>185</ele>
        <time>2017-11-11T10:50:23Z</time>
      </trkpt>
      <trkpt lat="43.43669" lon="1.60821">
        <ele>185</ele>
        <time>2017-11-11T10:50:23Z</time>
      </trkpt>
      <trkpt lat="43.43672" lon="1.60813">
        <ele>185</ele>
        <time>2017-11-11T10:50:39Z</time>
      </trkpt>
      <trkpt lat="43.43674" lon="1.60809">
        <ele>185</ele>
        <time>2017-11-11T10:50:40Z</time>
      </trkpt>
      <trkpt lat="43.43677" lon="1.60803">
        <ele>185</ele>
        <time>2017-11-11T10:50:40Z</time>
      </trkpt>
      <trkpt lat="43.43681" lon="1.60795">
        <ele>185</ele>
        <time>2017-11-11T10:50:40Z</time>
      </trkpt>
      <trkpt lat="43.43683" lon="1.6079">
        <ele>179</ele>
        <time>2017-11-11T10:50:55Z</time>
      </trkpt>
      <trkpt lat="43.43687" lon="1.60783">
        <ele>179</ele>
        <time>2017-11-11T10:50:55Z</time>
      </trkpt>
      <trkpt lat="43.4369" lon="1.60777">
        <ele>179</ele>
        <time>2017-11-11T10:50:55Z</time>
      </trkpt>
      <trkpt lat="43.43692" lon="1.60771">
        <ele>179</ele>
        <time>2017-11-11T10:50:55Z</time>
      </trkpt>
      <trkpt lat="43.43695" lon="1.60764">
        <ele>179</ele>
        <time>2017-11-11T10:51:11Z</time>
      </trkpt>
      <trkpt lat="43.43696" lon="1.6076">
        <ele>179</ele>
        <time>2017-11-11T10:51:12Z</time>
      </trkpt>
      <trkpt lat="43.43698" lon="1.60756">
        <ele>179</ele>
        <time>2017-11-11T10:51:12Z</time>
      </trkpt>
      <trkpt lat="43.43701" lon="1.6075">
        <ele>179</ele>
        <time>2017-11-11T10:51:12Z</time>
      </trkpt>
      <trkpt lat="43.43703" lon="1.60746">
        <ele>179</ele>
        <time>2017-11-11T10:51:27Z</time>
      </trkpt>
      <trkpt lat="43.43705" lon="1.60741">
        <ele>179</ele>
        <time>2017-11-11T10:51:27Z</time>
      </trkpt>
      <trkpt lat="43.43709" lon="1.60734">
        <ele>182</ele>
        <time>2017-11-11T10:51:27Z</time>
      </trkpt>
      <trkpt lat="43.4371" lon="1.6073">
        <ele>182</ele>
        <time>2017-11-11T10:51:27Z</time>
      </trkpt>
      <trkpt lat="43.43713" lon="1.60725">
        <ele>182</ele>
        <time>2017-11-11T10:51:44Z</time>
      </trkpt>
      <trkpt lat="43.43716" lon="1.60718">
        <ele>182</ele>
        <time>2017-11-11T10:51:44Z</time>
      </trkpt>
      <trkpt lat="43.43719" lon="1.60714">
        <ele>182</ele>
        <time>2017-11-11T10:51:44Z</time>
      </trkpt>
      <trkpt lat="43.43722" lon="1.60706">
        <ele>180</ele>
        <time>2017-11-11T10:51:44Z</time>
      </trkpt>
      <trkpt lat="43.43724" lon="1.60701">
        <ele>180</ele>
        <time>2017-11-11T10:51:59Z</time>
      </trkpt>
      <trkpt lat="43.43727" lon="1.60695">
        <ele>180</ele>
        <time>2017-11-11T10:51:59Z</time>
      </trkpt>
      <trkpt lat="43.4373" lon="1.60688">
        <ele>180</ele>
        <time>2017-11-11T10:51:59Z</time>
      </trkpt>
      <trkpt lat="43.43732" lon="1.60683">
        <ele>180</ele>
        <time>2017-11-11T10:51:59Z</time>
      </trkpt>
      <trkpt lat="43.43735" lon="1.60677">
        <ele>180</ele>
        <time>2017-11-11T10:52:15Z</time>
      </trkpt>
      <trkpt lat="43.43738" lon="1.6067">
        <ele>180</ele>
        <time>2017-11-11T10:52:15Z</time>
      </trkpt>
      <trkpt lat="43.4374" lon="1.60665">
        <ele>180</ele>
        <time>2017-11-11T10:52:15Z</time>
      </trkpt>
      <trkpt lat="43.43743" lon="1.60659">
        <ele>180</ele>
        <time>2017-11-11T10:52:15Z</time>
      </trkpt>
      <trkpt lat="43.43745" lon="1.60653">
        <ele>180</ele>
        <time>2017-11-11T10:52:31Z</time>
      </trkpt>
      <trkpt lat="43.43748" lon="1.60647">
        <ele>180</ele>
        <time>2017-11-11T10:52:31Z</time>
      </trkpt>
      <trkpt lat="43.43751" lon="1.60642">
        <ele>180</ele>
        <time>2017-11-11T10:52:31Z</time>
      </trkpt>
      <trkpt lat="43.43754" lon="1.60635">
        <ele>180</ele>
        <time>2017-11-11T10:52:31Z</time>
      </trkpt>
      <trkpt lat="43.43756" lon="1.6063">
        <ele>180</ele>
        <time>2017-11-11T10:52:47Z</time>
      </trkpt>
      <trkpt lat="43.43759" lon="1.60623">
        <ele>177</ele>
        <time>2017-11-11T10:52:47Z</time>
      </trkpt>
      <trkpt lat="43.43761" lon="1.60619">
        <ele>177</ele>
        <time>2017-11-11T10:52:47Z</time>
      </trkpt>
      <trkpt lat="43.43764" lon="1.60613">
        <ele>177</ele>
        <time>2017-11-11T10:52:47Z</time>
      </trkpt>
      <trkpt lat="43.43767" lon="1.60606">
        <ele>177</ele>
        <time>2017-11-11T10:53:03Z</time>
      </trkpt>
      <trkpt lat="43.43769" lon="1.606">
        <ele>177</ele>
        <time>2017-11-11T10:53:03Z</time>
      </trkpt>
      <trkpt lat="43.43772" lon="1.60594">
        <ele>177</ele>
        <time>2017-11-11T10:53:03Z</time>
      </trkpt>
      <trkpt lat="43.43775" lon="1.60587">
        <ele>177</ele>
        <time>2017-11-11T10:53:03Z</time>
      </trkpt>
      <trkpt lat="43.43777" lon="1.60583">
        <ele>177</ele>
        <time>2017-11-11T10:53:19Z</time>
      </trkpt>
      <trkpt lat="43.43779" lon="1.60577">
        <ele>177</ele>
        <time>2017-11-11T10:53:19Z</time>
      </trkpt>
      <trkpt lat="43.43781" lon="1.6057">
        <ele>177</ele>
        <time>2017-11-11T10:53:19Z</time>
      </trkpt>
      <trkpt lat="43.43784" lon="1.60566">
        <ele>177</ele>
        <time>2017-11-11T10:53:19Z</time>
      </trkpt>
      <trkpt lat="43.43787" lon="1.60558">
        <ele>177</ele>
        <time>2017-11-11T10:53:35Z</time>
      </trkpt>
      <trkpt lat="43.43789" lon="1.60553">
        <ele>177</ele>
        <time>2017-11-11T10:53:35Z</time>
      </trkpt>
      <trkpt lat="43.43792" lon="1.60548">
        <ele>180</ele>
        <time>2017-11-11T10:53:35Z</time>
      </trkpt>
      <trkpt lat="43.43794" lon="1.60541">
        <ele>176</ele>
        <time>2017-11-11T10:53:35Z</time>
      </trkpt>
      <trkpt lat="43.43795" lon="1.60537">
        <ele>176</ele>
        <time>2017-11-11T10:53:51Z</time>
      </trkpt>
      <trkpt lat="43.43796" lon="1.60532">
        <ele>176</ele>
        <time>2017-11-11T10:53:51Z</time>
      </trkpt>
      <trkpt lat="43.43798" lon="1.60523">
        <ele>176</ele>
        <time>2017-11-11T10:53:51Z</time>
      </trkpt>
      <trkpt lat="43.43799" lon="1.60518">
        <ele>176</ele>
        <time>2017-11-11T10:53:51Z</time>
      </trkpt>
      <trkpt lat="43.43799" lon="1.6051">
        <ele>176</ele>
        <time>2017-11-11T10:54:07Z</time>
      </trkpt>
      <trkpt lat="43.43799" lon="1.60502">
        <ele>176</ele>
        <time>2017-11-11T10:54:08Z</time>
      </trkpt>
      <trkpt lat="43.438" lon="1.60496">
        <ele>176</ele>
        <time>2017-11-11T10:54:08Z</time>
      </trkpt>
      <trkpt lat="43.43801" lon="1.60487">
        <ele>176</ele>
        <time>2017-11-11T10:54:08Z</time>
      </trkpt>
      <trkpt lat="43.43801" lon="1.60482">
        <ele>176</ele>
        <time>2017-11-11T10:54:23Z</time>
      </trkpt>
      <trkpt lat="43.43802" lon="1.60474">
        <ele>176</ele>
        <time>2017-11-11T10:54:23Z</time>
      </trkpt>
      <trkpt lat="43.43802" lon="1.60465">
        <ele>176</ele>
        <time>2017-11-11T10:54:23Z</time>
      </trkpt>
      <trkpt lat="43.43803" lon="1.6046">
        <ele>176</ele>
        <time>2017-11-11T10:54:23Z</time>
      </trkpt>
      <trkpt lat="43.43804" lon="1.60452">
        <ele>173</ele>
        <time>2017-11-11T10:54:39Z</time>
      </trkpt>
      <trkpt lat="43.43804" lon="1.60445">
        <ele>173</ele>
        <time>2017-11-11T10:54:39Z</time>
      </trkpt>
      <trkpt lat="43.43805" lon="1.60437">
        <ele>173</ele>
        <time>2017-11-11T10:54:39Z</time>
      </trkpt>
      <trkpt lat="43.43806" lon="1.6043">
        <ele>173</ele>
        <time>2017-11-11T10:54:39Z</time>
      </trkpt>
      <trkpt lat="43.43806" lon="1.60422">
        <ele>173</ele>
        <time>2017-11-11T10:54:55Z</time>
      </trkpt>
      <trkpt lat="43.43806" lon="1.60417">
        <ele>173</ele>
        <time>2017-11-11T10:54:55Z</time>
      </trkpt>
      <trkpt lat="43.43807" lon="1.60408">
        <ele>173</ele>
        <time>2017-11-11T10:54:55Z</time>
      </trkpt>
      <trkpt lat="43.43808" lon="1.60403">
        <ele>173</ele>
        <time>2017-11-11T10:54:55Z</time>
      </trkpt>
      <trkpt lat="43.43808" lon="1.60396">
        <ele>173</ele>
        <time>2017-11-11T10:55:11Z</time>
      </trkpt>
      <trkpt lat="43.43809" lon="1.60386">
        <ele>173</ele>
        <time>2017-11-11T10:55:11Z</time>
      </trkpt>
      <trkpt lat="43.43809" lon="1.60381">
        <ele>173</ele>
        <time>2017-11-11T10:55:11Z</time>
      </trkpt>
      <trkpt lat="43.4381" lon="1.60372">
        <ele>170</ele>
        <time>2017-11-11T10:55:11Z</time>
      </trkpt>
      <trkpt lat="43.43811" lon="1.60363">
        <ele>170</ele>
        <time>2017-11-11T10:55:27Z</time>
      </trkpt>
      <trkpt lat="43.43811" lon="1.60359">
        <ele>170</ele>
        <time>2017-11-11T10:55:28Z</time>
      </trkpt>
      <trkpt lat="43.43811" lon="1.60352">
        <ele>170</ele>
        <time>2017-11-11T10:55:28Z</time>
      </trkpt>
      <trkpt lat="43.43811" lon="1.60343">
        <ele>170</ele>
        <time>2017-11-11T10:55:28Z</time>
      </trkpt>
      <trkpt lat="43.43811" lon="1.60338">
        <ele>170</ele>
        <time>2017-11-11T10:55:43Z</time>
      </trkpt>
      <trkpt lat="43.43811" lon="1.6033">
        <ele>170</ele>
        <time>2017-11-11T10:55:43Z</time>
      </trkpt>
      <trkpt lat="43.4381" lon="1.60327">
        <ele>170</ele>
        <time>2017-11-11T10:55:43Z</time>
      </trkpt>
      <trkpt lat="43.43806" lon="1.60324">
        <ele>170</ele>
        <time>2017-11-11T10:55:43Z</time>
      </trkpt>
      <trkpt lat="43.43801" lon="1.60319">
        <ele>170</ele>
        <time>2017-11-11T10:55:59Z</time>
      </trkpt>
      <trkpt lat="43.43798" lon="1.60315">
        <ele>170</ele>
        <time>2017-11-11T10:56:00Z</time>
      </trkpt>
      <trkpt lat="43.43795" lon="1.60311">
        <ele>170</ele>
        <time>2017-11-11T10:56:00Z</time>
      </trkpt>
      <trkpt lat="43.4379" lon="1.60306">
        <ele>168</ele>
        <time>2017-11-11T10:56:00Z</time>
      </trkpt>
      <trkpt lat="43.43788" lon="1.60303">
        <ele>168</ele>
        <time>2017-11-11T10:56:15Z</time>
      </trkpt>
      <trkpt lat="43.43785" lon="1.60298">
        <ele>168</ele>
        <time>2017-11-11T10:56:15Z</time>
      </trkpt>
      <trkpt lat="43.43781" lon="1.60293">
        <ele>168</ele>
        <time>2017-11-11T10:56:15Z</time>
      </trkpt>
      <trkpt lat="43.43779" lon="1.6029">
        <ele>169</ele>
        <time>2017-11-11T10:56:15Z</time>
      </trkpt>
      <trkpt lat="43.43774" lon="1.60287">
        <ele>169</ele>
        <time>2017-11-11T10:56:31Z</time>
      </trkpt>
      <trkpt lat="43.43771" lon="1.60284">
        <ele>169</ele>
        <time>2017-11-11T10:56:31Z</time>
      </trkpt>
      <trkpt lat="43.43768" lon="1.6028">
        <ele>169</ele>
        <time>2017-11-11T10:56:31Z</time>
      </trkpt>
      <trkpt lat="43.43763" lon="1.60275">
        <ele>169</ele>
        <time>2017-11-11T10:56:31Z</time>
      </trkpt>
      <trkpt lat="43.4376" lon="1.60272">
        <ele>169</ele>
        <time>2017-11-11T10:56:47Z</time>
      </trkpt>
      <trkpt lat="43.43756" lon="1.60269">
        <ele>169</ele>
        <time>2017-11-11T10:56:47Z</time>
      </trkpt>
      <trkpt lat="43.43751" lon="1.60265">
        <ele>169</ele>
        <time>2017-11-11T10:56:47Z</time>
      </trkpt>
      <trkpt lat="43.43748" lon="1.60262">
        <ele>169</ele>
        <time>2017-11-11T10:56:47Z</time>
      </trkpt>
      <trkpt lat="43.43743" lon="1.60258">
        <ele>169</ele>
        <time>2017-11-11T10:57:03Z</time>
      </trkpt>
      <trkpt lat="43.43738" lon="1.60255">
        <ele>169</ele>
        <time>2017-11-11T10:57:04Z</time>
      </trkpt>
      <trkpt lat="43.43735" lon="1.60253">
        <ele>169</ele>
        <time>2017-11-11T10:57:04Z</time>
      </trkpt>
      <trkpt lat="43.4373" lon="1.60249">
        <ele>169</ele>
        <time>2017-11-11T10:57:04Z</time>
      </trkpt>
      <trkpt lat="43.43727" lon="1.60246">
        <ele>169</ele>
        <time>2017-11-11T10:57:19Z</time>
      </trkpt>
      <trkpt lat="43.43723" lon="1.60243">
        <ele>169</ele>
        <time>2017-11-11T10:57:19Z</time>
      </trkpt>
      <trkpt lat="43.43717" lon="1.60239">
        <ele>169</ele>
        <time>2017-11-11T10:57:19Z</time>
      </trkpt>
      <trkpt lat="43.43713" lon="1.60237">
        <ele>169</ele>
        <time>2017-11-11T10:57:19Z</time>
      </trkpt>
      <trkpt lat="43.43708" lon="1.60233">
        <ele>171</ele>
        <time>2017-11-11T10:57:35Z</time>
      </trkpt>
      <trkpt lat="43.43702" lon="1.60229">
        <ele>171</ele>
        <time>2017-11-11T10:57:35Z</time>
      </trkpt>
      <trkpt lat="43.43699" lon="1.60226">
        <ele>171</ele>
        <time>2017-11-11T10:57:35Z</time>
      </trkpt>
      <trkpt lat="43.43695" lon="1.60224">
        <ele>171</ele>
        <time>2017-11-11T10:57:35Z</time>
      </trkpt>
      <trkpt lat="43.4369" lon="1.60218">
        <ele>171</ele>
        <time>2017-11-11T10:57:51Z</time>
      </trkpt>
      <trkpt lat="43.43686" lon="1.60215">
        <ele>171</ele>
        <time>2017-11-11T10:57:51Z</time>
      </trkpt>
      <trkpt lat="43.4368" lon="1.60211">
        <ele>171</ele>
        <time>2017-11-11T10:57:51Z</time>
      </trkpt>
      <trkpt lat="43.43676" lon="1.60207">
        <ele>171</ele>
        <time>2017-11-11T10:57:51Z</time>
      </trkpt>
      <trkpt lat="43.43671" lon="1.60202">
        <ele>171</ele>
        <time>2017-11-11T10:58:07Z</time>
      </trkpt>
      <trkpt lat="43.43665" lon="1.60196">
        <ele>171</ele>
        <time>2017-11-11T10:58:07Z</time>
      </trkpt>
      <trkpt lat="43.43662" lon="1.60192">
        <ele>171</ele>
        <time>2017-11-11T10:58:07Z</time>
      </trkpt>
      <trkpt lat="43.43658" lon="1.60187">
        <ele>171</ele>
        <time>2017-11-11T10:58:07Z</time>
      </trkpt>
      <trkpt lat="43.43653" lon="1.60181">
        <ele>171</ele>
        <time>2017-11-11T10:58:23Z</time>
      </trkpt>
      <trkpt lat="43.4365" lon="1.60178">
        <ele>171</ele>
        <time>2017-11-11T10:58:24Z</time>
      </trkpt>
      <trkpt lat="43.43646" lon="1.60175">
        <ele>171</ele>
        <time>2017-11-11T10:58:24Z</time>
      </trkpt>
      <trkpt lat="43.43642" lon="1.60171">
        <ele>171</ele>
        <time>2017-11-11T10:58:24Z</time>
      </trkpt>
      <trkpt lat="43.4364" lon="1.60169">
        <ele>171</ele>
        <time>2017-11-11T10:58:39Z</time>
      </trkpt>
      <trkpt lat="43.43636" lon="1.60165">
        <ele>171</ele>
        <time>2017-11-11T10:58:39Z</time>
      </trkpt>
      <trkpt lat="43.43631" lon="1.60161">
        <ele>171</ele>
        <time>2017-11-11T10:58:39Z</time>
      </trkpt>
      <trkpt lat="43.43627" lon="1.60157">
        <ele>171</ele>
        <time>2017-11-11T10:58:39Z</time>
      </trkpt>
      <trkpt lat="43.43622" lon="1.60152">
        <ele>176</ele>
        <time>2017-11-11T10:58:55Z</time>
      </trkpt>
      <trkpt lat="43.4362" lon="1.60148">
        <ele>176</ele>
        <time>2017-11-11T10:58:55Z</time>
      </trkpt>
      <trkpt lat="43.43616" lon="1.60144">
        <ele>176</ele>
        <time>2017-11-11T10:58:55Z</time>
      </trkpt>
      <trkpt lat="43.43613" lon="1.6014">
        <ele>176</ele>
        <time>2017-11-11T10:58:55Z</time>
      </trkpt>
      <trkpt lat="43.43611" lon="1.60136">
        <ele>176</ele>
        <time>2017-11-11T10:59:11Z</time>
      </trkpt>
      <trkpt lat="43.43611" lon="1.60134">
        <ele>176</ele>
        <time>2017-11-11T10:59:11Z</time>
      </trkpt>
      <trkpt lat="43.43606" lon="1.60129">
        <ele>176</ele>
        <time>2017-11-11T10:59:11Z</time>
      </trkpt>
      <trkpt lat="43.43603" lon="1.60126">
        <ele>176</ele>
        <time>2017-11-11T10:59:11Z</time>
      </trkpt>
      <trkpt lat="43.43599" lon="1.60119">
        <ele>178</ele>
        <time>2017-11-11T10:59:28Z</time>
      </trkpt>
      <trkpt lat="43.43598" lon="1.60114">
        <ele>178</ele>
        <time>2017-11-11T10:59:28Z</time>
      </trkpt>
      <trkpt lat="43.43596" lon="1.60108">
        <ele>178</ele>
        <time>2017-11-11T10:59:28Z</time>
      </trkpt>
      <trkpt lat="43.43599" lon="1.60101">
        <ele>178</ele>
        <time>2017-11-11T10:59:28Z</time>
      </trkpt>
      <trkpt lat="43.43601" lon="1.60098">
        <ele>178</ele>
        <time>2017-11-11T10:59:43Z</time>
      </trkpt>
      <trkpt lat="43.43605" lon="1.60096">
        <ele>178</ele>
        <time>2017-11-11T10:59:43Z</time>
      </trkpt>
      <trkpt lat="43.43612" lon="1.60093">
        <ele>178</ele>
        <time>2017-11-11T10:59:43Z</time>
      </trkpt>
      <trkpt lat="43.43615" lon="1.60091">
        <ele>178</ele>
        <time>2017-11-11T10:59:43Z</time>
      </trkpt>
      <trkpt lat="43.4362" lon="1.60088">
        <ele>178</ele>
        <time>2017-11-11T10:59:59Z</time>
      </trkpt>
      <trkpt lat="43.43627" lon="1.60084">
        <ele>170</ele>
        <time>2017-11-11T11:00:00Z</time>
      </trkpt>
      <trkpt lat="43.43631" lon="1.60082">
        <ele>170</ele>
        <time>2017-11-11T11:00:00Z</time>
      </trkpt>
      <trkpt lat="43.43637" lon="1.60077">
        <ele>170</ele>
        <time>2017-11-11T11:00:00Z</time>
      </trkpt>
      <trkpt lat="43.43641" lon="1.60075">
        <ele>170</ele>
        <time>2017-11-11T11:00:15Z</time>
      </trkpt>
      <trkpt lat="43.43646" lon="1.60073">
        <ele>170</ele>
        <time>2017-11-11T11:00:15Z</time>
      </trkpt>
      <trkpt lat="43.43653" lon="1.60069">
        <ele>170</ele>
        <time>2017-11-11T11:00:15Z</time>
      </trkpt>
      <trkpt lat="43.43656" lon="1.60066">
        <ele>170</ele>
        <time>2017-11-11T11:00:15Z</time>
      </trkpt>
      <trkpt lat="43.43661" lon="1.60063">
        <ele>170</ele>
        <time>2017-11-11T11:00:31Z</time>
      </trkpt>
      <trkpt lat="43.43664" lon="1.60056">
        <ele>170</ele>
        <time>2017-11-11T11:00:31Z</time>
      </trkpt>
      <trkpt lat="43.43665" lon="1.60052">
        <ele>170</ele>
        <time>2017-11-11T11:00:31Z</time>
      </trkpt>
      <trkpt lat="43.43666" lon="1.60048">
        <ele>170</ele>
        <time>2017-11-11T11:00:31Z</time>
      </trkpt>
      <trkpt lat="43.43667" lon="1.60042">
        <ele>170</ele>
        <time>2017-11-11T11:00:47Z</time>
      </trkpt>
      <trkpt lat="43.43668" lon="1.60039">
        <ele>170</ele>
        <time>2017-11-11T11:00:47Z</time>
      </trkpt>
      <trkpt lat="43.4367" lon="1.60033">
        <ele>170</ele>
        <time>2017-11-11T11:00:47Z</time>
      </trkpt>
      <trkpt lat="43.43672" lon="1.60029">
        <ele>170</ele>
        <time>2017-11-11T11:00:47Z</time>
      </trkpt>
      <trkpt lat="43.43673" lon="1.60023">
        <ele>170</ele>
        <time>2017-11-11T11:01:03Z</time>
      </trkpt>
      <trkpt lat="43.43674" lon="1.60018">
        <ele>170</ele>
        <time>2017-11-11T11:01:03Z</time>
      </trkpt>
      <trkpt lat="43.43675" lon="1.60014">
        <ele>170</ele>
        <time>2017-11-11T11:01:03Z</time>
      </trkpt>
      <trkpt lat="43.43676" lon="1.60009">
        <ele>170</ele>
        <time>2017-11-11T11:01:03Z</time>
      </trkpt>
      <trkpt lat="43.43677" lon="1.60001">
        <ele>170</ele>
        <time>2017-11-11T11:01:19Z</time>
      </trkpt>
      <trkpt lat="43.43676" lon="1.59996">
        <ele>170</ele>
        <time>2017-11-11T11:01:19Z</time>
      </trkpt>
      <trkpt lat="43.43674" lon="1.59991">
        <ele>170</ele>
        <time>2017-11-11T11:01:19Z</time>
      </trkpt>
      <trkpt lat="43.43672" lon="1.59983">
        <ele>170</ele>
        <time>2017-11-11T11:01:19Z</time>
      </trkpt>
      <trkpt lat="43.43673" lon="1.59977">
        <ele>170</ele>
        <time>2017-11-11T11:01:35Z</time>
      </trkpt>
      <trkpt lat="43.4367" lon="1.59969">
        <ele>170</ele>
        <time>2017-11-11T11:01:35Z</time>
      </trkpt>
      <trkpt lat="43.43669" lon="1.59965">
        <ele>170</ele>
        <time>2017-11-11T11:01:35Z</time>
      </trkpt>
      <trkpt lat="43.43667" lon="1.59958">
        <ele>170</ele>
        <time>2017-11-11T11:01:35Z</time>
      </trkpt>
      <trkpt lat="43.43664" lon="1.59949">
        <ele>170</ele>
        <time>2017-11-11T11:01:51Z</time>
      </trkpt>
      <trkpt lat="43.43662" lon="1.59943">
        <ele>170</ele>
        <time>2017-11-11T11:01:52Z</time>
      </trkpt>
      <trkpt lat="43.43661" lon="1.59935">
        <ele>170</ele>
        <time>2017-11-11T11:01:52Z</time>
      </trkpt>
      <trkpt lat="43.4366" lon="1.59926">
        <ele>170</ele>
        <time>2017-11-11T11:01:52Z</time>
      </trkpt>
      <trkpt lat="43.43659" lon="1.59924">
        <ele>170</ele>
        <time>2017-11-11T11:02:07Z</time>
      </trkpt>
      <trkpt lat="43.43658" lon="1.59921">
        <ele>170</ele>
        <time>2017-11-11T11:02:07Z</time>
      </trkpt>
      <trkpt lat="43.43656" lon="1.59914">
        <ele>170</ele>
        <time>2017-11-11T11:02:07Z</time>
      </trkpt>
      <trkpt lat="43.43655" lon="1.5991">
        <ele>170</ele>
        <time>2017-11-11T11:02:07Z</time>
      </trkpt>
      <trkpt lat="43.43659" lon="1.59895">
        <ele>170</ele>
        <time>2017-11-11T11:03:32Z</time>
      </trkpt>
      <trkpt lat="43.43659" lon="1.59895">
        <ele>170</ele>
        <time>2017-11-11T11:03:32Z</time>
      </trkpt>
      <trkpt lat="43.4366" lon="1.59893">
        <ele>170</ele>
        <time>2017-11-11T11:03:32Z</time>
      </trkpt>
      <trkpt lat="43.43662" lon="1.59888">
        <ele>170</ele>
        <time>2017-11-11T11:03:32Z</time>
      </trkpt>
      <trkpt lat="43.43665" lon="1.59881">
        <ele>170</ele>
        <time>2017-11-11T11:03:32Z</time>
      </trkpt>
      <trkpt lat="43.43668" lon="1.59878">
        <ele>170</ele>
        <time>2017-11-11T11:03:47Z</time>
      </trkpt>
      <trkpt lat="43.43672" lon="1.59873">
        <ele>170</ele>
        <time>2017-11-11T11:03:47Z</time>
      </trkpt>
      <trkpt lat="43.43675" lon="1.59868">
        <ele>170</ele>
        <time>2017-11-11T11:03:47Z</time>
      </trkpt>
      <trkpt lat="43.43677" lon="1.59862">
        <ele>170</ele>
        <time>2017-11-11T11:03:47Z</time>
      </trkpt>
      <trkpt lat="43.43678" lon="1.59861">
        <ele>170</ele>
        <time>2017-11-11T11:04:07Z</time>
      </trkpt>
      <trkpt lat="43.43679" lon="1.59859">
        <ele>170</ele>
        <time>2017-11-11T11:04:07Z</time>
      </trkpt>
      <trkpt lat="43.43681" lon="1.59857">
        <ele>170</ele>
        <time>2017-11-11T11:04:07Z</time>
      </trkpt>
      <trkpt lat="43.43682" lon="1.59853">
        <ele>170</ele>
        <time>2017-11-11T11:04:07Z</time>
      </trkpt>
      <trkpt lat="43.43684" lon="1.59848">
        <ele>170</ele>
        <time>2017-11-11T11:04:07Z</time>
      </trkpt>
      <trkpt lat="43.43688" lon="1.59842">
        <ele>170</ele>
        <time>2017-11-11T11:04:27Z</time>
      </trkpt>
      <trkpt lat="43.43691" lon="1.59838">
        <ele>170</ele>
        <time>2017-11-11T11:04:27Z</time>
      </trkpt>
      <trkpt lat="43.43693" lon="1.59836">
        <ele>170</ele>
        <time>2017-11-11T11:04:28Z</time>
      </trkpt>
      <trkpt lat="43.43699" lon="1.59824">
        <ele>170</ele>
        <time>2017-11-11T11:04:28Z</time>
      </trkpt>
      <trkpt lat="43.43702" lon="1.59816">
        <ele>170</ele>
        <time>2017-11-11T11:04:44Z</time>
      </trkpt>
      <trkpt lat="43.43704" lon="1.59815">
        <ele>170</ele>
        <time>2017-11-11T11:04:44Z</time>
      </trkpt>
      <trkpt lat="43.43707" lon="1.59811">
        <ele>170</ele>
        <time>2017-11-11T11:04:44Z</time>
      </trkpt>
      <trkpt lat="43.43711" lon="1.59806">
        <ele>172</ele>
        <time>2017-11-11T11:04:44Z</time>
      </trkpt>
      <trkpt lat="43.43715" lon="1.598">
        <ele>172</ele>
        <time>2017-11-11T11:04:59Z</time>
      </trkpt>
      <trkpt lat="43.4372" lon="1.59795">
        <ele>172</ele>
        <time>2017-11-11T11:04:59Z</time>
      </trkpt>
      <trkpt lat="43.43725" lon="1.59784">
        <ele>174</ele>
        <time>2017-11-11T11:04:59Z</time>
      </trkpt>
      <trkpt lat="43.43731" lon="1.59778">
        <ele>174</ele>
        <time>2017-11-11T11:04:59Z</time>
      </trkpt>
      <trkpt lat="43.43735" lon="1.59774">
        <ele>174</ele>
        <time>2017-11-11T11:05:15Z</time>
      </trkpt>
      <trkpt lat="43.4374" lon="1.59772">
        <ele>174</ele>
        <time>2017-11-11T11:05:15Z</time>
      </trkpt>
      <trkpt lat="43.43745" lon="1.5977">
        <ele>174</ele>
        <time>2017-11-11T11:05:15Z</time>
      </trkpt>
      <trkpt lat="43.43749" lon="1.5977">
        <ele>174</ele>
        <time>2017-11-11T11:05:16Z</time>
      </trkpt>
      <trkpt lat="43.43755" lon="1.59767">
        <ele>174</ele>
        <time>2017-11-11T11:05:31Z</time>
      </trkpt>
      <trkpt lat="43.43759" lon="1.59763">
        <ele>174</ele>
        <time>2017-11-11T11:05:31Z</time>
      </trkpt>
      <trkpt lat="43.4376" lon="1.59764">
        <ele>174</ele>
        <time>2017-11-11T11:05:31Z</time>
      </trkpt>
      <trkpt lat="43.43764" lon="1.59762">
        <ele>174</ele>
        <time>2017-11-11T11:05:31Z</time>
      </trkpt>
      <trkpt lat="43.43769" lon="1.5976">
        <ele>174</ele>
        <time>2017-11-11T11:05:47Z</time>
      </trkpt>
      <trkpt lat="43.43774" lon="1.59758">
        <ele>174</ele>
        <time>2017-11-11T11:05:47Z</time>
      </trkpt>
      <trkpt lat="43.43777" lon="1.59763">
        <ele>174</ele>
        <time>2017-11-11T11:05:47Z</time>
      </trkpt>
      <trkpt lat="43.43781" lon="1.59765">
        <ele>174</ele>
        <time>2017-11-11T11:05:47Z</time>
      </trkpt>
      <trkpt lat="43.43784" lon="1.59767">
        <ele>174</ele>
        <time>2017-11-11T11:06:03Z</time>
      </trkpt>
      <trkpt lat="43.43786" lon="1.59768">
        <ele>174</ele>
        <time>2017-11-11T11:06:03Z</time>
      </trkpt>
      <trkpt lat="43.43789" lon="1.59768">
        <ele>174</ele>
        <time>2017-11-11T11:06:03Z</time>
      </trkpt>
      <trkpt lat="43.43794" lon="1.59766">
        <ele>174</ele>
        <time>2017-11-11T11:06:03Z</time>
      </trkpt>
      <trkpt lat="43.43799" lon="1.5976">
        <ele>174</ele>
        <time>2017-11-11T11:06:19Z</time>
      </trkpt>
      <trkpt lat="43.43803" lon="1.59755">
        <ele>174</ele>
        <time>2017-11-11T11:06:19Z</time>
      </trkpt>
      <trkpt lat="43.43807" lon="1.59751">
        <ele>174</ele>
        <time>2017-11-11T11:06:19Z</time>
      </trkpt>
      <trkpt lat="43.43812" lon="1.59751">
        <ele>174</ele>
        <time>2017-11-11T11:06:19Z</time>
      </trkpt>
      <trkpt lat="43.43814" lon="1.59751">
        <ele>174</ele>
        <time>2017-11-11T11:06:35Z</time>
      </trkpt>
      <trkpt lat="43.43816" lon="1.59748">
        <ele>174</ele>
        <time>2017-11-11T11:06:35Z</time>
      </trkpt>
      <trkpt lat="43.43817" lon="1.5974">
        <ele>174</ele>
        <time>2017-11-11T11:06:35Z</time>
      </trkpt>
      <trkpt lat="43.43819" lon="1.59738">
        <ele>174</ele>
        <time>2017-11-11T11:06:35Z</time>
      </trkpt>
      <trkpt lat="43.43819" lon="1.5974">
        <ele>174</ele>
        <time>2017-11-11T11:06:51Z</time>
      </trkpt>
      <trkpt lat="43.43819" lon="1.59737">
        <ele>174</ele>
        <time>2017-11-11T11:06:51Z</time>
      </trkpt>
      <trkpt lat="43.43822" lon="1.59731">
        <ele>174</ele>
        <time>2017-11-11T11:06:51Z</time>
      </trkpt>
      <trkpt lat="43.43823" lon="1.59725">
        <ele>174</ele>
        <time>2017-11-11T11:06:51Z</time>
      </trkpt>
      <trkpt lat="43.43825" lon="1.5972">
        <ele>174</ele>
        <time>2017-11-11T11:07:11Z</time>
      </trkpt>
      <trkpt lat="43.43825" lon="1.59719">
        <ele>174</ele>
        <time>2017-11-11T11:07:11Z</time>
      </trkpt>
      <trkpt lat="43.43823" lon="1.59717">
        <ele>174</ele>
        <time>2017-11-11T11:07:11Z</time>
      </trkpt>
      <trkpt lat="43.4382" lon="1.59713">
        <ele>174</ele>
        <time>2017-11-11T11:07:11Z</time>
      </trkpt>
      <trkpt lat="43.43818" lon="1.59708">
        <ele>174</ele>
        <time>2017-11-11T11:07:11Z</time>
      </trkpt>
      <trkpt lat="43.43817" lon="1.59701">
        <ele>175</ele>
        <time>2017-11-11T11:10:31Z</time>
      </trkpt>
      <trkpt lat="43.43818" lon="1.59698">
        <ele>175</ele>
        <time>2017-11-11T11:10:31Z</time>
      </trkpt>
      <trkpt lat="43.43819" lon="1.59697">
        <ele>175</ele>
        <time>2017-11-11T11:10:31Z</time>
      </trkpt>
      <trkpt lat="43.4382" lon="1.59695">
        <ele>175</ele>
        <time>2017-11-11T11:10:31Z</time>
      </trkpt>
      <trkpt lat="43.43821" lon="1.59692">
        <ele>175</ele>
        <time>2017-11-11T11:10:31Z</time>
      </trkpt>
      <trkpt lat="43.43822" lon="1.59688">
        <ele>175</ele>
        <time>2017-11-11T11:10:47Z</time>
      </trkpt>
      <trkpt lat="43.43825" lon="1.59685">
        <ele>175</ele>
        <time>2017-11-11T11:10:47Z</time>
      </trkpt>
      <trkpt lat="43.43829" lon="1.59678">
        <ele>175</ele>
        <time>2017-11-11T11:10:47Z</time>
      </trkpt>
      <trkpt lat="43.43834" lon="1.59667">
        <ele>175</ele>
        <time>2017-11-11T11:10:47Z</time>
      </trkpt>
      <trkpt lat="43.43837" lon="1.59665">
        <ele>175</ele>
        <time>2017-11-11T11:11:03Z</time>
      </trkpt>
      <trkpt lat="43.43841" lon="1.59667">
        <ele>175</ele>
        <time>2017-11-11T11:11:03Z</time>
      </trkpt>
      <trkpt lat="43.43844" lon="1.59665">
        <ele>175</ele>
        <time>2017-11-11T11:11:03Z</time>
      </trkpt>
      <trkpt lat="43.43847" lon="1.5966">
        <ele>175</ele>
        <time>2017-11-11T11:11:03Z</time>
      </trkpt>
      <trkpt lat="43.43851" lon="1.59652">
        <ele>175</ele>
        <time>2017-11-11T11:11:19Z</time>
      </trkpt>
      <trkpt lat="43.43854" lon="1.59646">
        <ele>175</ele>
        <time>2017-11-11T11:11:19Z</time>
      </trkpt>
      <trkpt lat="43.43856" lon="1.5964">
        <ele>175</ele>
        <time>2017-11-11T11:11:19Z</time>
      </trkpt>
      <trkpt lat="43.43857" lon="1.59637">
        <ele>175</ele>
        <time>2017-11-11T11:11:19Z</time>
      </trkpt>
      <trkpt lat="43.43859" lon="1.59633">
        <ele>175</ele>
        <time>2017-11-11T11:11:35Z</time>
      </trkpt>
      <trkpt lat="43.43863" lon="1.59631">
        <ele>175</ele>
        <time>2017-11-11T11:11:35Z</time>
      </trkpt>
      <trkpt lat="43.43866" lon="1.59626">
        <ele>175</ele>
        <time>2017-11-11T11:11:35Z</time>
      </trkpt>
      <trkpt lat="43.43868" lon="1.59618">
        <ele>180</ele>
        <time>2017-11-11T11:11:35Z</time>
      </trkpt>
      <trkpt lat="43.4387" lon="1.59612">
        <ele>180</ele>
        <time>2017-11-11T11:11:55Z</time>
      </trkpt>
      <trkpt lat="43.43874" lon="1.59608">
        <ele>180</ele>
        <time>2017-11-11T11:11:55Z</time>
      </trkpt>
      <trkpt lat="43.43875" lon="1.59605">
        <ele>178</ele>
        <time>2017-11-11T11:11:55Z</time>
      </trkpt>
      <trkpt lat="43.43876" lon="1.59603">
        <ele>178</ele>
        <time>2017-11-11T11:11:55Z</time>
      </trkpt>
      <trkpt lat="43.43878" lon="1.59597">
        <ele>178</ele>
        <time>2017-11-11T11:11:55Z</time>
      </trkpt>
      <trkpt lat="43.4388" lon="1.59594">
        <ele>178</ele>
        <time>2017-11-11T11:12:11Z</time>
      </trkpt>
      <trkpt lat="43.43884" lon="1.59589">
        <ele>178</ele>
        <time>2017-11-11T11:12:11Z</time>
      </trkpt>
      <trkpt lat="43.43889" lon="1.59586">
        <ele>178</ele>
        <time>2017-11-11T11:12:11Z</time>
      </trkpt>
      <trkpt lat="43.43894" lon="1.59583">
        <ele>178</ele>
        <time>2017-11-11T11:12:11Z</time>
      </trkpt>
      <trkpt lat="43.439" lon="1.59583">
        <ele>178</ele>
        <time>2017-11-11T11:12:27Z</time>
      </trkpt>
      <trkpt lat="43.43905" lon="1.59584">
        <ele>178</ele>
        <time>2017-11-11T11:12:27Z</time>
      </trkpt>
      <trkpt lat="43.43909" lon="1.59583">
        <ele>178</ele>
        <time>2017-11-11T11:12:27Z</time>
      </trkpt>
      <trkpt lat="43.43916" lon="1.5958">
        <ele>178</ele>
        <time>2017-11-11T11:12:27Z</time>
      </trkpt>
      <trkpt lat="43.4392" lon="1.59579">
        <ele>178</ele>
        <time>2017-11-11T11:12:43Z</time>
      </trkpt>
      <trkpt lat="43.43924" lon="1.59583">
        <ele>178</ele>
        <time>2017-11-11T11:12:43Z</time>
      </trkpt>
      <trkpt lat="43.43928" lon="1.59587">
        <ele>178</ele>
        <time>2017-11-11T11:12:43Z</time>
      </trkpt>
      <trkpt lat="43.43931" lon="1.59585">
        <ele>178</ele>
        <time>2017-11-11T11:12:43Z</time>
      </trkpt>
      <trkpt lat="43.43939" lon="1.59582">
        <ele>178</ele>
        <time>2017-11-11T11:12:59Z</time>
      </trkpt>
      <trkpt lat="43.43943" lon="1.59581">
        <ele>178</ele>
        <time>2017-11-11T11:13:00Z</time>
      </trkpt>
      <trkpt lat="43.43948" lon="1.59577">
        <ele>178</ele>
        <time>2017-11-11T11:13:00Z</time>
      </trkpt>
      <trkpt lat="43.43953" lon="1.59572">
        <ele>178</ele>
        <time>2017-11-11T11:13:00Z</time>
      </trkpt>
      <trkpt lat="43.43956" lon="1.5957">
        <ele>178</ele>
        <time>2017-11-11T11:13:15Z</time>
      </trkpt>
      <trkpt lat="43.43961" lon="1.59567">
        <ele>180</ele>
        <time>2017-11-11T11:13:15Z</time>
      </trkpt>
      <trkpt lat="43.43965" lon="1.59562">
        <ele>180</ele>
        <time>2017-11-11T11:13:15Z</time>
      </trkpt>
      <trkpt lat="43.43967" lon="1.59558">
        <ele>180</ele>
        <time>2017-11-11T11:13:15Z</time>
      </trkpt>
      <trkpt lat="43.4397" lon="1.59552">
        <ele>180</ele>
        <time>2017-11-11T11:13:31Z</time>
      </trkpt>
      <trkpt lat="43.43974" lon="1.59545">
        <ele>180</ele>
        <time>2017-11-11T11:13:31Z</time>
      </trkpt>
      <trkpt lat="43.43977" lon="1.59541">
        <ele>178</ele>
        <time>2017-11-11T11:13:31Z</time>
      </trkpt>
      <trkpt lat="43.43981" lon="1.59533">
        <ele>178</ele>
        <time>2017-11-11T11:13:32Z</time>
      </trkpt>
      <trkpt lat="43.43982" lon="1.5953">
        <ele>178</ele>
        <time>2017-11-11T11:13:47Z</time>
      </trkpt>
      <trkpt lat="43.43985" lon="1.59528">
        <ele>178</ele>
        <time>2017-11-11T11:13:47Z</time>
      </trkpt>
      <trkpt lat="43.43989" lon="1.59522">
        <ele>178</ele>
        <time>2017-11-11T11:13:47Z</time>
      </trkpt>
      <trkpt lat="43.43991" lon="1.59517">
        <ele>178</ele>
        <time>2017-11-11T11:13:47Z</time>
      </trkpt>
      <trkpt lat="43.43994" lon="1.59515">
        <ele>178</ele>
        <time>2017-11-11T11:14:03Z</time>
      </trkpt>
      <trkpt lat="43.44" lon="1.5951">
        <ele>178</ele>
        <time>2017-11-11T11:14:03Z</time>
      </trkpt>
      <trkpt lat="43.44006" lon="1.59509">
        <ele>178</ele>
        <time>2017-11-11T11:14:03Z</time>
      </trkpt>
      <trkpt lat="43.44015" lon="1.59508">
        <ele>178</ele>
        <time>2017-11-11T11:14:03Z</time>
      </trkpt>
      <trkpt lat="43.44018" lon="1.59498">
        <ele>178</ele>
        <time>2017-11-11T11:14:19Z</time>
      </trkpt>
      <trkpt lat="43.44018" lon="1.5949">
        <ele>178</ele>
        <time>2017-11-11T11:14:19Z</time>
      </trkpt>
      <trkpt lat="43.44021" lon="1.59486">
        <ele>178</ele>
        <time>2017-11-11T11:14:19Z</time>
      </trkpt>
      <trkpt lat="43.44023" lon="1.59482">
        <ele>178</ele>
        <time>2017-11-11T11:14:19Z</time>
      </trkpt>
      <trkpt lat="43.44026" lon="1.59478">
        <ele>178</ele>
        <time>2017-11-11T11:14:35Z</time>
      </trkpt>
      <trkpt lat="43.4403" lon="1.59473">
        <ele>178</ele>
        <time>2017-11-11T11:14:35Z</time>
      </trkpt>
      <trkpt lat="43.44032" lon="1.59471">
        <ele>178</ele>
        <time>2017-11-11T11:14:35Z</time>
      </trkpt>
      <trkpt lat="43.44035" lon="1.59468">
        <ele>178</ele>
        <time>2017-11-11T11:14:35Z</time>
      </trkpt>
      <trkpt lat="43.44035" lon="1.59467">
        <ele>178</ele>
        <time>2017-11-11T11:14:51Z</time>
      </trkpt>
      <trkpt lat="43.44039" lon="1.59463">
        <ele>178</ele>
        <time>2017-11-11T11:14:51Z</time>
      </trkpt>
      <trkpt lat="43.44041" lon="1.59461">
        <ele>178</ele>
        <time>2017-11-11T11:14:51Z</time>
      </trkpt>
      <trkpt lat="43.44044" lon="1.59457">
        <ele>183</ele>
        <time>2017-11-11T11:14:51Z</time>
      </trkpt>
      <trkpt lat="43.44046" lon="1.59455">
        <ele>183</ele>
        <time>2017-11-11T11:15:07Z</time>
      </trkpt>
      <trkpt lat="43.44047" lon="1.59454">
        <ele>183</ele>
        <time>2017-11-11T11:15:07Z</time>
      </trkpt>
      <trkpt lat="43.44051" lon="1.59449">
        <ele>183</ele>
        <time>2017-11-11T11:15:07Z</time>
      </trkpt>
      <trkpt lat="43.44055" lon="1.59443">
        <ele>183</ele>
        <time>2017-11-11T11:15:07Z</time>
      </trkpt>
      <trkpt lat="43.44057" lon="1.5944">
        <ele>183</ele>
        <time>2017-11-11T11:15:23Z</time>
      </trkpt>
      <trkpt lat="43.44059" lon="1.59439">
        <ele>183</ele>
        <time>2017-11-11T11:15:23Z</time>
      </trkpt>
      <trkpt lat="43.44063" lon="1.59434">
        <ele>183</ele>
        <time>2017-11-11T11:15:23Z</time>
      </trkpt>
      <trkpt lat="43.44066" lon="1.5943">
        <ele>183</ele>
        <time>2017-11-11T11:15:23Z</time>
      </trkpt>
      <trkpt lat="43.4407" lon="1.59426">
        <ele>183</ele>
        <time>2017-11-11T11:15:39Z</time>
      </trkpt>
      <trkpt lat="43.44075" lon="1.59422">
        <ele>183</ele>
        <time>2017-11-11T11:15:39Z</time>
      </trkpt>
      <trkpt lat="43.44076" lon="1.59421">
        <ele>183</ele>
        <time>2017-11-11T11:15:39Z</time>
      </trkpt>
      <trkpt lat="43.44078" lon="1.59418">
        <ele>183</ele>
        <time>2017-11-11T11:15:39Z</time>
      </trkpt>
      <trkpt lat="43.4408" lon="1.59417">
        <ele>183</ele>
        <time>2017-11-11T11:16:03Z</time>
      </trkpt>
      <trkpt lat="43.4408" lon="1.59416">
        <ele>183</ele>
        <time>2017-11-11T11:16:03Z</time>
      </trkpt>
      <trkpt lat="43.44083" lon="1.59413">
        <ele>183</ele>
        <time>2017-11-11T11:16:03Z</time>
      </trkpt>
      <trkpt lat="43.44085" lon="1.59411">
        <ele>183</ele>
        <time>2017-11-11T11:16:03Z</time>
      </trkpt>
      <trkpt lat="43.44087" lon="1.59407">
        <ele>183</ele>
        <time>2017-11-11T11:16:03Z</time>
      </trkpt>
      <trkpt lat="43.44092" lon="1.594">
        <ele>183</ele>
        <time>2017-11-11T11:16:35Z</time>
      </trkpt>
      <trkpt lat="43.44092" lon="1.594">
        <ele>183</ele>
        <time>2017-11-11T11:16:35Z</time>
      </trkpt>
      <trkpt lat="43.44093" lon="1.59399">
        <ele>183</ele>
        <time>2017-11-11T11:16:35Z</time>
      </trkpt>
      <trkpt lat="43.44094" lon="1.59399">
        <ele>183</ele>
        <time>2017-11-11T11:16:35Z</time>
      </trkpt>
      <trkpt lat="43.44098" lon="1.59395">
        <ele>183</ele>
        <time>2017-11-11T11:16:35Z</time>
      </trkpt>
      <trkpt lat="43.44101" lon="1.59392">
        <ele>183</ele>
        <time>2017-11-11T11:16:51Z</time>
      </trkpt>
      <trkpt lat="43.44104" lon="1.59388">
        <ele>183</ele>
        <time>2017-11-11T11:16:51Z</time>
      </trkpt>
      <trkpt lat="43.44108" lon="1.59383">
        <ele>183</ele>
        <time>2017-11-11T11:16:51Z</time>
      </trkpt>
      <trkpt lat="43.44112" lon="1.59379">
        <ele>183</ele>
        <time>2017-11-11T11:16:51Z</time>
      </trkpt>
      <trkpt lat="43.44116" lon="1.59376">
        <ele>183</ele>
        <time>2017-11-11T11:17:07Z</time>
      </trkpt>
      <trkpt lat="43.4412" lon="1.59373">
        <ele>188</ele>
        <time>2017-11-11T11:17:07Z</time>
      </trkpt>
      <trkpt lat="43.44122" lon="1.59368">
        <ele>188</ele>
        <time>2017-11-11T11:17:07Z</time>
      </trkpt>
      <trkpt lat="43.44126" lon="1.59363">
        <ele>190</ele>
        <time>2017-11-11T11:17:07Z</time>
      </trkpt>
      <trkpt lat="43.4413" lon="1.59357">
        <ele>190</ele>
        <time>2017-11-11T11:17:23Z</time>
      </trkpt>
      <trkpt lat="43.44132" lon="1.59351">
        <ele>190</ele>
        <time>2017-11-11T11:17:23Z</time>
      </trkpt>
      <trkpt lat="43.44136" lon="1.59346">
        <ele>190</ele>
        <time>2017-11-11T11:17:23Z</time>
      </trkpt>
      <trkpt lat="43.44143" lon="1.59344">
        <ele>190</ele>
        <time>2017-11-11T11:17:23Z</time>
      </trkpt>
      <trkpt lat="43.44149" lon="1.59341">
        <ele>190</ele>
        <time>2017-11-11T11:17:39Z</time>
      </trkpt>
      <trkpt lat="43.44156" lon="1.59337">
        <ele>190</ele>
        <time>2017-11-11T11:17:39Z</time>
      </trkpt>
      <trkpt lat="43.44162" lon="1.59335">
        <ele>190</ele>
        <time>2017-11-11T11:17:39Z</time>
      </trkpt>
      <trkpt lat="43.44167" lon="1.59332">
        <ele>190</ele>
        <time>2017-11-11T11:17:39Z</time>
      </trkpt>
      <trkpt lat="43.44172" lon="1.59329">
        <ele>190</ele>
        <time>2017-11-11T11:17:55Z</time>
      </trkpt>
      <trkpt lat="43.44176" lon="1.59325">
        <ele>190</ele>
        <time>2017-11-11T11:17:55Z</time>
      </trkpt>
      <trkpt lat="43.44181" lon="1.59321">
        <ele>190</ele>
        <time>2017-11-11T11:17:55Z</time>
      </trkpt>
      <trkpt lat="43.44184" lon="1.59314">
        <ele>190</ele>
        <time>2017-11-11T11:17:55Z</time>
      </trkpt>
      <trkpt lat="43.44188" lon="1.59308">
        <ele>190</ele>
        <time>2017-11-11T11:18:11Z</time>
      </trkpt>
      <trkpt lat="43.44193" lon="1.59303">
        <ele>190</ele>
        <time>2017-11-11T11:18:11Z</time>
      </trkpt>
      <trkpt lat="43.44198" lon="1.59299">
        <ele>190</ele>
        <time>2017-11-11T11:18:11Z</time>
      </trkpt>
      <trkpt lat="43.44202" lon="1.59295">
        <ele>190</ele>
        <time>2017-11-11T11:18:11Z</time>
      </trkpt>
      <trkpt lat="43.44205" lon="1.59296">
        <ele>190</ele>
        <time>2017-11-11T11:18:27Z</time>
      </trkpt>
      <trkpt lat="43.44208" lon="1.59296">
        <ele>190</ele>
        <time>2017-11-11T11:18:27Z</time>
      </trkpt>
      <trkpt lat="43.44213" lon="1.59292">
        <ele>192</ele>
        <time>2017-11-11T11:18:27Z</time>
      </trkpt>
      <trkpt lat="43.44216" lon="1.59287">
        <ele>191</ele>
        <time>2017-11-11T11:18:27Z</time>
      </trkpt>
      <trkpt lat="43.44221" lon="1.59284">
        <ele>191</ele>
        <time>2017-11-11T11:18:43Z</time>
      </trkpt>
      <trkpt lat="43.44224" lon="1.59282">
        <ele>191</ele>
        <time>2017-11-11T11:18:43Z</time>
      </trkpt>
      <trkpt lat="43.44227" lon="1.5928">
        <ele>191</ele>
        <time>2017-11-11T11:18:43Z</time>
      </trkpt>
      <trkpt lat="43.44232" lon="1.59274">
        <ele>191</ele>
        <time>2017-11-11T11:18:43Z</time>
      </trkpt>
      <trkpt lat="43.44237" lon="1.59267">
        <ele>191</ele>
        <time>2017-11-11T11:18:59Z</time>
      </trkpt>
      <trkpt lat="43.44241" lon="1.59262">
        <ele>191</ele>
        <time>2017-11-11T11:18:59Z</time>
      </trkpt>
      <trkpt lat="43.44245" lon="1.59257">
        <ele>191</ele>
        <time>2017-11-11T11:18:59Z</time>
      </trkpt>
      <trkpt lat="43.44249" lon="1.59254">
        <ele>191</ele>
        <time>2017-11-11T11:18:59Z</time>
      </trkpt>
      <trkpt lat="43.44253" lon="1.5925">
        <ele>191</ele>
        <time>2017-11-11T11:19:15Z</time>
      </trkpt>
      <trkpt lat="43.44256" lon="1.59245">
        <ele>191</ele>
        <time>2017-11-11T11:19:15Z</time>
      </trkpt>
      <trkpt lat="43.4426" lon="1.59241">
        <ele>191</ele>
        <time>2017-11-11T11:19:15Z</time>
      </trkpt>
      <trkpt lat="43.44263" lon="1.59236">
        <ele>191</ele>
        <time>2017-11-11T11:19:15Z</time>
      </trkpt>
      <trkpt lat="43.44267" lon="1.59231">
        <ele>191</ele>
        <time>2017-11-11T11:19:31Z</time>
      </trkpt>
      <trkpt lat="43.44271" lon="1.59226">
        <ele>191</ele>
        <time>2017-11-11T11:19:31Z</time>
      </trkpt>
      <trkpt lat="43.44275" lon="1.5922">
        <ele>191</ele>
        <time>2017-11-11T11:19:31Z</time>
      </trkpt>
      <trkpt lat="43.44279" lon="1.59216">
        <ele>191</ele>
        <time>2017-11-11T11:19:31Z</time>
      </trkpt>
      <trkpt lat="43.44284" lon="1.5921">
        <ele>191</ele>
        <time>2017-11-11T11:19:47Z</time>
      </trkpt>
      <trkpt lat="43.44288" lon="1.59205">
        <ele>193</ele>
        <time>2017-11-11T11:19:47Z</time>
      </trkpt>
      <trkpt lat="43.44288" lon="1.59198">
        <ele>193</ele>
        <time>2017-11-11T11:19:47Z</time>
      </trkpt>
      <trkpt lat="43.4429" lon="1.59192">
        <ele>193</ele>
        <time>2017-11-11T11:19:47Z</time>
      </trkpt>
      <trkpt lat="43.44291" lon="1.59185">
        <ele>193</ele>
        <time>2017-11-11T11:20:03Z</time>
      </trkpt>
      <trkpt lat="43.4429" lon="1.59179">
        <ele>193</ele>
        <time>2017-11-11T11:20:03Z</time>
      </trkpt>
      <trkpt lat="43.44286" lon="1.59174">
        <ele>193</ele>
        <time>2017-11-11T11:20:03Z</time>
      </trkpt>
      <trkpt lat="43.44283" lon="1.59168">
        <ele>193</ele>
        <time>2017-11-11T11:20:03Z</time>
      </trkpt>
      <trkpt lat="43.4428" lon="1.59163">
        <ele>193</ele>
        <time>2017-11-11T11:20:19Z</time>
      </trkpt>
      <trkpt lat="43.44278" lon="1.59161">
        <ele>193</ele>
        <time>2017-11-11T11:20:19Z</time>
      </trkpt>
      <trkpt lat="43.44275" lon="1.59157">
        <ele>193</ele>
        <time>2017-11-11T11:20:19Z</time>
      </trkpt>
      <trkpt lat="43.4427" lon="1.59151">
        <ele>193</ele>
        <time>2017-11-11T11:20:19Z</time>
      </trkpt>
      <trkpt lat="43.44262" lon="1.59143">
        <ele>193</ele>
        <time>2017-11-11T11:20:35Z</time>
      </trkpt>
      <trkpt lat="43.44259" lon="1.5914">
        <ele>193</ele>
        <time>2017-11-11T11:20:35Z</time>
      </trkpt>
      <trkpt lat="43.44257" lon="1.59134">
        <ele>193</ele>
        <time>2017-11-11T11:20:35Z</time>
      </trkpt>
      <trkpt lat="43.44258" lon="1.59128">
        <ele>193</ele>
        <time>2017-11-11T11:20:35Z</time>
      </trkpt>
      <trkpt lat="43.4426" lon="1.59122">
        <ele>195</ele>
        <time>2017-11-11T11:20:51Z</time>
      </trkpt>
      <trkpt lat="43.44262" lon="1.59118">
        <ele>195</ele>
        <time>2017-11-11T11:20:51Z</time>
      </trkpt>
      <trkpt lat="43.44265" lon="1.59113">
        <ele>195</ele>
        <time>2017-11-11T11:20:51Z</time>
      </trkpt>
      <trkpt lat="43.44269" lon="1.59108">
        <ele>195</ele>
        <time>2017-11-11T11:20:51Z</time>
      </trkpt>
      <trkpt lat="43.44272" lon="1.591">
        <ele>195</ele>
        <time>2017-11-11T11:21:07Z</time>
      </trkpt>
      <trkpt lat="43.44276" lon="1.59097">
        <ele>195</ele>
        <time>2017-11-11T11:21:07Z</time>
      </trkpt>
      <trkpt lat="43.4428" lon="1.59093">
        <ele>195</ele>
        <time>2017-11-11T11:21:07Z</time>
      </trkpt>
      <trkpt lat="43.44284" lon="1.59086">
        <ele>195</ele>
        <time>2017-11-11T11:21:07Z</time>
      </trkpt>
      <trkpt lat="43.44288" lon="1.5908">
        <ele>195</ele>
        <time>2017-11-11T11:21:23Z</time>
      </trkpt>
      <trkpt lat="43.44292" lon="1.59074">
        <ele>193</ele>
        <time>2017-11-11T11:21:23Z</time>
      </trkpt>
      <trkpt lat="43.44295" lon="1.59067">
        <ele>193</ele>
        <time>2017-11-11T11:21:23Z</time>
      </trkpt>
      <trkpt lat="43.44298" lon="1.59061">
        <ele>193</ele>
        <time>2017-11-11T11:21:23Z</time>
      </trkpt>
      <trkpt lat="43.44302" lon="1.59055">
        <ele>193</ele>
        <time>2017-11-11T11:21:39Z</time>
      </trkpt>
      <trkpt lat="43.44304" lon="1.59051">
        <ele>193</ele>
        <time>2017-11-11T11:21:39Z</time>
      </trkpt>
      <trkpt lat="43.44307" lon="1.59045">
        <ele>193</ele>
        <time>2017-11-11T11:21:39Z</time>
      </trkpt>
      <trkpt lat="43.44311" lon="1.5904">
        <ele>193</ele>
        <time>2017-11-11T11:21:39Z</time>
      </trkpt>
      <trkpt lat="43.44314" lon="1.59034">
        <ele>193</ele>
        <time>2017-11-11T11:21:55Z</time>
      </trkpt>
      <trkpt lat="43.44318" lon="1.59029">
        <ele>193</ele>
        <time>2017-11-11T11:21:55Z</time>
      </trkpt>
      <trkpt lat="43.44321" lon="1.59024">
        <ele>193</ele>
        <time>2017-11-11T11:21:55Z</time>
      </trkpt>
      <trkpt lat="43.44324" lon="1.5902">
        <ele>193</ele>
        <time>2017-11-11T11:21:55Z</time>
      </trkpt>
      <trkpt lat="43.44327" lon="1.59015">
        <ele>193</ele>
        <time>2017-11-11T11:22:11Z</time>
      </trkpt>
      <trkpt lat="43.4433" lon="1.5901">
        <ele>193</ele>
        <time>2017-11-11T11:22:11Z</time>
      </trkpt>
      <trkpt lat="43.44333" lon="1.59004">
        <ele>193</ele>
        <time>2017-11-11T11:22:11Z</time>
      </trkpt>
      <trkpt lat="43.44337" lon="1.59">
        <ele>193</ele>
        <time>2017-11-11T11:22:11Z</time>
      </trkpt>
      <trkpt lat="43.44339" lon="1.58994">
        <ele>193</ele>
        <time>2017-11-11T11:22:27Z</time>
      </trkpt>
      <trkpt lat="43.44342" lon="1.58989">
        <ele>193</ele>
        <time>2017-11-11T11:22:27Z</time>
      </trkpt>
      <trkpt lat="43.44344" lon="1.58984">
        <ele>193</ele>
        <time>2017-11-11T11:22:27Z</time>
      </trkpt>
      <trkpt lat="43.44346" lon="1.58978">
        <ele>193</ele>
        <time>2017-11-11T11:22:27Z</time>
      </trkpt>
      <trkpt lat="43.4435" lon="1.58972">
        <ele>193</ele>
        <time>2017-11-11T11:22:43Z</time>
      </trkpt>
      <trkpt lat="43.44354" lon="1.58966">
        <ele>193</ele>
        <time>2017-11-11T11:22:43Z</time>
      </trkpt>
      <trkpt lat="43.44357" lon="1.58962">
        <ele>193</ele>
        <time>2017-11-11T11:22:43Z</time>
      </trkpt>
      <trkpt lat="43.44359" lon="1.58957">
        <ele>194</ele>
        <time>2017-11-11T11:22:43Z</time>
      </trkpt>
      <trkpt lat="43.44362" lon="1.58952">
        <ele>194</ele>
        <time>2017-11-11T11:22:59Z</time>
      </trkpt>
      <trkpt lat="43.44365" lon="1.58947">
        <ele>194</ele>
        <time>2017-11-11T11:22:59Z</time>
      </trkpt>
      <trkpt lat="43.44369" lon="1.58942">
        <ele>194</ele>
        <time>2017-11-11T11:22:59Z</time>
      </trkpt>
      <trkpt lat="43.44373" lon="1.58938">
        <ele>194</ele>
        <time>2017-11-11T11:22:59Z</time>
      </trkpt>
      <trkpt lat="43.44377" lon="1.58934">
        <ele>194</ele>
        <time>2017-11-11T11:23:15Z</time>
      </trkpt>
      <trkpt lat="43.44381" lon="1.5893">
        <ele>194</ele>
        <time>2017-11-11T11:23:15Z</time>
      </trkpt>
      <trkpt lat="43.44385" lon="1.58924">
        <ele>194</ele>
        <time>2017-11-11T11:23:15Z</time>
      </trkpt>
      <trkpt lat="43.44388" lon="1.58918">
        <ele>194</ele>
        <time>2017-11-11T11:23:15Z</time>
      </trkpt>
      <trkpt lat="43.44392" lon="1.5891">
        <ele>194</ele>
        <time>2017-11-11T11:23:31Z</time>
      </trkpt>
      <trkpt lat="43.44396" lon="1.58904">
        <ele>194</ele>
        <time>2017-11-11T11:23:31Z</time>
      </trkpt>
      <trkpt lat="43.44399" lon="1.58898">
        <ele>194</ele>
        <time>2017-11-11T11:23:31Z</time>
      </trkpt>
      <trkpt lat="43.44403" lon="1.58893">
        <ele>194</ele>
        <time>2017-11-11T11:23:31Z</time>
      </trkpt>
      <trkpt lat="43.44408" lon="1.58885">
        <ele>194</ele>
        <time>2017-11-11T11:23:47Z</time>
      </trkpt>
      <trkpt lat="43.44411" lon="1.58878">
        <ele>194</ele>
        <time>2017-11-11T11:23:47Z</time>
      </trkpt>
      <trkpt lat="43.44415" lon="1.58872">
        <ele>191</ele>
        <time>2017-11-11T11:23:47Z</time>
      </trkpt>
      <trkpt lat="43.44419" lon="1.58867">
        <ele>191</ele>
        <time>2017-11-11T11:23:47Z</time>
      </trkpt>
      <trkpt lat="43.44423" lon="1.58861">
        <ele>191</ele>
        <time>2017-11-11T11:24:03Z</time>
      </trkpt>
      <trkpt lat="43.44426" lon="1.58855">
        <ele>191</ele>
        <time>2017-11-11T11:24:03Z</time>
      </trkpt>
      <trkpt lat="43.44429" lon="1.58844">
        <ele>191</ele>
        <time>2017-11-11T11:24:03Z</time>
      </trkpt>
      <trkpt lat="43.44432" lon="1.58839">
        <ele>191</ele>
        <time>2017-11-11T11:24:03Z</time>
      </trkpt>
      <trkpt lat="43.44435" lon="1.58832">
        <ele>191</ele>
        <time>2017-11-11T11:24:20Z</time>
      </trkpt>
      <trkpt lat="43.44438" lon="1.58824">
        <ele>191</ele>
        <time>2017-11-11T11:24:20Z</time>
      </trkpt>
      <trkpt lat="43.4444" lon="1.5882">
        <ele>191</ele>
        <time>2017-11-11T11:24:20Z</time>
      </trkpt>
      <trkpt lat="43.44443" lon="1.58813">
        <ele>191</ele>
        <time>2017-11-11T11:24:20Z</time>
      </trkpt>
      <trkpt lat="43.44444" lon="1.58808">
        <ele>191</ele>
        <time>2017-11-11T11:24:35Z</time>
      </trkpt>
      <trkpt lat="43.44447" lon="1.588">
        <ele>191</ele>
        <time>2017-11-11T11:24:35Z</time>
      </trkpt>
      <trkpt lat="43.44449" lon="1.58793">
        <ele>191</ele>
        <time>2017-11-11T11:24:35Z</time>
      </trkpt>
      <trkpt lat="43.44452" lon="1.58789">
        <ele>193</ele>
        <time>2017-11-11T11:24:35Z</time>
      </trkpt>
      <trkpt lat="43.44453" lon="1.58787">
        <ele>193</ele>
        <time>2017-11-11T11:24:51Z</time>
      </trkpt>
      <trkpt lat="43.44457" lon="1.5878">
        <ele>193</ele>
        <time>2017-11-11T11:24:51Z</time>
      </trkpt>
      <trkpt lat="43.4446" lon="1.58771">
        <ele>189</ele>
        <time>2017-11-11T11:24:51Z</time>
      </trkpt>
      <trkpt lat="43.44464" lon="1.58766">
        <ele>189</ele>
        <time>2017-11-11T11:24:51Z</time>
      </trkpt>
      <trkpt lat="43.44467" lon="1.58759">
        <ele>189</ele>
        <time>2017-11-11T11:25:07Z</time>
      </trkpt>
      <trkpt lat="43.4447" lon="1.58754">
        <ele>189</ele>
        <time>2017-11-11T11:25:07Z</time>
      </trkpt>
      <trkpt lat="43.44475" lon="1.58746">
        <ele>189</ele>
        <time>2017-11-11T11:25:07Z</time>
      </trkpt>
      <trkpt lat="43.44477" lon="1.58741">
        <ele>189</ele>
        <time>2017-11-11T11:25:07Z</time>
      </trkpt>
      <trkpt lat="43.44481" lon="1.58734">
        <ele>189</ele>
        <time>2017-11-11T11:25:23Z</time>
      </trkpt>
      <trkpt lat="43.44484" lon="1.58728">
        <ele>189</ele>
        <time>2017-11-11T11:25:23Z</time>
      </trkpt>
      <trkpt lat="43.44486" lon="1.58722">
        <ele>189</ele>
        <time>2017-11-11T11:25:23Z</time>
      </trkpt>
      <trkpt lat="43.44488" lon="1.58718">
        <ele>189</ele>
        <time>2017-11-11T11:25:23Z</time>
      </trkpt>
      <trkpt lat="43.44491" lon="1.58711">
        <ele>189</ele>
        <time>2017-11-11T11:25:39Z</time>
      </trkpt>
      <trkpt lat="43.44494" lon="1.58705">
        <ele>190</ele>
        <time>2017-11-11T11:25:39Z</time>
      </trkpt>
      <trkpt lat="43.44497" lon="1.587">
        <ele>190</ele>
        <time>2017-11-11T11:25:39Z</time>
      </trkpt>
      <trkpt lat="43.44498" lon="1.58694">
        <ele>190</ele>
        <time>2017-11-11T11:25:39Z</time>
      </trkpt>
      <trkpt lat="43.445" lon="1.58689">
        <ele>190</ele>
        <time>2017-11-11T11:25:55Z</time>
      </trkpt>
      <trkpt lat="43.44501" lon="1.58687">
        <ele>190</ele>
        <time>2017-11-11T11:25:55Z</time>
      </trkpt>
      <trkpt lat="43.44504" lon="1.5868">
        <ele>190</ele>
        <time>2017-11-11T11:25:55Z</time>
      </trkpt>
      <trkpt lat="43.44507" lon="1.58675">
        <ele>190</ele>
        <time>2017-11-11T11:25:55Z</time>
      </trkpt>
      <trkpt lat="43.4451" lon="1.58669">
        <ele>190</ele>
        <time>2017-11-11T11:26:11Z</time>
      </trkpt>
      <trkpt lat="43.44514" lon="1.58663">
        <ele>190</ele>
        <time>2017-11-11T11:26:11Z</time>
      </trkpt>
      <trkpt lat="43.44519" lon="1.58656">
        <ele>190</ele>
        <time>2017-11-11T11:26:11Z</time>
      </trkpt>
      <trkpt lat="43.44522" lon="1.58651">
        <ele>190</ele>
        <time>2017-11-11T11:26:11Z</time>
      </trkpt>
      <trkpt lat="43.44525" lon="1.58642">
        <ele>190</ele>
        <time>2017-11-11T11:26:27Z</time>
      </trkpt>
      <trkpt lat="43.44527" lon="1.58637">
        <ele>190</ele>
        <time>2017-11-11T11:26:27Z</time>
      </trkpt>
      <trkpt lat="43.44531" lon="1.58631">
        <ele>190</ele>
        <time>2017-11-11T11:26:27Z</time>
      </trkpt>
      <trkpt lat="43.44535" lon="1.58625">
        <ele>187</ele>
        <time>2017-11-11T11:26:27Z</time>
      </trkpt>
      <trkpt lat="43.44538" lon="1.5862">
        <ele>187</ele>
        <time>2017-11-11T11:26:43Z</time>
      </trkpt>
      <trkpt lat="43.44541" lon="1.58613">
        <ele>187</ele>
        <time>2017-11-11T11:26:43Z</time>
      </trkpt>
      <trkpt lat="43.44545" lon="1.58607">
        <ele>185</ele>
        <time>2017-11-11T11:26:43Z</time>
      </trkpt>
      <trkpt lat="43.44549" lon="1.58601">
        <ele>185</ele>
        <time>2017-11-11T11:26:43Z</time>
      </trkpt>
      <trkpt lat="43.44552" lon="1.58594">
        <ele>185</ele>
        <time>2017-11-11T11:26:59Z</time>
      </trkpt>
      <trkpt lat="43.44555" lon="1.58586">
        <ele>185</ele>
        <time>2017-11-11T11:26:59Z</time>
      </trkpt>
      <trkpt lat="43.4456" lon="1.58576">
        <ele>185</ele>
        <time>2017-11-11T11:26:59Z</time>
      </trkpt>
      <trkpt lat="43.44563" lon="1.5857">
        <ele>185</ele>
        <time>2017-11-11T11:26:59Z</time>
      </trkpt>
      <trkpt lat="43.44566" lon="1.58563">
        <ele>185</ele>
        <time>2017-11-11T11:27:15Z</time>
      </trkpt>
      <trkpt lat="43.4457" lon="1.58557">
        <ele>185</ele>
        <time>2017-11-11T11:27:15Z</time>
      </trkpt>
      <trkpt lat="43.44572" lon="1.58554">
        <ele>185</ele>
        <time>2017-11-11T11:27:15Z</time>
      </trkpt>
      <trkpt lat="43.44572" lon="1.58553">
        <ele>185</ele>
        <time>2017-11-11T11:27:15Z</time>
      </trkpt>
      <trkpt lat="43.44576" lon="1.58545">
        <ele>185</ele>
        <time>2017-11-11T11:27:31Z</time>
      </trkpt>
      <trkpt lat="43.44578" lon="1.5854">
        <ele>185</ele>
        <time>2017-11-11T11:27:31Z</time>
      </trkpt>
      <trkpt lat="43.44581" lon="1.58533">
        <ele>185</ele>
        <time>2017-11-11T11:27:31Z</time>
      </trkpt>
      <trkpt lat="43.44584" lon="1.58526">
        <ele>185</ele>
        <time>2017-11-11T11:27:31Z</time>
      </trkpt>
      <trkpt lat="43.44585" lon="1.58524">
        <ele>185</ele>
        <time>2017-11-11T11:27:47Z</time>
      </trkpt>
      <trkpt lat="43.44589" lon="1.58522">
        <ele>185</ele>
        <time>2017-11-11T11:27:47Z</time>
      </trkpt>
      <trkpt lat="43.44597" lon="1.5852">
        <ele>185</ele>
        <time>2017-11-11T11:27:47Z</time>
      </trkpt>
      <trkpt lat="43.44603" lon="1.58519">
        <ele>185</ele>
        <time>2017-11-11T11:27:47Z</time>
      </trkpt>
      <trkpt lat="43.44609" lon="1.58517">
        <ele>185</ele>
        <time>2017-11-11T11:28:03Z</time>
      </trkpt>
      <trkpt lat="43.44615" lon="1.58514">
        <ele>185</ele>
        <time>2017-11-11T11:28:03Z</time>
      </trkpt>
      <trkpt lat="43.44622" lon="1.5851">
        <ele>185</ele>
        <time>2017-11-11T11:28:03Z</time>
      </trkpt>
      <trkpt lat="43.44628" lon="1.58506">
        <ele>182</ele>
        <time>2017-11-11T11:28:03Z</time>
      </trkpt>
      <trkpt lat="43.44634" lon="1.58501">
        <ele>182</ele>
        <time>2017-11-11T11:28:19Z</time>
      </trkpt>
      <trkpt lat="43.44637" lon="1.58497">
        <ele>182</ele>
        <time>2017-11-11T11:28:19Z</time>
      </trkpt>
      <trkpt lat="43.44639" lon="1.58491">
        <ele>182</ele>
        <time>2017-11-11T11:28:19Z</time>
      </trkpt>
      <trkpt lat="43.4464" lon="1.58485">
        <ele>182</ele>
        <time>2017-11-11T11:28:19Z</time>
      </trkpt>
      <trkpt lat="43.44642" lon="1.5848">
        <ele>182</ele>
        <time>2017-11-11T11:28:35Z</time>
      </trkpt>
      <trkpt lat="43.44645" lon="1.58475">
        <ele>182</ele>
        <time>2017-11-11T11:28:35Z</time>
      </trkpt>
      <trkpt lat="43.44649" lon="1.58468">
        <ele>182</ele>
        <time>2017-11-11T11:28:35Z</time>
      </trkpt>
      <trkpt lat="43.44653" lon="1.58461">
        <ele>182</ele>
        <time>2017-11-11T11:28:35Z</time>
      </trkpt>
      <trkpt lat="43.44656" lon="1.58452">
        <ele>180</ele>
        <time>2017-11-11T11:28:51Z</time>
      </trkpt>
      <trkpt lat="43.4466" lon="1.58447">
        <ele>180</ele>
        <time>2017-11-11T11:28:51Z</time>
      </trkpt>
      <trkpt lat="43.44665" lon="1.5844">
        <ele>180</ele>
        <time>2017-11-11T11:28:51Z</time>
      </trkpt>
      <trkpt lat="43.44668" lon="1.58432">
        <ele>180</ele>
        <time>2017-11-11T11:28:51Z</time>
      </trkpt>
      <trkpt lat="43.44673" lon="1.58426">
        <ele>180</ele>
        <time>2017-11-11T11:29:07Z</time>
      </trkpt>
      <trkpt lat="43.44677" lon="1.58419">
        <ele>180</ele>
        <time>2017-11-11T11:29:07Z</time>
      </trkpt>
      <trkpt lat="43.44681" lon="1.58413">
        <ele>180</ele>
        <time>2017-11-11T11:29:07Z</time>
      </trkpt>
      <trkpt lat="43.44685" lon="1.58406">
        <ele>180</ele>
        <time>2017-11-11T11:29:07Z</time>
      </trkpt>
      <trkpt lat="43.44688" lon="1.58397">
        <ele>180</ele>
        <time>2017-11-11T11:29:23Z</time>
      </trkpt>
      <trkpt lat="43.44691" lon="1.5839">
        <ele>180</ele>
        <time>2017-11-11T11:29:23Z</time>
      </trkpt>
      <trkpt lat="43.44695" lon="1.58386">
        <ele>180</ele>
        <time>2017-11-11T11:29:23Z</time>
      </trkpt>
      <trkpt lat="43.44698" lon="1.58385">
        <ele>180</ele>
        <time>2017-11-11T11:29:23Z</time>
      </trkpt>
      <trkpt lat="43.44699" lon="1.58378">
        <ele>180</ele>
        <time>2017-11-11T11:29:39Z</time>
      </trkpt>
      <trkpt lat="43.44703" lon="1.58374">
        <ele>179</ele>
        <time>2017-11-11T11:29:39Z</time>
      </trkpt>
      <trkpt lat="43.44706" lon="1.58372">
        <ele>179</ele>
        <time>2017-11-11T11:29:39Z</time>
      </trkpt>
      <trkpt lat="43.44708" lon="1.58371">
        <ele>179</ele>
        <time>2017-11-11T11:29:39Z</time>
      </trkpt>
      <trkpt lat="43.44712" lon="1.58369">
        <ele>176</ele>
        <time>2017-11-11T11:29:55Z</time>
      </trkpt>
      <trkpt lat="43.44717" lon="1.58366">
        <ele>176</ele>
        <time>2017-11-11T11:29:55Z</time>
      </trkpt>
      <trkpt lat="43.44721" lon="1.5836">
        <ele>176</ele>
        <time>2017-11-11T11:29:55Z</time>
      </trkpt>
      <trkpt lat="43.44725" lon="1.58358">
        <ele>176</ele>
        <time>2017-11-11T11:29:55Z</time>
      </trkpt>
      <trkpt lat="43.44726" lon="1.58356">
        <ele>176</ele>
        <time>2017-11-11T11:30:19Z</time>
      </trkpt>
      <trkpt lat="43.44726" lon="1.58355">
        <ele>176</ele>
        <time>2017-11-11T11:30:19Z</time>
      </trkpt>
      <trkpt lat="43.44727" lon="1.58355">
        <ele>176</ele>
        <time>2017-11-11T11:30:19Z</time>
      </trkpt>
      <trkpt lat="43.44729" lon="1.58354">
        <ele>176</ele>
        <time>2017-11-11T11:30:19Z</time>
      </trkpt>
      <trkpt lat="43.44734" lon="1.58348">
        <ele>176</ele>
        <time>2017-11-11T11:30:19Z</time>
      </trkpt>
      <trkpt lat="43.4474" lon="1.58344">
        <ele>176</ele>
        <time>2017-11-11T11:30:35Z</time>
      </trkpt>
      <trkpt lat="43.44744" lon="1.58338">
        <ele>176</ele>
        <time>2017-11-11T11:30:35Z</time>
      </trkpt>
      <trkpt lat="43.4475" lon="1.58334">
        <ele>176</ele>
        <time>2017-11-11T11:30:35Z</time>
      </trkpt>
      <trkpt lat="43.44754" lon="1.58331">
        <ele>176</ele>
        <time>2017-11-11T11:30:35Z</time>
      </trkpt>
      <trkpt lat="43.44758" lon="1.58327">
        <ele>176</ele>
        <time>2017-11-11T11:30:51Z</time>
      </trkpt>
      <trkpt lat="43.44761" lon="1.58324">
        <ele>176</ele>
        <time>2017-11-11T11:30:51Z</time>
      </trkpt>
      <trkpt lat="43.44766" lon="1.58321">
        <ele>176</ele>
        <time>2017-11-11T11:30:51Z</time>
      </trkpt>
      <trkpt lat="43.44769" lon="1.58319">
        <ele>176</ele>
        <time>2017-11-11T11:30:51Z</time>
      </trkpt>
      <trkpt lat="43.44774" lon="1.58316">
        <ele>176</ele>
        <time>2017-11-11T11:31:07Z</time>
      </trkpt>
      <trkpt lat="43.44778" lon="1.58313">
        <ele>176</ele>
        <time>2017-11-11T11:31:07Z</time>
      </trkpt>
      <trkpt lat="43.44783" lon="1.58309">
        <ele>176</ele>
        <time>2017-11-11T11:31:07Z</time>
      </trkpt>
      <trkpt lat="43.44788" lon="1.58304">
        <ele>176</ele>
        <time>2017-11-11T11:31:07Z</time>
      </trkpt>
      <trkpt lat="43.44793" lon="1.58296">
        <ele>176</ele>
        <time>2017-11-11T11:31:23Z</time>
      </trkpt>
      <trkpt lat="43.44794" lon="1.58294">
        <ele>176</ele>
        <time>2017-11-11T11:31:23Z</time>
      </trkpt>
      <trkpt lat="43.44797" lon="1.58288">
        <ele>181</ele>
        <time>2017-11-11T11:31:23Z</time>
      </trkpt>
      <trkpt lat="43.44799" lon="1.58281">
        <ele>181</ele>
        <time>2017-11-11T11:31:23Z</time>
      </trkpt>
      <trkpt lat="43.44801" lon="1.58272">
        <ele>181</ele>
        <time>2017-11-11T11:31:39Z</time>
      </trkpt>
      <trkpt lat="43.44804" lon="1.58264">
        <ele>181</ele>
        <time>2017-11-11T11:31:39Z</time>
      </trkpt>
      <trkpt lat="43.44806" lon="1.58257">
        <ele>181</ele>
        <time>2017-11-11T11:31:39Z</time>
      </trkpt>
      <trkpt lat="43.44808" lon="1.5825">
        <ele>181</ele>
        <time>2017-11-11T11:31:39Z</time>
      </trkpt>
      <trkpt lat="43.4481" lon="1.58243">
        <ele>181</ele>
        <time>2017-11-11T11:31:55Z</time>
      </trkpt>
      <trkpt lat="43.44813" lon="1.58236">
        <ele>181</ele>
        <time>2017-11-11T11:31:55Z</time>
      </trkpt>
      <trkpt lat="43.44815" lon="1.58229">
        <ele>181</ele>
        <time>2017-11-11T11:31:55Z</time>
      </trkpt>
      <trkpt lat="43.44818" lon="1.58221">
        <ele>181</ele>
        <time>2017-11-11T11:31:55Z</time>
      </trkpt>
      <trkpt lat="43.4482" lon="1.58209">
        <ele>181</ele>
        <time>2017-11-11T11:32:11Z</time>
      </trkpt>
      <trkpt lat="43.44824" lon="1.58202">
        <ele>185</ele>
        <time>2017-11-11T11:32:11Z</time>
      </trkpt>
      <trkpt lat="43.44826" lon="1.58195">
        <ele>185</ele>
        <time>2017-11-11T11:32:11Z</time>
      </trkpt>
      <trkpt lat="43.44828" lon="1.58188">
        <ele>185</ele>
        <time>2017-11-11T11:32:11Z</time>
      </trkpt>
      <trkpt lat="43.44831" lon="1.58183">
        <ele>185</ele>
        <time>2017-11-11T11:32:27Z</time>
      </trkpt>
      <trkpt lat="43.44834" lon="1.58179">
        <ele>185</ele>
        <time>2017-11-11T11:32:27Z</time>
      </trkpt>
      <trkpt lat="43.44835" lon="1.58174">
        <ele>185</ele>
        <time>2017-11-11T11:32:27Z</time>
      </trkpt>
      <trkpt lat="43.44835" lon="1.5817">
        <ele>185</ele>
        <time>2017-11-11T11:32:27Z</time>
      </trkpt>
      <trkpt lat="43.44837" lon="1.58164">
        <ele>185</ele>
        <time>2017-11-11T11:32:43Z</time>
      </trkpt>
      <trkpt lat="43.44839" lon="1.5816">
        <ele>185</ele>
        <time>2017-11-11T11:32:43Z</time>
      </trkpt>
      <trkpt lat="43.44841" lon="1.58156">
        <ele>185</ele>
        <time>2017-11-11T11:32:43Z</time>
      </trkpt>
      <trkpt lat="43.44843" lon="1.58151">
        <ele>185</ele>
        <time>2017-11-11T11:32:43Z</time>
      </trkpt>
      <trkpt lat="43.44844" lon="1.58147">
        <ele>185</ele>
        <time>2017-11-11T11:32:59Z</time>
      </trkpt>
      <trkpt lat="43.44847" lon="1.58144">
        <ele>185</ele>
        <time>2017-11-11T11:32:59Z</time>
      </trkpt>
      <trkpt lat="43.44851" lon="1.5814">
        <ele>185</ele>
        <time>2017-11-11T11:32:59Z</time>
      </trkpt>
      <trkpt lat="43.44854" lon="1.58139">
        <ele>185</ele>
        <time>2017-11-11T11:32:59Z</time>
      </trkpt>
      <trkpt lat="43.44856" lon="1.58137">
        <ele>185</ele>
        <time>2017-11-11T11:33:15Z</time>
      </trkpt>
      <trkpt lat="43.44859" lon="1.58132">
        <ele>185</ele>
        <time>2017-11-11T11:33:15Z</time>
      </trkpt>
      <trkpt lat="43.44862" lon="1.58128">
        <ele>185</ele>
        <time>2017-11-11T11:33:15Z</time>
      </trkpt>
      <trkpt lat="43.44866" lon="1.58121">
        <ele>188</ele>
        <time>2017-11-11T11:33:15Z</time>
      </trkpt>
      <trkpt lat="43.44868" lon="1.58114">
        <ele>188</ele>
        <time>2017-11-11T11:33:31Z</time>
      </trkpt>
      <trkpt lat="43.44871" lon="1.58105">
        <ele>188</ele>
        <time>2017-11-11T11:33:31Z</time>
      </trkpt>
      <trkpt lat="43.44873" lon="1.58102">
        <ele>188</ele>
        <time>2017-11-11T11:33:31Z</time>
      </trkpt>
      <trkpt lat="43.44876" lon="1.58097">
        <ele>198</ele>
        <time>2017-11-11T11:33:31Z</time>
      </trkpt>
      <trkpt lat="43.44879" lon="1.58091">
        <ele>198</ele>
        <time>2017-11-11T11:33:47Z</time>
      </trkpt>
      <trkpt lat="43.44883" lon="1.58086">
        <ele>198</ele>
        <time>2017-11-11T11:33:47Z</time>
      </trkpt>
      <trkpt lat="43.44887" lon="1.58082">
        <ele>198</ele>
        <time>2017-11-11T11:33:47Z</time>
      </trkpt>
      <trkpt lat="43.44891" lon="1.58079">
        <ele>198</ele>
        <time>2017-11-11T11:33:47Z</time>
      </trkpt>
      <trkpt lat="43.44894" lon="1.58075">
        <ele>198</ele>
        <time>2017-11-11T11:34:07Z</time>
      </trkpt>
      <trkpt lat="43.44897" lon="1.58072">
        <ele>198</ele>
        <time>2017-11-11T11:34:07Z</time>
      </trkpt>
      <trkpt lat="43.44898" lon="1.5807">
        <ele>198</ele>
        <time>2017-11-11T11:34:07Z</time>
      </trkpt>
      <trkpt lat="43.449" lon="1.58068">
        <ele>198</ele>
        <time>2017-11-11T11:34:07Z</time>
      </trkpt>
      <trkpt lat="43.44903" lon="1.58065">
        <ele>198</ele>
        <time>2017-11-11T11:34:07Z</time>
      </trkpt>
      <trkpt lat="43.44908" lon="1.5806">
        <ele>198</ele>
        <time>2017-11-11T11:34:23Z</time>
      </trkpt>
      <trkpt lat="43.44911" lon="1.58055">
        <ele>198</ele>
        <time>2017-11-11T11:34:23Z</time>
      </trkpt>
      <trkpt lat="43.44914" lon="1.58051">
        <ele>198</ele>
        <time>2017-11-11T11:34:23Z</time>
      </trkpt>
      <trkpt lat="43.44917" lon="1.58046">
        <ele>198</ele>
        <time>2017-11-11T11:34:23Z</time>
      </trkpt>
      <trkpt lat="43.4492" lon="1.58042">
        <ele>198</ele>
        <time>2017-11-11T11:34:39Z</time>
      </trkpt>
      <trkpt lat="43.44923" lon="1.58037">
        <ele>198</ele>
        <time>2017-11-11T11:34:39Z</time>
      </trkpt>
      <trkpt lat="43.44927" lon="1.58032">
        <ele>198</ele>
        <time>2017-11-11T11:34:39Z</time>
      </trkpt>
      <trkpt lat="43.44931" lon="1.58028">
        <ele>198</ele>
        <time>2017-11-11T11:34:39Z</time>
      </trkpt>
      <trkpt lat="43.44934" lon="1.58024">
        <ele>198</ele>
        <time>2017-11-11T11:34:55Z</time>
      </trkpt>
      <trkpt lat="43.44937" lon="1.58019">
        <ele>198</ele>
        <time>2017-11-11T11:34:55Z</time>
      </trkpt>
      <trkpt lat="43.44942" lon="1.58016">
        <ele>198</ele>
        <time>2017-11-11T11:34:55Z</time>
      </trkpt>
      <trkpt lat="43.44946" lon="1.58011">
        <ele>198</ele>
        <time>2017-11-11T11:34:55Z</time>
      </trkpt>
      <trkpt lat="43.4495" lon="1.58007">
        <ele>198</ele>
        <time>2017-11-11T11:35:11Z</time>
      </trkpt>
      <trkpt lat="43.44953" lon="1.58003">
        <ele>198</ele>
        <time>2017-11-11T11:35:11Z</time>
      </trkpt>
      <trkpt lat="43.44956" lon="1.57996">
        <ele>198</ele>
        <time>2017-11-11T11:35:11Z</time>
      </trkpt>
      <trkpt lat="43.44958" lon="1.57989">
        <ele>198</ele>
        <time>2017-11-11T11:35:11Z</time>
      </trkpt>
      <trkpt lat="43.44962" lon="1.57983">
        <ele>204</ele>
        <time>2017-11-11T11:35:27Z</time>
      </trkpt>
      <trkpt lat="43.44965" lon="1.57977">
        <ele>204</ele>
        <time>2017-11-11T11:35:27Z</time>
      </trkpt>
      <trkpt lat="43.44967" lon="1.57971">
        <ele>204</ele>
        <time>2017-11-11T11:35:27Z</time>
      </trkpt>
      <trkpt lat="43.4497" lon="1.57967">
        <ele>204</ele>
        <time>2017-11-11T11:35:27Z</time>
      </trkpt>
      <trkpt lat="43.44973" lon="1.57959">
        <ele>204</ele>
        <time>2017-11-11T11:35:43Z</time>
      </trkpt>
      <trkpt lat="43.44977" lon="1.57955">
        <ele>204</ele>
        <time>2017-11-11T11:35:43Z</time>
      </trkpt>
      <trkpt lat="43.44982" lon="1.5795">
        <ele>204</ele>
        <time>2017-11-11T11:35:43Z</time>
      </trkpt>
      <trkpt lat="43.44986" lon="1.57945">
        <ele>204</ele>
        <time>2017-11-11T11:35:43Z</time>
      </trkpt>
      <trkpt lat="43.4499" lon="1.57938">
        <ele>204</ele>
        <time>2017-11-11T11:35:59Z</time>
      </trkpt>
      <trkpt lat="43.44992" lon="1.57933">
        <ele>204</ele>
        <time>2017-11-11T11:35:59Z</time>
      </trkpt>
      <trkpt lat="43.44995" lon="1.57926">
        <ele>204</ele>
        <time>2017-11-11T11:35:59Z</time>
      </trkpt>
      <trkpt lat="43.44999" lon="1.57919">
        <ele>204</ele>
        <time>2017-11-11T11:35:59Z</time>
      </trkpt>
      <trkpt lat="43.45003" lon="1.57914">
        <ele>204</ele>
        <time>2017-11-11T11:36:15Z</time>
      </trkpt>
      <trkpt lat="43.45007" lon="1.57908">
        <ele>204</ele>
        <time>2017-11-11T11:36:15Z</time>
      </trkpt>
      <trkpt lat="43.45011" lon="1.57902">
        <ele>204</ele>
        <time>2017-11-11T11:36:15Z</time>
      </trkpt>
      <trkpt lat="43.45014" lon="1.57896">
        <ele>204</ele>
        <time>2017-11-11T11:36:15Z</time>
      </trkpt>
      <trkpt lat="43.45017" lon="1.5789">
        <ele>204</ele>
        <time>2017-11-11T11:36:31Z</time>
      </trkpt>
      <trkpt lat="43.4502" lon="1.57884">
        <ele>204</ele>
        <time>2017-11-11T11:36:31Z</time>
      </trkpt>
      <trkpt lat="43.45022" lon="1.57881">
        <ele>204</ele>
        <time>2017-11-11T11:36:31Z</time>
      </trkpt>
      <trkpt lat="43.45026" lon="1.57874">
        <ele>206</ele>
        <time>2017-11-11T11:36:31Z</time>
      </trkpt>
      <trkpt lat="43.45031" lon="1.57868">
        <ele>206</ele>
        <time>2017-11-11T11:36:47Z</time>
      </trkpt>
      <trkpt lat="43.45035" lon="1.57863">
        <ele>206</ele>
        <time>2017-11-11T11:36:47Z</time>
      </trkpt>
      <trkpt lat="43.45039" lon="1.57856">
        <ele>206</ele>
        <time>2017-11-11T11:36:47Z</time>
      </trkpt>
      <trkpt lat="43.45042" lon="1.57851">
        <ele>207</ele>
        <time>2017-11-11T11:36:47Z</time>
      </trkpt>
      <trkpt lat="43.45046" lon="1.57845">
        <ele>207</ele>
        <time>2017-11-11T11:37:03Z</time>
      </trkpt>
      <trkpt lat="43.45049" lon="1.57838">
        <ele>207</ele>
        <time>2017-11-11T11:37:03Z</time>
      </trkpt>
      <trkpt lat="43.45053" lon="1.57833">
        <ele>207</ele>
        <time>2017-11-11T11:37:03Z</time>
      </trkpt>
      <trkpt lat="43.45057" lon="1.57829">
        <ele>207</ele>
        <time>2017-11-11T11:37:03Z</time>
      </trkpt>
      <trkpt lat="43.45061" lon="1.57829">
        <ele>207</ele>
        <time>2017-11-11T11:39:31Z</time>
      </trkpt>
      <trkpt lat="43.45063" lon="1.57826">
        <ele>207</ele>
        <time>2017-11-11T11:39:31Z</time>
      </trkpt>
      <trkpt lat="43.45065" lon="1.57822">
        <ele>207</ele>
        <time>2017-11-11T11:39:31Z</time>
      </trkpt>
      <trkpt lat="43.45066" lon="1.57818">
        <ele>207</ele>
        <time>2017-11-11T11:39:31Z</time>
      </trkpt>
      <trkpt lat="43.45067" lon="1.57817">
        <ele>207</ele>
        <time>2017-11-11T11:39:31Z</time>
      </trkpt>
      <trkpt lat="43.4507" lon="1.57811">
        <ele>207</ele>
        <time>2017-11-11T11:39:47Z</time>
      </trkpt>
      <trkpt lat="43.45073" lon="1.57806">
        <ele>207</ele>
        <time>2017-11-11T11:39:47Z</time>
      </trkpt>
      <trkpt lat="43.45077" lon="1.578">
        <ele>207</ele>
        <time>2017-11-11T11:39:47Z</time>
      </trkpt>
      <trkpt lat="43.45081" lon="1.57794">
        <ele>207</ele>
        <time>2017-11-11T11:39:47Z</time>
      </trkpt>
      <trkpt lat="43.45087" lon="1.57788">
        <ele>207</ele>
        <time>2017-11-11T11:40:03Z</time>
      </trkpt>
      <trkpt lat="43.45091" lon="1.57784">
        <ele>207</ele>
        <time>2017-11-11T11:40:03Z</time>
      </trkpt>
      <trkpt lat="43.45096" lon="1.57784">
        <ele>207</ele>
        <time>2017-11-11T11:40:03Z</time>
      </trkpt>
      <trkpt lat="43.451" lon="1.5778">
        <ele>207</ele>
        <time>2017-11-11T11:40:03Z</time>
      </trkpt>
      <trkpt lat="43.45104" lon="1.57775">
        <ele>207</ele>
        <time>2017-11-11T11:40:19Z</time>
      </trkpt>
      <trkpt lat="43.45108" lon="1.5777">
        <ele>207</ele>
        <time>2017-11-11T11:40:19Z</time>
      </trkpt>
      <trkpt lat="43.45113" lon="1.57767">
        <ele>207</ele>
        <time>2017-11-11T11:40:19Z</time>
      </trkpt>
      <trkpt lat="43.45115" lon="1.57765">
        <ele>207</ele>
        <time>2017-11-11T11:40:19Z</time>
      </trkpt>
      <trkpt lat="43.45116" lon="1.57761">
        <ele>207</ele>
        <time>2017-11-11T11:40:35Z</time>
      </trkpt>
      <trkpt lat="43.45119" lon="1.57756">
        <ele>207</ele>
        <time>2017-11-11T11:40:35Z</time>
      </trkpt>
      <trkpt lat="43.45121" lon="1.57753">
        <ele>207</ele>
        <time>2017-11-11T11:40:35Z</time>
      </trkpt>
      <trkpt lat="43.45126" lon="1.57752">
        <ele>204</ele>
        <time>2017-11-11T11:40:35Z</time>
      </trkpt>
      <trkpt lat="43.45131" lon="1.57749">
        <ele>204</ele>
        <time>2017-11-11T11:40:51Z</time>
      </trkpt>
      <trkpt lat="43.45137" lon="1.57745">
        <ele>204</ele>
        <time>2017-11-11T11:40:51Z</time>
      </trkpt>
      <trkpt lat="43.45142" lon="1.57737">
        <ele>204</ele>
        <time>2017-11-11T11:40:51Z</time>
      </trkpt>
      <trkpt lat="43.45149" lon="1.57732">
        <ele>204</ele>
        <time>2017-11-11T11:40:51Z</time>
      </trkpt>
      <trkpt lat="43.45154" lon="1.57727">
        <ele>204</ele>
        <time>2017-11-11T11:41:07Z</time>
      </trkpt>
      <trkpt lat="43.45158" lon="1.57722">
        <ele>204</ele>
        <time>2017-11-11T11:41:07Z</time>
      </trkpt>
      <trkpt lat="43.45163" lon="1.57718">
        <ele>204</ele>
        <time>2017-11-11T11:41:07Z</time>
      </trkpt>
      <trkpt lat="43.45168" lon="1.57716">
        <ele>204</ele>
        <time>2017-11-11T11:41:07Z</time>
      </trkpt>
      <trkpt lat="43.45174" lon="1.57714">
        <ele>204</ele>
        <time>2017-11-11T11:41:23Z</time>
      </trkpt>
      <trkpt lat="43.4518" lon="1.57713">
        <ele>204</ele>
        <time>2017-11-11T11:41:23Z</time>
      </trkpt>
      <trkpt lat="43.45185" lon="1.5771">
        <ele>204</ele>
        <time>2017-11-11T11:41:23Z</time>
      </trkpt>
      <trkpt lat="43.4519" lon="1.57706">
        <ele>205</ele>
        <time>2017-11-11T11:41:23Z</time>
      </trkpt>
      <trkpt lat="43.45193" lon="1.57701">
        <ele>205</ele>
        <time>2017-11-11T11:41:39Z</time>
      </trkpt>
      <trkpt lat="43.45198" lon="1.57698">
        <ele>205</ele>
        <time>2017-11-11T11:41:39Z</time>
      </trkpt>
      <trkpt lat="43.45204" lon="1.57695">
        <ele>205</ele>
        <time>2017-11-11T11:41:39Z</time>
      </trkpt>
      <trkpt lat="43.45207" lon="1.57691">
        <ele>205</ele>
        <time>2017-11-11T11:41:39Z</time>
      </trkpt>
      <trkpt lat="43.45211" lon="1.57689">
        <ele>201</ele>
        <time>2017-11-11T11:41:55Z</time>
      </trkpt>
      <trkpt lat="43.45216" lon="1.57687">
        <ele>201</ele>
        <time>2017-11-11T11:41:55Z</time>
      </trkpt>
      <trkpt lat="43.4522" lon="1.57683">
        <ele>201</ele>
        <time>2017-11-11T11:41:55Z</time>
      </trkpt>
      <trkpt lat="43.45224" lon="1.57681">
        <ele>201</ele>
        <time>2017-11-11T11:41:55Z</time>
      </trkpt>
      <trkpt lat="43.45228" lon="1.57678">
        <ele>201</ele>
        <time>2017-11-11T11:42:11Z</time>
      </trkpt>
      <trkpt lat="43.45231" lon="1.57676">
        <ele>201</ele>
        <time>2017-11-11T11:42:11Z</time>
      </trkpt>
      <trkpt lat="43.45233" lon="1.57671">
        <ele>201</ele>
        <time>2017-11-11T11:42:11Z</time>
      </trkpt>
      <trkpt lat="43.45237" lon="1.57669">
        <ele>201</ele>
        <time>2017-11-11T11:42:11Z</time>
      </trkpt>
      <trkpt lat="43.45242" lon="1.57665">
        <ele>201</ele>
        <time>2017-11-11T11:42:27Z</time>
      </trkpt>
      <trkpt lat="43.45248" lon="1.57663">
        <ele>201</ele>
        <time>2017-11-11T11:42:27Z</time>
      </trkpt>
      <trkpt lat="43.45253" lon="1.5766">
        <ele>201</ele>
        <time>2017-11-11T11:42:27Z</time>
      </trkpt>
      <trkpt lat="43.45258" lon="1.57659">
        <ele>201</ele>
        <time>2017-11-11T11:42:27Z</time>
      </trkpt>
      <trkpt lat="43.45262" lon="1.57658">
        <ele>201</ele>
        <time>2017-11-11T11:42:47Z</time>
      </trkpt>
      <trkpt lat="43.45263" lon="1.57656">
        <ele>201</ele>
        <time>2017-11-11T11:42:47Z</time>
      </trkpt>
      <trkpt lat="43.45267" lon="1.57654">
        <ele>201</ele>
        <time>2017-11-11T11:42:47Z</time>
      </trkpt>
      <trkpt lat="43.4527" lon="1.57652">
        <ele>201</ele>
        <time>2017-11-11T11:42:47Z</time>
      </trkpt>
      <trkpt lat="43.45273" lon="1.57648">
        <ele>201</ele>
        <time>2017-11-11T11:42:47Z</time>
      </trkpt>
      <trkpt lat="43.45277" lon="1.57645">
        <ele>201</ele>
        <time>2017-11-11T11:43:03Z</time>
      </trkpt>
      <trkpt lat="43.45283" lon="1.57641">
        <ele>201</ele>
        <time>2017-11-11T11:43:03Z</time>
      </trkpt>
      <trkpt lat="43.4529" lon="1.57638">
        <ele>201</ele>
        <time>2017-11-11T11:43:03Z</time>
      </trkpt>
      <trkpt lat="43.45295" lon="1.57636">
        <ele>193</ele>
        <time>2017-11-11T11:43:03Z</time>
      </trkpt>
      <trkpt lat="43.453" lon="1.57633">
        <ele>193</ele>
        <time>2017-11-11T11:43:19Z</time>
      </trkpt>
      <trkpt lat="43.45305" lon="1.5763">
        <ele>193</ele>
        <time>2017-11-11T11:43:19Z</time>
      </trkpt>
      <trkpt lat="43.45311" lon="1.57627">
        <ele>193</ele>
        <time>2017-11-11T11:43:19Z</time>
      </trkpt>
      <trkpt lat="43.45314" lon="1.57624">
        <ele>191</ele>
        <time>2017-11-11T11:43:19Z</time>
      </trkpt>
      <trkpt lat="43.45319" lon="1.57623">
        <ele>191</ele>
        <time>2017-11-11T11:43:35Z</time>
      </trkpt>
      <trkpt lat="43.45323" lon="1.57621">
        <ele>191</ele>
        <time>2017-11-11T11:43:35Z</time>
      </trkpt>
      <trkpt lat="43.45328" lon="1.57616">
        <ele>191</ele>
        <time>2017-11-11T11:43:35Z</time>
      </trkpt>
      <trkpt lat="43.45334" lon="1.57612">
        <ele>191</ele>
        <time>2017-11-11T11:43:35Z</time>
      </trkpt>
      <trkpt lat="43.45337" lon="1.57609">
        <ele>191</ele>
        <time>2017-11-11T11:43:51Z</time>
      </trkpt>
      <trkpt lat="43.45343" lon="1.57607">
        <ele>191</ele>
        <time>2017-11-11T11:43:51Z</time>
      </trkpt>
      <trkpt lat="43.45349" lon="1.57605">
        <ele>191</ele>
        <time>2017-11-11T11:43:51Z</time>
      </trkpt>
      <trkpt lat="43.45356" lon="1.57603">
        <ele>191</ele>
        <time>2017-11-11T11:43:51Z</time>
      </trkpt>
      <trkpt lat="43.45361" lon="1.57598">
        <ele>191</ele>
        <time>2017-11-11T11:44:07Z</time>
      </trkpt>
      <trkpt lat="43.45363" lon="1.57597">
        <ele>191</ele>
        <time>2017-11-11T11:44:07Z</time>
      </trkpt>
      <trkpt lat="43.45367" lon="1.57594">
        <ele>191</ele>
        <time>2017-11-11T11:44:07Z</time>
      </trkpt>
      <trkpt lat="43.45372" lon="1.57592">
        <ele>191</ele>
        <time>2017-11-11T11:44:07Z</time>
      </trkpt>
      <trkpt lat="43.4538" lon="1.5759">
        <ele>188</ele>
        <time>2017-11-11T11:44:23Z</time>
      </trkpt>
      <trkpt lat="43.45385" lon="1.57589">
        <ele>188</ele>
        <time>2017-11-11T11:44:23Z</time>
      </trkpt>
      <trkpt lat="43.4539" lon="1.57587">
        <ele>188</ele>
        <time>2017-11-11T11:44:23Z</time>
      </trkpt>
      <trkpt lat="43.45395" lon="1.57586">
        <ele>188</ele>
        <time>2017-11-11T11:44:23Z</time>
      </trkpt>
      <trkpt lat="43.454" lon="1.57584">
        <ele>188</ele>
        <time>2017-11-11T11:44:39Z</time>
      </trkpt>
      <trkpt lat="43.45404" lon="1.5758">
        <ele>188</ele>
        <time>2017-11-11T11:44:39Z</time>
      </trkpt>
      <trkpt lat="43.45408" lon="1.57576">
        <ele>188</ele>
        <time>2017-11-11T11:44:39Z</time>
      </trkpt>
      <trkpt lat="43.45412" lon="1.57574">
        <ele>188</ele>
        <time>2017-11-11T11:44:39Z</time>
      </trkpt>
      <trkpt lat="43.45417" lon="1.57571">
        <ele>188</ele>
        <time>2017-11-11T11:44:55Z</time>
      </trkpt>
      <trkpt lat="43.45423" lon="1.57569">
        <ele>188</ele>
        <time>2017-11-11T11:44:55Z</time>
      </trkpt>
      <trkpt lat="43.4543" lon="1.57569">
        <ele>188</ele>
        <time>2017-11-11T11:44:55Z</time>
      </trkpt>
      <trkpt lat="43.45442" lon="1.57568">
        <ele>188</ele>
        <time>2017-11-11T11:44:55Z</time>
      </trkpt>
      <trkpt lat="43.4545" lon="1.57566">
        <ele>188</ele>
        <time>2017-11-11T11:45:15Z</time>
      </trkpt>
      <trkpt lat="43.45453" lon="1.57565">
        <ele>188</ele>
        <time>2017-11-11T11:45:15Z</time>
      </trkpt>
      <trkpt lat="43.45455" lon="1.57564">
        <ele>188</ele>
        <time>2017-11-11T11:45:15Z</time>
      </trkpt>
      <trkpt lat="43.45458" lon="1.57563">
        <ele>188</ele>
        <time>2017-11-11T11:45:15Z</time>
      </trkpt>
      <trkpt lat="43.45461" lon="1.57561">
        <ele>185</ele>
        <time>2017-11-11T11:45:15Z</time>
      </trkpt>
      <trkpt lat="43.45465" lon="1.5756">
        <ele>185</ele>
        <time>2017-11-11T11:45:31Z</time>
      </trkpt>
      <trkpt lat="43.45467" lon="1.57558">
        <ele>185</ele>
        <time>2017-11-11T11:45:31Z</time>
      </trkpt>
      <trkpt lat="43.45471" lon="1.57558">
        <ele>185</ele>
        <time>2017-11-11T11:45:31Z</time>
      </trkpt>
      <trkpt lat="43.45476" lon="1.57559">
        <ele>185</ele>
        <time>2017-11-11T11:45:31Z</time>
      </trkpt>
      <trkpt lat="43.45485" lon="1.57558">
        <ele>185</ele>
        <time>2017-11-11T11:45:47Z</time>
      </trkpt>
      <trkpt lat="43.45494" lon="1.57558">
        <ele>185</ele>
        <time>2017-11-11T11:45:47Z</time>
      </trkpt>
      <trkpt lat="43.455" lon="1.57558">
        <ele>185</ele>
        <time>2017-11-11T11:45:47Z</time>
      </trkpt>
      <trkpt lat="43.45504" lon="1.57554">
        <ele>185</ele>
        <time>2017-11-11T11:45:47Z</time>
      </trkpt>
      <trkpt lat="43.45507" lon="1.57551">
        <ele>185</ele>
        <time>2017-11-11T11:46:03Z</time>
      </trkpt>
      <trkpt lat="43.4551" lon="1.57549">
        <ele>185</ele>
        <time>2017-11-11T11:46:03Z</time>
      </trkpt>
      <trkpt lat="43.45516" lon="1.57551">
        <ele>185</ele>
        <time>2017-11-11T11:46:03Z</time>
      </trkpt>
      <trkpt lat="43.45518" lon="1.57552">
        <ele>185</ele>
        <time>2017-11-11T11:46:03Z</time>
      </trkpt>
      <trkpt lat="43.4552" lon="1.57554">
        <ele>185</ele>
        <time>2017-11-11T11:46:19Z</time>
      </trkpt>
      <trkpt lat="43.45527" lon="1.57554">
        <ele>185</ele>
        <time>2017-11-11T11:46:19Z</time>
      </trkpt>
      <trkpt lat="43.45529" lon="1.57551">
        <ele>185</ele>
        <time>2017-11-11T11:46:19Z</time>
      </trkpt>
      <trkpt lat="43.4553" lon="1.57549">
        <ele>185</ele>
        <time>2017-11-11T11:46:19Z</time>
      </trkpt>
      <trkpt lat="43.45536" lon="1.57547">
        <ele>185</ele>
        <time>2017-11-11T11:46:35Z</time>
      </trkpt>
      <trkpt lat="43.45541" lon="1.57545">
        <ele>185</ele>
        <time>2017-11-11T11:46:35Z</time>
      </trkpt>
      <trkpt lat="43.45545" lon="1.57542">
        <ele>182</ele>
        <time>2017-11-11T11:46:35Z</time>
      </trkpt>
      <trkpt lat="43.4555" lon="1.57537">
        <ele>190</ele>
        <time>2017-11-11T11:46:35Z</time>
      </trkpt>
      <trkpt lat="43.45555" lon="1.57533">
        <ele>190</ele>
        <time>2017-11-11T11:46:51Z</time>
      </trkpt>
      <trkpt lat="43.45558" lon="1.5753">
        <ele>190</ele>
        <time>2017-11-11T11:46:51Z</time>
      </trkpt>
      <trkpt lat="43.4556" lon="1.57527">
        <ele>190</ele>
        <time>2017-11-11T11:46:51Z</time>
      </trkpt>
      <trkpt lat="43.45564" lon="1.57527">
        <ele>190</ele>
        <time>2017-11-11T11:46:51Z</time>
      </trkpt>
      <trkpt lat="43.45569" lon="1.57525">
        <ele>190</ele>
        <time>2017-11-11T11:47:07Z</time>
      </trkpt>
      <trkpt lat="43.45572" lon="1.57523">
        <ele>190</ele>
        <time>2017-11-11T11:47:07Z</time>
      </trkpt>
      <trkpt lat="43.45576" lon="1.5752">
        <ele>190</ele>
        <time>2017-11-11T11:47:07Z</time>
      </trkpt>
      <trkpt lat="43.45578" lon="1.57518">
        <ele>190</ele>
        <time>2017-11-11T11:47:07Z</time>
      </trkpt>
      <trkpt lat="43.45583" lon="1.57515">
        <ele>190</ele>
        <time>2017-11-11T11:47:27Z</time>
      </trkpt>
      <trkpt lat="43.45585" lon="1.57513">
        <ele>190</ele>
        <time>2017-11-11T11:47:27Z</time>
      </trkpt>
      <trkpt lat="43.45588" lon="1.5751">
        <ele>190</ele>
        <time>2017-11-11T11:47:27Z</time>
      </trkpt>
      <trkpt lat="43.45589" lon="1.57508">
        <ele>190</ele>
        <time>2017-11-11T11:47:27Z</time>
      </trkpt>
      <trkpt lat="43.45592" lon="1.57508">
        <ele>190</ele>
        <time>2017-11-11T11:47:27Z</time>
      </trkpt>
      <trkpt lat="43.45597" lon="1.57505">
        <ele>190</ele>
        <time>2017-11-11T11:47:43Z</time>
      </trkpt>
      <trkpt lat="43.45602" lon="1.57503">
        <ele>190</ele>
        <time>2017-11-11T11:47:43Z</time>
      </trkpt>
      <trkpt lat="43.45606" lon="1.57502">
        <ele>190</ele>
        <time>2017-11-11T11:47:43Z</time>
      </trkpt>
      <trkpt lat="43.45613" lon="1.57498">
        <ele>190</ele>
        <time>2017-11-11T11:47:43Z</time>
      </trkpt>
      <trkpt lat="43.45617" lon="1.57491">
        <ele>190</ele>
        <time>2017-11-11T11:48:07Z</time>
      </trkpt>
      <trkpt lat="43.4562" lon="1.57489">
        <ele>190</ele>
        <time>2017-11-11T11:48:07Z</time>
      </trkpt>
      <trkpt lat="43.45621" lon="1.57488">
        <ele>190</ele>
        <time>2017-11-11T11:48:07Z</time>
      </trkpt>
      <trkpt lat="43.45622" lon="1.57487">
        <ele>190</ele>
        <time>2017-11-11T11:48:07Z</time>
      </trkpt>
      <trkpt lat="43.45625" lon="1.57485">
        <ele>193</ele>
        <time>2017-11-11T11:48:07Z</time>
      </trkpt>
      <trkpt lat="43.45628" lon="1.57484">
        <ele>193</ele>
        <time>2017-11-11T11:48:23Z</time>
      </trkpt>
      <trkpt lat="43.4563" lon="1.5748">
        <ele>193</ele>
        <time>2017-11-11T11:48:23Z</time>
      </trkpt>
      <trkpt lat="43.4563" lon="1.57477">
        <ele>193</ele>
        <time>2017-11-11T11:48:23Z</time>
      </trkpt>
      <trkpt lat="43.45634" lon="1.57474">
        <ele>193</ele>
        <time>2017-11-11T11:48:23Z</time>
      </trkpt>
      <trkpt lat="43.45638" lon="1.57471">
        <ele>193</ele>
        <time>2017-11-11T11:48:39Z</time>
      </trkpt>
      <trkpt lat="43.45642" lon="1.5747">
        <ele>193</ele>
        <time>2017-11-11T11:48:39Z</time>
      </trkpt>
      <trkpt lat="43.45647" lon="1.57469">
        <ele>193</ele>
        <time>2017-11-11T11:48:39Z</time>
      </trkpt>
      <trkpt lat="43.45651" lon="1.57469">
        <ele>193</ele>
        <time>2017-11-11T11:48:39Z</time>
      </trkpt>
      <trkpt lat="43.45655" lon="1.57467">
        <ele>193</ele>
        <time>2017-11-11T11:48:55Z</time>
      </trkpt>
      <trkpt lat="43.45659" lon="1.57464">
        <ele>193</ele>
        <time>2017-11-11T11:48:55Z</time>
      </trkpt>
      <trkpt lat="43.45668" lon="1.57459">
        <ele>193</ele>
        <time>2017-11-11T11:48:55Z</time>
      </trkpt>
      <trkpt lat="43.45674" lon="1.57457">
        <ele>196</ele>
        <time>2017-11-11T11:48:55Z</time>
      </trkpt>
      <trkpt lat="43.45678" lon="1.57454">
        <ele>196</ele>
        <time>2017-11-11T11:49:11Z</time>
      </trkpt>
      <trkpt lat="43.45682" lon="1.57452">
        <ele>196</ele>
        <time>2017-11-11T11:49:11Z</time>
      </trkpt>
      <trkpt lat="43.45686" lon="1.5745">
        <ele>196</ele>
        <time>2017-11-11T11:49:11Z</time>
      </trkpt>
      <trkpt lat="43.45692" lon="1.57446">
        <ele>196</ele>
        <time>2017-11-11T11:49:11Z</time>
      </trkpt>
      <trkpt lat="43.45695" lon="1.5744">
        <ele>196</ele>
        <time>2017-11-11T11:49:27Z</time>
      </trkpt>
      <trkpt lat="43.457" lon="1.57437">
        <ele>196</ele>
        <time>2017-11-11T11:49:27Z</time>
      </trkpt>
      <trkpt lat="43.45706" lon="1.57434">
        <ele>196</ele>
        <time>2017-11-11T11:49:27Z</time>
      </trkpt>
      <trkpt lat="43.45711" lon="1.5743">
        <ele>195</ele>
        <time>2017-11-11T11:49:27Z</time>
      </trkpt>
      <trkpt lat="43.45714" lon="1.57427">
        <ele>195</ele>
        <time>2017-11-11T11:49:43Z</time>
      </trkpt>
      <trkpt lat="43.45718" lon="1.57429">
        <ele>195</ele>
        <time>2017-11-11T11:49:43Z</time>
      </trkpt>
      <trkpt lat="43.45724" lon="1.57433">
        <ele>195</ele>
        <time>2017-11-11T11:49:43Z</time>
      </trkpt>
      <trkpt lat="43.4573" lon="1.57434">
        <ele>195</ele>
        <time>2017-11-11T11:49:43Z</time>
      </trkpt>
      <trkpt lat="43.45735" lon="1.57437">
        <ele>195</ele>
        <time>2017-11-11T11:49:59Z</time>
      </trkpt>
      <trkpt lat="43.45739" lon="1.5744">
        <ele>195</ele>
        <time>2017-11-11T11:49:59Z</time>
      </trkpt>
      <trkpt lat="43.45743" lon="1.57441">
        <ele>195</ele>
        <time>2017-11-11T11:49:59Z</time>
      </trkpt>
      <trkpt lat="43.45743" lon="1.57445">
        <ele>195</ele>
        <time>2017-11-11T11:49:59Z</time>
      </trkpt>
      <trkpt lat="43.45745" lon="1.57451">
        <ele>195</ele>
        <time>2017-11-11T11:51:19Z</time>
      </trkpt>
      <trkpt lat="43.45749" lon="1.57448">
        <ele>195</ele>
        <time>2017-11-11T11:51:19Z</time>
      </trkpt>
      <trkpt lat="43.45752" lon="1.57443">
        <ele>195</ele>
        <time>2017-11-11T11:51:19Z</time>
      </trkpt>
      <trkpt lat="43.45756" lon="1.57441">
        <ele>195</ele>
        <time>2017-11-11T11:51:19Z</time>
      </trkpt>
      <trkpt lat="43.45761" lon="1.5744">
        <ele>195</ele>
        <time>2017-11-11T11:51:19Z</time>
      </trkpt>
      <trkpt lat="43.45765" lon="1.57438">
        <ele>195</ele>
        <time>2017-11-11T11:51:35Z</time>
      </trkpt>
      <trkpt lat="43.45769" lon="1.57434">
        <ele>195</ele>
        <time>2017-11-11T11:51:35Z</time>
      </trkpt>
      <trkpt lat="43.45773" lon="1.57434">
        <ele>195</ele>
        <time>2017-11-11T11:51:35Z</time>
      </trkpt>
      <trkpt lat="43.45777" lon="1.5743">
        <ele>195</ele>
        <time>2017-11-11T11:51:35Z</time>
      </trkpt>
      <trkpt lat="43.45779" lon="1.57424">
        <ele>195</ele>
        <time>2017-11-11T11:51:51Z</time>
      </trkpt>
      <trkpt lat="43.45782" lon="1.57419">
        <ele>195</ele>
        <time>2017-11-11T11:51:51Z</time>
      </trkpt>
      <trkpt lat="43.45782" lon="1.57415">
        <ele>195</ele>
        <time>2017-11-11T11:51:51Z</time>
      </trkpt>
      <trkpt lat="43.45781" lon="1.57409">
        <ele>195</ele>
        <time>2017-11-11T11:51:51Z</time>
      </trkpt>
      <trkpt lat="43.45782" lon="1.57405">
        <ele>195</ele>
        <time>2017-11-11T11:52:07Z</time>
      </trkpt>
      <trkpt lat="43.45785" lon="1.57401">
        <ele>195</ele>
        <time>2017-11-11T11:52:07Z</time>
      </trkpt>
      <trkpt lat="43.4579" lon="1.57399">
        <ele>195</ele>
        <time>2017-11-11T11:52:07Z</time>
      </trkpt>
      <trkpt lat="43.45792" lon="1.57396">
        <ele>194</ele>
        <time>2017-11-11T11:52:07Z</time>
      </trkpt>
      <trkpt lat="43.45797" lon="1.57393">
        <ele>194</ele>
        <time>2017-11-11T11:52:23Z</time>
      </trkpt>
      <trkpt lat="43.45803" lon="1.57391">
        <ele>194</ele>
        <time>2017-11-11T11:52:23Z</time>
      </trkpt>
      <trkpt lat="43.45806" lon="1.57388">
        <ele>194</ele>
        <time>2017-11-11T11:52:23Z</time>
      </trkpt>
      <trkpt lat="43.45811" lon="1.57383">
        <ele>194</ele>
        <time>2017-11-11T11:52:23Z</time>
      </trkpt>
      <trkpt lat="43.45813" lon="1.57377">
        <ele>194</ele>
        <time>2017-11-11T11:52:39Z</time>
      </trkpt>
      <trkpt lat="43.45816" lon="1.57375">
        <ele>194</ele>
        <time>2017-11-11T11:52:39Z</time>
      </trkpt>
      <trkpt lat="43.45821" lon="1.57374">
        <ele>194</ele>
        <time>2017-11-11T11:52:39Z</time>
      </trkpt>
      <trkpt lat="43.45823" lon="1.57369">
        <ele>194</ele>
        <time>2017-11-11T11:52:39Z</time>
      </trkpt>
      <trkpt lat="43.45824" lon="1.57364">
        <ele>194</ele>
        <time>2017-11-11T11:52:55Z</time>
      </trkpt>
      <trkpt lat="43.45831" lon="1.57364">
        <ele>194</ele>
        <time>2017-11-11T11:52:55Z</time>
      </trkpt>
      <trkpt lat="43.45837" lon="1.5736">
        <ele>194</ele>
        <time>2017-11-11T11:52:55Z</time>
      </trkpt>
      <trkpt lat="43.45841" lon="1.57357">
        <ele>194</ele>
        <time>2017-11-11T11:52:55Z</time>
      </trkpt>
      <trkpt lat="43.45846" lon="1.57357">
        <ele>194</ele>
        <time>2017-11-11T11:53:19Z</time>
      </trkpt>
      <trkpt lat="43.45848" lon="1.57354">
        <ele>194</ele>
        <time>2017-11-11T11:53:19Z</time>
      </trkpt>
      <trkpt lat="43.4585" lon="1.57352">
        <ele>194</ele>
        <time>2017-11-11T11:53:19Z</time>
      </trkpt>
      <trkpt lat="43.45851" lon="1.57351">
        <ele>194</ele>
        <time>2017-11-11T11:53:19Z</time>
      </trkpt>
      <trkpt lat="43.45855" lon="1.57343">
        <ele>194</ele>
        <time>2017-11-11T11:53:19Z</time>
      </trkpt>
      <trkpt lat="43.4586" lon="1.57337">
        <ele>194</ele>
        <time>2017-11-11T11:53:35Z</time>
      </trkpt>
      <trkpt lat="43.45861" lon="1.57331">
        <ele>194</ele>
        <time>2017-11-11T11:53:35Z</time>
      </trkpt>
      <trkpt lat="43.45863" lon="1.57326">
        <ele>194</ele>
        <time>2017-11-11T11:53:35Z</time>
      </trkpt>
      <trkpt lat="43.45866" lon="1.57324">
        <ele>194</ele>
        <time>2017-11-11T11:53:35Z</time>
      </trkpt>
      <trkpt lat="43.45871" lon="1.57325">
        <ele>194</ele>
        <time>2017-11-11T11:53:51Z</time>
      </trkpt>
      <trkpt lat="43.45877" lon="1.57325">
        <ele>191</ele>
        <time>2017-11-11T11:53:51Z</time>
      </trkpt>
      <trkpt lat="43.45884" lon="1.57328">
        <ele>191</ele>
        <time>2017-11-11T11:53:51Z</time>
      </trkpt>
      <trkpt lat="43.45888" lon="1.57322">
        <ele>191</ele>
        <time>2017-11-11T11:53:51Z</time>
      </trkpt>
      <trkpt lat="43.45891" lon="1.57315">
        <ele>191</ele>
        <time>2017-11-11T11:54:11Z</time>
      </trkpt>
      <trkpt lat="43.45892" lon="1.57311">
        <ele>191</ele>
        <time>2017-11-11T11:54:11Z</time>
      </trkpt>
      <trkpt lat="43.45895" lon="1.57312">
        <ele>191</ele>
        <time>2017-11-11T11:54:11Z</time>
      </trkpt>
      <trkpt lat="43.45899" lon="1.57309">
        <ele>191</ele>
        <time>2017-11-11T11:54:11Z</time>
      </trkpt>
      <trkpt lat="43.45901" lon="1.57303">
        <ele>191</ele>
        <time>2017-11-11T11:54:11Z</time>
      </trkpt>
      <trkpt lat="43.45904" lon="1.57294">
        <ele>191</ele>
        <time>2017-11-11T11:54:27Z</time>
      </trkpt>
      <trkpt lat="43.45906" lon="1.57283">
        <ele>188</ele>
        <time>2017-11-11T11:54:27Z</time>
      </trkpt>
      <trkpt lat="43.4591" lon="1.57273">
        <ele>188</ele>
        <time>2017-11-11T11:54:27Z</time>
      </trkpt>
      <trkpt lat="43.45913" lon="1.57271">
        <ele>188</ele>
        <time>2017-11-11T11:54:27Z</time>
      </trkpt>
      <trkpt lat="43.45913" lon="1.57272">
        <ele>188</ele>
        <time>2017-11-11T11:54:43Z</time>
      </trkpt>
      <trkpt lat="43.45919" lon="1.57271">
        <ele>188</ele>
        <time>2017-11-11T11:54:43Z</time>
      </trkpt>
      <trkpt lat="43.45925" lon="1.5727">
        <ele>188</ele>
        <time>2017-11-11T11:54:43Z</time>
      </trkpt>
      <trkpt lat="43.45928" lon="1.57263">
        <ele>188</ele>
        <time>2017-11-11T11:54:43Z</time>
      </trkpt>
      <trkpt lat="43.45931" lon="1.57258">
        <ele>188</ele>
        <time>2017-11-11T11:54:59Z</time>
      </trkpt>
      <trkpt lat="43.45936" lon="1.57256">
        <ele>188</ele>
        <time>2017-11-11T11:54:59Z</time>
      </trkpt>
      <trkpt lat="43.4594" lon="1.57255">
        <ele>188</ele>
        <time>2017-11-11T11:54:59Z</time>
      </trkpt>
      <trkpt lat="43.45942" lon="1.57252">
        <ele>188</ele>
        <time>2017-11-11T11:54:59Z</time>
      </trkpt>
      <trkpt lat="43.45947" lon="1.5725">
        <ele>188</ele>
        <time>2017-11-11T11:55:15Z</time>
      </trkpt>
      <trkpt lat="43.45952" lon="1.57248">
        <ele>188</ele>
        <time>2017-11-11T11:55:15Z</time>
      </trkpt>
      <trkpt lat="43.45955" lon="1.57244">
        <ele>188</ele>
        <time>2017-11-11T11:55:15Z</time>
      </trkpt>
      <trkpt lat="43.45961" lon="1.57241">
        <ele>181</ele>
        <time>2017-11-11T11:55:15Z</time>
      </trkpt>
      <trkpt lat="43.45967" lon="1.57237">
        <ele>181</ele>
        <time>2017-11-11T11:55:31Z</time>
      </trkpt>
      <trkpt lat="43.45974" lon="1.57236">
        <ele>181</ele>
        <time>2017-11-11T11:55:31Z</time>
      </trkpt>
      <trkpt lat="43.45978" lon="1.57232">
        <ele>181</ele>
        <time>2017-11-11T11:55:31Z</time>
      </trkpt>
      <trkpt lat="43.45984" lon="1.57228">
        <ele>181</ele>
        <time>2017-11-11T11:55:31Z</time>
      </trkpt>
      <trkpt lat="43.45989" lon="1.57223">
        <ele>181</ele>
        <time>2017-11-11T11:55:51Z</time>
      </trkpt>
      <trkpt lat="43.45994" lon="1.57222">
        <ele>181</ele>
        <time>2017-11-11T11:55:51Z</time>
      </trkpt>
      <trkpt lat="43.45996" lon="1.57221">
        <ele>181</ele>
        <time>2017-11-11T11:55:51Z</time>
      </trkpt>
      <trkpt lat="43.45996" lon="1.57217">
        <ele>181</ele>
        <time>2017-11-11T11:55:51Z</time>
      </trkpt>
      <trkpt lat="43.45999" lon="1.57214">
        <ele>181</ele>
        <time>2017-11-11T11:55:51Z</time>
      </trkpt>
      <trkpt lat="43.46006" lon="1.57214">
        <ele>181</ele>
        <time>2017-11-11T11:56:23Z</time>
      </trkpt>
      <trkpt lat="43.4601" lon="1.57215">
        <ele>181</ele>
        <time>2017-11-11T11:56:23Z</time>
      </trkpt>
      <trkpt lat="43.46012" lon="1.57216">
        <ele>181</ele>
        <time>2017-11-11T11:56:23Z</time>
      </trkpt>
      <trkpt lat="43.46013" lon="1.57216">
        <ele>181</ele>
        <time>2017-11-11T11:56:23Z</time>
      </trkpt>
      <trkpt lat="43.46015" lon="1.57219">
        <ele>181</ele>
        <time>2017-11-11T11:56:23Z</time>
      </trkpt>
    </trkseg>
  </trk>
</gpx>